<?xml version="1.0" encoding="UTF-8" standalone="no" ?>
<gpx xmlns="http://www.topografix.com/GPX/1/1" xmlns:xsi="http://www.w3.org/2001/XMLSchema-instance" xsi:schemaLocation="http://www.topografix.com/GPX/1/1 http://www.topografix.com/GPX/1/1/gpx.xsd" version="1.1" creator="VisuGPX - https://www.visugpx.com">
  <metadata>
    <name>Andorre-Angolasters-FontVerd</name>
    <desc><![CDATA[Très beau sentier.]]></desc>
  </metadata>
  <trk>
    <name><![CDATA[Andorre-Angolasters-FontVerd]]></name>
    <trkseg>
      <trkpt lat="42.51751" lon="1.5689">
        <ele>1656.49</ele>
        <time>2020-08-22T08:35:50Z</time>
      </trkpt>
      <trkpt lat="42.51753" lon="1.56897">
        <ele>1657.45</ele>
        <time>2020-08-22T08:35:55Z</time>
      </trkpt>
      <trkpt lat="42.51753" lon="1.56901">
        <ele>1656.01</ele>
        <time>2020-08-22T08:35:58Z</time>
      </trkpt>
      <trkpt lat="42.51756" lon="1.5692">
        <ele>1654.57</ele>
        <time>2020-08-22T08:36:13Z</time>
      </trkpt>
      <trkpt lat="42.51757" lon="1.56926">
        <ele>1648.32</ele>
        <time>2020-08-22T08:36:17Z</time>
      </trkpt>
      <trkpt lat="42.51758" lon="1.56928">
        <ele>1658.41</ele>
        <time>2020-08-22T08:36:18Z</time>
      </trkpt>
      <trkpt lat="42.51758" lon="1.56929">
        <ele>1655.05</ele>
        <time>2020-08-22T08:36:19Z</time>
      </trkpt>
      <trkpt lat="42.51759" lon="1.56935">
        <ele>1653.12</ele>
        <time>2020-08-22T08:36:23Z</time>
      </trkpt>
      <trkpt lat="42.51761" lon="1.56945">
        <ele>1653.12</ele>
        <time>2020-08-22T08:36:31Z</time>
      </trkpt>
      <trkpt lat="42.51765" lon="1.56965">
        <ele>1651.68</ele>
        <time>2020-08-22T08:36:47Z</time>
      </trkpt>
      <trkpt lat="42.51765" lon="1.56976">
        <ele>1651.2</ele>
        <time>2020-08-22T08:36:55Z</time>
      </trkpt>
      <trkpt lat="42.51769" lon="1.57005">
        <ele>1649.76</ele>
        <time>2020-08-22T08:37:13Z</time>
      </trkpt>
      <trkpt lat="42.51769" lon="1.57017">
        <ele>1648.32</ele>
        <time>2020-08-22T08:37:21Z</time>
      </trkpt>
      <trkpt lat="42.51773" lon="1.5704">
        <ele>1646.88</ele>
        <time>2020-08-22T08:37:37Z</time>
      </trkpt>
      <trkpt lat="42.51776" lon="1.5707">
        <ele>1644.47</ele>
        <time>2020-08-22T08:37:57Z</time>
      </trkpt>
      <trkpt lat="42.51778" lon="1.57097">
        <ele>1642.07</ele>
        <time>2020-08-22T08:38:14Z</time>
      </trkpt>
      <trkpt lat="42.51763" lon="1.57111">
        <ele>1640.63</ele>
        <time>2020-08-22T08:38:29Z</time>
      </trkpt>
      <trkpt lat="42.51756" lon="1.57105">
        <ele>1639.67</ele>
        <time>2020-08-22T08:38:38Z</time>
      </trkpt>
      <trkpt lat="42.51744" lon="1.57091">
        <ele>1639.19</ele>
        <time>2020-08-22T08:38:54Z</time>
      </trkpt>
      <trkpt lat="42.51747" lon="1.57094">
        <ele>1638.7</ele>
        <time>2020-08-22T08:39:15Z</time>
      </trkpt>
      <trkpt lat="42.51744" lon="1.57094">
        <ele>1638.7</ele>
        <time>2020-08-22T08:39:36Z</time>
      </trkpt>
      <trkpt lat="42.51734" lon="1.57094">
        <ele>1638.7</ele>
        <time>2020-08-22T08:40:03Z</time>
      </trkpt>
      <trkpt lat="42.51726" lon="1.57085">
        <ele>1639.67</ele>
        <time>2020-08-22T08:40:22Z</time>
      </trkpt>
      <trkpt lat="42.51721" lon="1.57074">
        <ele>1639.67</ele>
        <time>2020-08-22T08:40:35Z</time>
      </trkpt>
      <trkpt lat="42.51708" lon="1.57053">
        <ele>1639.67</ele>
        <time>2020-08-22T08:40:55Z</time>
      </trkpt>
      <trkpt lat="42.51707" lon="1.57052">
        <ele>1639.67</ele>
        <time>2020-08-22T08:40:56Z</time>
      </trkpt>
      <trkpt lat="42.51689" lon="1.57035">
        <ele>1639.67</ele>
        <time>2020-08-22T08:41:12Z</time>
      </trkpt>
      <trkpt lat="42.51687" lon="1.57034">
        <ele>1639.67</ele>
        <time>2020-08-22T08:41:14Z</time>
      </trkpt>
      <trkpt lat="42.51669" lon="1.57024">
        <ele>1639.67</ele>
        <time>2020-08-22T08:41:30Z</time>
      </trkpt>
      <trkpt lat="42.51666" lon="1.57023">
        <ele>1639.67</ele>
        <time>2020-08-22T08:41:32Z</time>
      </trkpt>
      <trkpt lat="42.51639" lon="1.57021">
        <ele>1639.67</ele>
        <time>2020-08-22T08:41:49Z</time>
      </trkpt>
      <trkpt lat="42.51635" lon="1.57022">
        <ele>1639.67</ele>
        <time>2020-08-22T08:41:52Z</time>
      </trkpt>
      <trkpt lat="42.51616" lon="1.57026">
        <ele>1639.67</ele>
        <time>2020-08-22T08:42:08Z</time>
      </trkpt>
      <trkpt lat="42.51612" lon="1.57028">
        <ele>1639.19</ele>
        <time>2020-08-22T08:42:12Z</time>
      </trkpt>
      <trkpt lat="42.51597" lon="1.57032">
        <ele>1639.19</ele>
        <time>2020-08-22T08:42:27Z</time>
      </trkpt>
      <trkpt lat="42.51583" lon="1.57026">
        <ele>1639.19</ele>
        <time>2020-08-22T08:42:42Z</time>
      </trkpt>
      <trkpt lat="42.5157" lon="1.57013">
        <ele>1639.19</ele>
        <time>2020-08-22T08:43:00Z</time>
      </trkpt>
      <trkpt lat="42.51568" lon="1.57005">
        <ele>1639.19</ele>
        <time>2020-08-22T08:43:08Z</time>
      </trkpt>
      <trkpt lat="42.51566" lon="1.56999">
        <ele>1639.19</ele>
        <time>2020-08-22T08:43:12Z</time>
      </trkpt>
      <trkpt lat="42.51559" lon="1.56975">
        <ele>1639.19</ele>
        <time>2020-08-22T08:43:28Z</time>
      </trkpt>
      <trkpt lat="42.51553" lon="1.56955">
        <ele>1640.15</ele>
        <time>2020-08-22T08:43:41Z</time>
      </trkpt>
      <trkpt lat="42.51549" lon="1.56945">
        <ele>1640.15</ele>
        <time>2020-08-22T08:43:48Z</time>
      </trkpt>
      <trkpt lat="42.51544" lon="1.56926">
        <ele>1640.15</ele>
        <time>2020-08-22T08:44:02Z</time>
      </trkpt>
      <trkpt lat="42.51542" lon="1.56917">
        <ele>1640.15</ele>
        <time>2020-08-22T08:44:06Z</time>
      </trkpt>
      <trkpt lat="42.51533" lon="1.56893">
        <ele>1640.15</ele>
        <time>2020-08-22T08:44:22Z</time>
      </trkpt>
      <trkpt lat="42.51528" lon="1.56886">
        <ele>1640.15</ele>
        <time>2020-08-22T08:44:26Z</time>
      </trkpt>
      <trkpt lat="42.51512" lon="1.56857">
        <ele>1640.15</ele>
        <time>2020-08-22T08:44:47Z</time>
      </trkpt>
      <trkpt lat="42.51491" lon="1.56831">
        <ele>1640.15</ele>
        <time>2020-08-22T08:45:05Z</time>
      </trkpt>
      <trkpt lat="42.5148" lon="1.56814">
        <ele>1641.11</ele>
        <time>2020-08-22T08:45:21Z</time>
      </trkpt>
      <trkpt lat="42.51473" lon="1.56803">
        <ele>1641.59</ele>
        <time>2020-08-22T08:45:40Z</time>
      </trkpt>
      <trkpt lat="42.51458" lon="1.56783">
        <ele>1641.59</ele>
        <time>2020-08-22T08:45:57Z</time>
      </trkpt>
      <trkpt lat="42.51445" lon="1.56759">
        <ele>1640.63</ele>
        <time>2020-08-22T08:46:13Z</time>
      </trkpt>
      <trkpt lat="42.5144" lon="1.56753">
        <ele>1640.63</ele>
        <time>2020-08-22T08:46:31Z</time>
      </trkpt>
      <trkpt lat="42.51407" lon="1.56733">
        <ele>1640.63</ele>
        <time>2020-08-22T08:46:56Z</time>
      </trkpt>
      <trkpt lat="42.5141" lon="1.56733">
        <ele>1640.63</ele>
        <time>2020-08-22T08:47:19Z</time>
      </trkpt>
      <trkpt lat="42.51409" lon="1.56721">
        <ele>1639.67</ele>
        <time>2020-08-22T08:47:34Z</time>
      </trkpt>
      <trkpt lat="42.5141" lon="1.56716">
        <ele>1638.22</ele>
        <time>2020-08-22T08:47:49Z</time>
      </trkpt>
      <trkpt lat="42.51409" lon="1.56712">
        <ele>1641.59</ele>
        <time>2020-08-22T08:48:00Z</time>
      </trkpt>
      <trkpt lat="42.51406" lon="1.567">
        <ele>1643.99</ele>
        <time>2020-08-22T08:48:17Z</time>
      </trkpt>
      <trkpt lat="42.51401" lon="1.567">
        <ele>1643.99</ele>
        <time>2020-08-22T08:48:49Z</time>
      </trkpt>
      <trkpt lat="42.51399" lon="1.56703">
        <ele>1643.99</ele>
        <time>2020-08-22T08:49:06Z</time>
      </trkpt>
      <trkpt lat="42.51399" lon="1.56704">
        <ele>1643.51</ele>
        <time>2020-08-22T08:49:33Z</time>
      </trkpt>
      <trkpt lat="42.51403" lon="1.56704">
        <ele>1643.51</ele>
        <time>2020-08-22T08:49:55Z</time>
      </trkpt>
      <trkpt lat="42.51404" lon="1.5671">
        <ele>1641.59</ele>
        <time>2020-08-22T08:50:10Z</time>
      </trkpt>
      <trkpt lat="42.51405" lon="1.56712">
        <ele>1640.15</ele>
        <time>2020-08-22T08:50:13Z</time>
      </trkpt>
      <trkpt lat="42.51404" lon="1.56723">
        <ele>1637.74</ele>
        <time>2020-08-22T08:50:30Z</time>
      </trkpt>
      <trkpt lat="42.51403" lon="1.56734">
        <ele>1640.15</ele>
        <time>2020-08-22T08:50:44Z</time>
      </trkpt>
      <trkpt lat="42.51397" lon="1.56751">
        <ele>1640.15</ele>
        <time>2020-08-22T08:50:59Z</time>
      </trkpt>
      <trkpt lat="42.51384" lon="1.56762">
        <ele>1640.15</ele>
        <time>2020-08-22T08:51:14Z</time>
      </trkpt>
      <trkpt lat="42.51379" lon="1.56765">
        <ele>1640.15</ele>
        <time>2020-08-22T08:51:19Z</time>
      </trkpt>
      <trkpt lat="42.51373" lon="1.56767">
        <ele>1640.15</ele>
        <time>2020-08-22T08:51:23Z</time>
      </trkpt>
      <trkpt lat="42.51353" lon="1.56773">
        <ele>1640.15</ele>
        <time>2020-08-22T08:51:40Z</time>
      </trkpt>
      <trkpt lat="42.5134" lon="1.56775">
        <ele>1640.15</ele>
        <time>2020-08-22T08:51:51Z</time>
      </trkpt>
      <trkpt lat="42.51331" lon="1.56776">
        <ele>1640.15</ele>
        <time>2020-08-22T08:52:00Z</time>
      </trkpt>
      <trkpt lat="42.51315" lon="1.56775">
        <ele>1640.63</ele>
        <time>2020-08-22T08:52:16Z</time>
      </trkpt>
      <trkpt lat="42.51295" lon="1.56771">
        <ele>1640.63</ele>
        <time>2020-08-22T08:52:33Z</time>
      </trkpt>
      <trkpt lat="42.51293" lon="1.56769">
        <ele>1640.63</ele>
        <time>2020-08-22T08:52:36Z</time>
      </trkpt>
      <trkpt lat="42.51269" lon="1.56761">
        <ele>1640.15</ele>
        <time>2020-08-22T08:52:52Z</time>
      </trkpt>
      <trkpt lat="42.51267" lon="1.56761">
        <ele>1640.63</ele>
        <time>2020-08-22T08:52:54Z</time>
      </trkpt>
      <trkpt lat="42.51249" lon="1.56757">
        <ele>1640.63</ele>
        <time>2020-08-22T08:53:10Z</time>
      </trkpt>
      <trkpt lat="42.51242" lon="1.56758">
        <ele>1640.63</ele>
        <time>2020-08-22T08:53:15Z</time>
      </trkpt>
      <trkpt lat="42.51233" lon="1.56763">
        <ele>1640.63</ele>
        <time>2020-08-22T08:53:23Z</time>
      </trkpt>
      <trkpt lat="42.51219" lon="1.56781">
        <ele>1640.63</ele>
        <time>2020-08-22T08:53:38Z</time>
      </trkpt>
      <trkpt lat="42.51208" lon="1.56801">
        <ele>1641.11</ele>
        <time>2020-08-22T08:53:54Z</time>
      </trkpt>
      <trkpt lat="42.512" lon="1.56824">
        <ele>1641.11</ele>
        <time>2020-08-22T08:54:08Z</time>
      </trkpt>
      <trkpt lat="42.51199" lon="1.56826">
        <ele>1641.11</ele>
        <time>2020-08-22T08:54:09Z</time>
      </trkpt>
      <trkpt lat="42.51197" lon="1.56833">
        <ele>1641.11</ele>
        <time>2020-08-22T08:54:14Z</time>
      </trkpt>
      <trkpt lat="42.5119" lon="1.5685">
        <ele>1641.59</ele>
        <time>2020-08-22T08:54:26Z</time>
      </trkpt>
      <trkpt lat="42.51185" lon="1.56862">
        <ele>1642.07</ele>
        <time>2020-08-22T08:54:34Z</time>
      </trkpt>
      <trkpt lat="42.51176" lon="1.56869">
        <ele>1642.07</ele>
        <time>2020-08-22T08:54:46Z</time>
      </trkpt>
      <trkpt lat="42.5116" lon="1.56865">
        <ele>1642.07</ele>
        <time>2020-08-22T08:55:03Z</time>
      </trkpt>
      <trkpt lat="42.51155" lon="1.56862">
        <ele>1642.07</ele>
        <time>2020-08-22T08:55:06Z</time>
      </trkpt>
      <trkpt lat="42.51139" lon="1.56853">
        <ele>1642.07</ele>
        <time>2020-08-22T08:55:20Z</time>
      </trkpt>
      <trkpt lat="42.5113" lon="1.5685">
        <ele>1642.07</ele>
        <time>2020-08-22T08:55:28Z</time>
      </trkpt>
      <trkpt lat="42.51107" lon="1.56846">
        <ele>1642.07</ele>
        <time>2020-08-22T08:55:43Z</time>
      </trkpt>
      <trkpt lat="42.511" lon="1.5686">
        <ele>1642.07</ele>
        <time>2020-08-22T08:55:54Z</time>
      </trkpt>
      <trkpt lat="42.51088" lon="1.5688">
        <ele>1642.07</ele>
        <time>2020-08-22T08:56:11Z</time>
      </trkpt>
      <trkpt lat="42.51071" lon="1.56887">
        <ele>1642.07</ele>
        <time>2020-08-22T08:56:25Z</time>
      </trkpt>
      <trkpt lat="42.51057" lon="1.56897">
        <ele>1640.63</ele>
        <time>2020-08-22T08:56:39Z</time>
      </trkpt>
      <trkpt lat="42.51056" lon="1.56898">
        <ele>1640.63</ele>
        <time>2020-08-22T08:56:40Z</time>
      </trkpt>
      <trkpt lat="42.51037" lon="1.5691">
        <ele>1640.15</ele>
        <time>2020-08-22T08:56:57Z</time>
      </trkpt>
      <trkpt lat="42.51021" lon="1.56916">
        <ele>1639.67</ele>
        <time>2020-08-22T08:57:11Z</time>
      </trkpt>
      <trkpt lat="42.51015" lon="1.56915">
        <ele>1639.67</ele>
        <time>2020-08-22T08:57:16Z</time>
      </trkpt>
      <trkpt lat="42.51012" lon="1.56924">
        <ele>1639.19</ele>
        <time>2020-08-22T08:57:22Z</time>
      </trkpt>
      <trkpt lat="42.51012" lon="1.56936">
        <ele>1639.19</ele>
        <time>2020-08-22T08:57:29Z</time>
      </trkpt>
      <trkpt lat="42.51009" lon="1.56942">
        <ele>1639.19</ele>
        <time>2020-08-22T08:57:34Z</time>
      </trkpt>
      <trkpt lat="42.51005" lon="1.5695">
        <ele>1638.7</ele>
        <time>2020-08-22T08:57:41Z</time>
      </trkpt>
      <trkpt lat="42.5099" lon="1.56969">
        <ele>1638.22</ele>
        <time>2020-08-22T08:57:58Z</time>
      </trkpt>
      <trkpt lat="42.50989" lon="1.5697">
        <ele>1638.22</ele>
        <time>2020-08-22T08:57:59Z</time>
      </trkpt>
      <trkpt lat="42.50981" lon="1.56988">
        <ele>1638.22</ele>
        <time>2020-08-22T08:58:13Z</time>
      </trkpt>
      <trkpt lat="42.50976" lon="1.56998">
        <ele>1638.22</ele>
        <time>2020-08-22T08:58:31Z</time>
      </trkpt>
      <trkpt lat="42.50969" lon="1.57007">
        <ele>1638.22</ele>
        <time>2020-08-22T08:58:41Z</time>
      </trkpt>
      <trkpt lat="42.50954" lon="1.57017">
        <ele>1637.26</ele>
        <time>2020-08-22T08:58:55Z</time>
      </trkpt>
      <trkpt lat="42.50947" lon="1.57017">
        <ele>1636.3</ele>
        <time>2020-08-22T08:59:06Z</time>
      </trkpt>
      <trkpt lat="42.5094" lon="1.57013">
        <ele>1635.82</ele>
        <time>2020-08-22T08:59:23Z</time>
      </trkpt>
      <trkpt lat="42.50939" lon="1.57016">
        <ele>1635.82</ele>
        <time>2020-08-22T08:59:36Z</time>
      </trkpt>
      <trkpt lat="42.50941" lon="1.57014">
        <ele>1635.82</ele>
        <time>2020-08-22T08:59:59Z</time>
      </trkpt>
      <trkpt lat="42.50933" lon="1.57004">
        <ele>1637.74</ele>
        <time>2020-08-22T09:00:13Z</time>
      </trkpt>
      <trkpt lat="42.50929" lon="1.57">
        <ele>1639.19</ele>
        <time>2020-08-22T09:00:18Z</time>
      </trkpt>
      <trkpt lat="42.50919" lon="1.56998">
        <ele>1639.19</ele>
        <time>2020-08-22T09:00:26Z</time>
      </trkpt>
      <trkpt lat="42.509" lon="1.57001">
        <ele>1639.19</ele>
        <time>2020-08-22T09:00:42Z</time>
      </trkpt>
      <trkpt lat="42.50889" lon="1.57">
        <ele>1639.67</ele>
        <time>2020-08-22T09:00:56Z</time>
      </trkpt>
      <trkpt lat="42.50878" lon="1.57">
        <ele>1641.59</ele>
        <time>2020-08-22T09:01:09Z</time>
      </trkpt>
      <trkpt lat="42.50866" lon="1.57004">
        <ele>1643.51</ele>
        <time>2020-08-22T09:01:25Z</time>
      </trkpt>
      <trkpt lat="42.50859" lon="1.57004">
        <ele>1643.51</ele>
        <time>2020-08-22T09:01:39Z</time>
      </trkpt>
      <trkpt lat="42.50857" lon="1.57002">
        <ele>1644.47</ele>
        <time>2020-08-22T09:01:44Z</time>
      </trkpt>
      <trkpt lat="42.50848" lon="1.57">
        <ele>1644.95</ele>
        <time>2020-08-22T09:01:57Z</time>
      </trkpt>
      <trkpt lat="42.50836" lon="1.56997">
        <ele>1646.88</ele>
        <time>2020-08-22T09:02:13Z</time>
      </trkpt>
      <trkpt lat="42.50834" lon="1.56996">
        <ele>1646.88</ele>
        <time>2020-08-22T09:02:33Z</time>
      </trkpt>
      <trkpt lat="42.50828" lon="1.56988">
        <ele>1647.36</ele>
        <time>2020-08-22T09:02:47Z</time>
      </trkpt>
      <trkpt lat="42.50822" lon="1.56976">
        <ele>1649.28</ele>
        <time>2020-08-22T09:03:02Z</time>
      </trkpt>
      <trkpt lat="42.50819" lon="1.56963">
        <ele>1651.2</ele>
        <time>2020-08-22T09:03:17Z</time>
      </trkpt>
      <trkpt lat="42.50814" lon="1.56953">
        <ele>1652.64</ele>
        <time>2020-08-22T09:03:31Z</time>
      </trkpt>
      <trkpt lat="42.50804" lon="1.56937">
        <ele>1654.09</ele>
        <time>2020-08-22T09:03:47Z</time>
      </trkpt>
      <trkpt lat="42.508" lon="1.56922">
        <ele>1656.49</ele>
        <time>2020-08-22T09:04:01Z</time>
      </trkpt>
      <trkpt lat="42.50798" lon="1.56914">
        <ele>1657.93</ele>
        <time>2020-08-22T09:04:15Z</time>
      </trkpt>
      <trkpt lat="42.50792" lon="1.56905">
        <ele>1660.33</ele>
        <time>2020-08-22T09:04:29Z</time>
      </trkpt>
      <trkpt lat="42.50787" lon="1.56891">
        <ele>1661.78</ele>
        <time>2020-08-22T09:04:48Z</time>
      </trkpt>
      <trkpt lat="42.5078" lon="1.56883">
        <ele>1663.22</ele>
        <time>2020-08-22T09:05:01Z</time>
      </trkpt>
      <trkpt lat="42.50776" lon="1.56867">
        <ele>1665.14</ele>
        <time>2020-08-22T09:05:15Z</time>
      </trkpt>
      <trkpt lat="42.50767" lon="1.56854">
        <ele>1665.14</ele>
        <time>2020-08-22T09:05:30Z</time>
      </trkpt>
      <trkpt lat="42.50763" lon="1.56842">
        <ele>1667.06</ele>
        <time>2020-08-22T09:05:45Z</time>
      </trkpt>
      <trkpt lat="42.50762" lon="1.56839">
        <ele>1667.06</ele>
        <time>2020-08-22T09:05:48Z</time>
      </trkpt>
      <trkpt lat="42.50751" lon="1.56824">
        <ele>1667.06</ele>
        <time>2020-08-22T09:06:04Z</time>
      </trkpt>
      <trkpt lat="42.50747" lon="1.56812">
        <ele>1667.06</ele>
        <time>2020-08-22T09:06:21Z</time>
      </trkpt>
      <trkpt lat="42.50741" lon="1.56805">
        <ele>1669.47</ele>
        <time>2020-08-22T09:06:36Z</time>
      </trkpt>
      <trkpt lat="42.50741" lon="1.56803">
        <ele>1670.91</ele>
        <time>2020-08-22T09:06:39Z</time>
      </trkpt>
      <trkpt lat="42.50737" lon="1.56796">
        <ele>1670.91</ele>
        <time>2020-08-22T09:06:52Z</time>
      </trkpt>
      <trkpt lat="42.50734" lon="1.56787">
        <ele>1672.35</ele>
        <time>2020-08-22T09:07:06Z</time>
      </trkpt>
      <trkpt lat="42.50729" lon="1.56771">
        <ele>1673.79</ele>
        <time>2020-08-22T09:07:22Z</time>
      </trkpt>
      <trkpt lat="42.50721" lon="1.56759">
        <ele>1674.27</ele>
        <time>2020-08-22T09:07:38Z</time>
      </trkpt>
      <trkpt lat="42.50717" lon="1.56754">
        <ele>1675.23</ele>
        <time>2020-08-22T09:07:52Z</time>
      </trkpt>
      <trkpt lat="42.50711" lon="1.56752">
        <ele>1676.2</ele>
        <time>2020-08-22T09:08:10Z</time>
      </trkpt>
      <trkpt lat="42.5071" lon="1.5674">
        <ele>1677.16</ele>
        <time>2020-08-22T09:08:23Z</time>
      </trkpt>
      <trkpt lat="42.50708" lon="1.5673">
        <ele>1678.6</ele>
        <time>2020-08-22T09:08:37Z</time>
      </trkpt>
      <trkpt lat="42.50703" lon="1.56719">
        <ele>1679.56</ele>
        <time>2020-08-22T09:08:49Z</time>
      </trkpt>
      <trkpt lat="42.507" lon="1.56714">
        <ele>1681</ele>
        <time>2020-08-22T09:09:00Z</time>
      </trkpt>
      <trkpt lat="42.50695" lon="1.56701">
        <ele>1682.93</ele>
        <time>2020-08-22T09:09:17Z</time>
      </trkpt>
      <trkpt lat="42.50694" lon="1.56688">
        <ele>1684.37</ele>
        <time>2020-08-22T09:09:30Z</time>
      </trkpt>
      <trkpt lat="42.50688" lon="1.56676">
        <ele>1686.29</ele>
        <time>2020-08-22T09:09:44Z</time>
      </trkpt>
      <trkpt lat="42.50681" lon="1.56664">
        <ele>1687.73</ele>
        <time>2020-08-22T09:09:57Z</time>
      </trkpt>
      <trkpt lat="42.50679" lon="1.56652">
        <ele>1690.62</ele>
        <time>2020-08-22T09:10:14Z</time>
      </trkpt>
      <trkpt lat="42.50676" lon="1.56635">
        <ele>1693.5</ele>
        <time>2020-08-22T09:10:34Z</time>
      </trkpt>
      <trkpt lat="42.5067" lon="1.56624">
        <ele>1694.46</ele>
        <time>2020-08-22T09:10:48Z</time>
      </trkpt>
      <trkpt lat="42.50667" lon="1.5661">
        <ele>1695.42</ele>
        <time>2020-08-22T09:11:03Z</time>
      </trkpt>
      <trkpt lat="42.50664" lon="1.56595">
        <ele>1695.9</ele>
        <time>2020-08-22T09:11:16Z</time>
      </trkpt>
      <trkpt lat="42.50656" lon="1.56582">
        <ele>1696.86</ele>
        <time>2020-08-22T09:11:32Z</time>
      </trkpt>
      <trkpt lat="42.50647" lon="1.56569">
        <ele>1697.83</ele>
        <time>2020-08-22T09:11:46Z</time>
      </trkpt>
      <trkpt lat="42.50638" lon="1.56558">
        <ele>1699.27</ele>
        <time>2020-08-22T09:12:00Z</time>
      </trkpt>
      <trkpt lat="42.50629" lon="1.56541">
        <ele>1699.75</ele>
        <time>2020-08-22T09:12:16Z</time>
      </trkpt>
      <trkpt lat="42.5062" lon="1.56531">
        <ele>1699.75</ele>
        <time>2020-08-22T09:12:29Z</time>
      </trkpt>
      <trkpt lat="42.50601" lon="1.56526">
        <ele>1700.71</ele>
        <time>2020-08-22T09:12:46Z</time>
      </trkpt>
      <trkpt lat="42.506" lon="1.56526">
        <ele>1700.71</ele>
        <time>2020-08-22T09:12:48Z</time>
      </trkpt>
      <trkpt lat="42.50585" lon="1.56525">
        <ele>1700.71</ele>
        <time>2020-08-22T09:13:02Z</time>
      </trkpt>
      <trkpt lat="42.50568" lon="1.56522">
        <ele>1700.71</ele>
        <time>2020-08-22T09:13:17Z</time>
      </trkpt>
      <trkpt lat="42.50551" lon="1.56523">
        <ele>1700.71</ele>
        <time>2020-08-22T09:13:31Z</time>
      </trkpt>
      <trkpt lat="42.50542" lon="1.56525">
        <ele>1703.59</ele>
        <time>2020-08-22T09:13:45Z</time>
      </trkpt>
      <trkpt lat="42.50532" lon="1.56527">
        <ele>1705.04</ele>
        <time>2020-08-22T09:13:55Z</time>
      </trkpt>
      <trkpt lat="42.50521" lon="1.5653">
        <ele>1706.96</ele>
        <time>2020-08-22T09:14:08Z</time>
      </trkpt>
      <trkpt lat="42.50508" lon="1.56534">
        <ele>1708.88</ele>
        <time>2020-08-22T09:14:23Z</time>
      </trkpt>
      <trkpt lat="42.50493" lon="1.56535">
        <ele>1710.8</ele>
        <time>2020-08-22T09:14:39Z</time>
      </trkpt>
      <trkpt lat="42.50482" lon="1.56534">
        <ele>1712.73</ele>
        <time>2020-08-22T09:14:55Z</time>
      </trkpt>
      <trkpt lat="42.50473" lon="1.56529">
        <ele>1714.65</ele>
        <time>2020-08-22T09:15:09Z</time>
      </trkpt>
      <trkpt lat="42.50466" lon="1.5653">
        <ele>1716.09</ele>
        <time>2020-08-22T09:15:21Z</time>
      </trkpt>
      <trkpt lat="42.5046" lon="1.56533">
        <ele>1716.09</ele>
        <time>2020-08-22T09:15:42Z</time>
      </trkpt>
      <trkpt lat="42.50459" lon="1.56532">
        <ele>1716.57</ele>
        <time>2020-08-22T09:15:44Z</time>
      </trkpt>
      <trkpt lat="42.50451" lon="1.56527">
        <ele>1717.53</ele>
        <time>2020-08-22T09:15:57Z</time>
      </trkpt>
      <trkpt lat="42.50442" lon="1.56524">
        <ele>1719.46</ele>
        <time>2020-08-22T09:16:12Z</time>
      </trkpt>
      <trkpt lat="42.50432" lon="1.56524">
        <ele>1722.34</ele>
        <time>2020-08-22T09:16:28Z</time>
      </trkpt>
      <trkpt lat="42.5043" lon="1.56524">
        <ele>1723.3</ele>
        <time>2020-08-22T09:16:31Z</time>
      </trkpt>
      <trkpt lat="42.50421" lon="1.56522">
        <ele>1724.74</ele>
        <time>2020-08-22T09:16:47Z</time>
      </trkpt>
      <trkpt lat="42.50414" lon="1.56516">
        <ele>1727.63</ele>
        <time>2020-08-22T09:17:04Z</time>
      </trkpt>
      <trkpt lat="42.50404" lon="1.56512">
        <ele>1730.03</ele>
        <time>2020-08-22T09:17:20Z</time>
      </trkpt>
      <trkpt lat="42.50397" lon="1.56512">
        <ele>1731.47</ele>
        <time>2020-08-22T09:17:34Z</time>
      </trkpt>
      <trkpt lat="42.50393" lon="1.56508">
        <ele>1732.43</ele>
        <time>2020-08-22T09:17:47Z</time>
      </trkpt>
      <trkpt lat="42.50396" lon="1.56507">
        <ele>1730.51</ele>
        <time>2020-08-22T09:18:00Z</time>
      </trkpt>
      <trkpt lat="42.50395" lon="1.56507">
        <ele>1731.95</ele>
        <time>2020-08-22T09:18:07Z</time>
      </trkpt>
      <trkpt lat="42.50389" lon="1.56507">
        <ele>1731.47</ele>
        <time>2020-08-22T09:18:33Z</time>
      </trkpt>
      <trkpt lat="42.50386" lon="1.56507">
        <ele>1731.47</ele>
        <time>2020-08-22T09:18:58Z</time>
      </trkpt>
      <trkpt lat="42.50375" lon="1.56504">
        <ele>1733.88</ele>
        <time>2020-08-22T09:19:13Z</time>
      </trkpt>
      <trkpt lat="42.50371" lon="1.56502">
        <ele>1734.84</ele>
        <time>2020-08-22T09:19:25Z</time>
      </trkpt>
      <trkpt lat="42.50359" lon="1.56498">
        <ele>1738.2</ele>
        <time>2020-08-22T09:19:40Z</time>
      </trkpt>
      <trkpt lat="42.50351" lon="1.56496">
        <ele>1740.6</ele>
        <time>2020-08-22T09:19:53Z</time>
      </trkpt>
      <trkpt lat="42.50342" lon="1.56491">
        <ele>1743.01</ele>
        <time>2020-08-22T09:20:09Z</time>
      </trkpt>
      <trkpt lat="42.5034" lon="1.56489">
        <ele>1747.33</ele>
        <time>2020-08-22T09:20:19Z</time>
      </trkpt>
      <trkpt lat="42.50339" lon="1.56489">
        <ele>1744.93</ele>
        <time>2020-08-22T09:20:20Z</time>
      </trkpt>
      <trkpt lat="42.50338" lon="1.56489">
        <ele>1743.97</ele>
        <time>2020-08-22T09:20:22Z</time>
      </trkpt>
      <trkpt lat="42.50334" lon="1.56488">
        <ele>1746.37</ele>
        <time>2020-08-22T09:20:30Z</time>
      </trkpt>
      <trkpt lat="42.50321" lon="1.56486">
        <ele>1748.29</ele>
        <time>2020-08-22T09:20:47Z</time>
      </trkpt>
      <trkpt lat="42.50311" lon="1.56483">
        <ele>1749.74</ele>
        <time>2020-08-22T09:21:02Z</time>
      </trkpt>
      <trkpt lat="42.50308" lon="1.56479">
        <ele>1751.66</ele>
        <time>2020-08-22T09:21:20Z</time>
      </trkpt>
      <trkpt lat="42.503" lon="1.56479">
        <ele>1754.54</ele>
        <time>2020-08-22T09:21:35Z</time>
      </trkpt>
      <trkpt lat="42.50286" lon="1.56476">
        <ele>1755.02</ele>
        <time>2020-08-22T09:21:52Z</time>
      </trkpt>
      <trkpt lat="42.5028" lon="1.5647">
        <ele>1758.87</ele>
        <time>2020-08-22T09:22:07Z</time>
      </trkpt>
      <trkpt lat="42.50266" lon="1.56459">
        <ele>1760.31</ele>
        <time>2020-08-22T09:22:28Z</time>
      </trkpt>
      <trkpt lat="42.50258" lon="1.56451">
        <ele>1763.68</ele>
        <time>2020-08-22T09:22:44Z</time>
      </trkpt>
      <trkpt lat="42.50247" lon="1.56442">
        <ele>1765.6</ele>
        <time>2020-08-22T09:23:01Z</time>
      </trkpt>
      <trkpt lat="42.50238" lon="1.56433">
        <ele>1767.52</ele>
        <time>2020-08-22T09:23:18Z</time>
      </trkpt>
      <trkpt lat="42.5023" lon="1.56426">
        <ele>1769.44</ele>
        <time>2020-08-22T09:23:32Z</time>
      </trkpt>
      <trkpt lat="42.50224" lon="1.56413">
        <ele>1771.37</ele>
        <time>2020-08-22T09:23:49Z</time>
      </trkpt>
      <trkpt lat="42.50216" lon="1.56405">
        <ele>1771.37</ele>
        <time>2020-08-22T09:24:01Z</time>
      </trkpt>
      <trkpt lat="42.50214" lon="1.56402">
        <ele>1772.81</ele>
        <time>2020-08-22T09:24:04Z</time>
      </trkpt>
      <trkpt lat="42.50203" lon="1.5639">
        <ele>1774.25</ele>
        <time>2020-08-22T09:24:20Z</time>
      </trkpt>
      <trkpt lat="42.50187" lon="1.56378">
        <ele>1776.65</ele>
        <time>2020-08-22T09:24:35Z</time>
      </trkpt>
      <trkpt lat="42.50175" lon="1.56376">
        <ele>1779.06</ele>
        <time>2020-08-22T09:24:52Z</time>
      </trkpt>
      <trkpt lat="42.50173" lon="1.56379">
        <ele>1779.54</ele>
        <time>2020-08-22T09:25:08Z</time>
      </trkpt>
      <trkpt lat="42.5017" lon="1.56377">
        <ele>1779.54</ele>
        <time>2020-08-22T09:25:19Z</time>
      </trkpt>
      <trkpt lat="42.50164" lon="1.5637">
        <ele>1780.98</ele>
        <time>2020-08-22T09:25:33Z</time>
      </trkpt>
      <trkpt lat="42.50162" lon="1.56355">
        <ele>1782.42</ele>
        <time>2020-08-22T09:25:46Z</time>
      </trkpt>
      <trkpt lat="42.50158" lon="1.56342">
        <ele>1785.31</ele>
        <time>2020-08-22T09:26:01Z</time>
      </trkpt>
      <trkpt lat="42.5016" lon="1.56348">
        <ele>1783.38</ele>
        <time>2020-08-22T09:26:19Z</time>
      </trkpt>
      <trkpt lat="42.50162" lon="1.56359">
        <ele>1781.46</ele>
        <time>2020-08-22T09:26:32Z</time>
      </trkpt>
      <trkpt lat="42.50167" lon="1.56373">
        <ele>1779.54</ele>
        <time>2020-08-22T09:26:49Z</time>
      </trkpt>
      <trkpt lat="42.5017" lon="1.56389">
        <ele>1779.06</ele>
        <time>2020-08-22T09:27:03Z</time>
      </trkpt>
      <trkpt lat="42.50172" lon="1.56389">
        <ele>1779.06</ele>
        <time>2020-08-22T09:27:17Z</time>
      </trkpt>
      <trkpt lat="42.5017" lon="1.56384">
        <ele>1779.54</ele>
        <time>2020-08-22T09:27:32Z</time>
      </trkpt>
      <trkpt lat="42.5016" lon="1.56387">
        <ele>1776.17</ele>
        <time>2020-08-22T09:27:47Z</time>
      </trkpt>
      <trkpt lat="42.50155" lon="1.56399">
        <ele>1774.25</ele>
        <time>2020-08-22T09:28:01Z</time>
      </trkpt>
      <trkpt lat="42.5015" lon="1.56406">
        <ele>1772.81</ele>
        <time>2020-08-22T09:28:14Z</time>
      </trkpt>
      <trkpt lat="42.50145" lon="1.56412">
        <ele>1770.89</ele>
        <time>2020-08-22T09:28:29Z</time>
      </trkpt>
      <trkpt lat="42.50137" lon="1.56418">
        <ele>1768</ele>
        <time>2020-08-22T09:28:44Z</time>
      </trkpt>
      <trkpt lat="42.50131" lon="1.56427">
        <ele>1765.6</ele>
        <time>2020-08-22T09:28:59Z</time>
      </trkpt>
      <trkpt lat="42.50124" lon="1.56437">
        <ele>1764.16</ele>
        <time>2020-08-22T09:29:14Z</time>
      </trkpt>
      <trkpt lat="42.50117" lon="1.56447">
        <ele>1760.31</ele>
        <time>2020-08-22T09:29:32Z</time>
      </trkpt>
      <trkpt lat="42.50112" lon="1.56453">
        <ele>1757.91</ele>
        <time>2020-08-22T09:29:47Z</time>
      </trkpt>
      <trkpt lat="42.50108" lon="1.56457">
        <ele>1756.95</ele>
        <time>2020-08-22T09:30:03Z</time>
      </trkpt>
      <trkpt lat="42.50103" lon="1.56454">
        <ele>1755.5</ele>
        <time>2020-08-22T09:30:16Z</time>
      </trkpt>
      <trkpt lat="42.50101" lon="1.56461">
        <ele>1753.58</ele>
        <time>2020-08-22T09:30:36Z</time>
      </trkpt>
      <trkpt lat="42.50102" lon="1.56471">
        <ele>1751.18</ele>
        <time>2020-08-22T09:30:49Z</time>
      </trkpt>
      <trkpt lat="42.50105" lon="1.56484">
        <ele>1748.78</ele>
        <time>2020-08-22T09:31:04Z</time>
      </trkpt>
      <trkpt lat="42.50105" lon="1.56489">
        <ele>1746.37</ele>
        <time>2020-08-22T09:31:12Z</time>
      </trkpt>
      <trkpt lat="42.50102" lon="1.56496">
        <ele>1745.41</ele>
        <time>2020-08-22T09:31:25Z</time>
      </trkpt>
      <trkpt lat="42.501" lon="1.56503">
        <ele>1743.49</ele>
        <time>2020-08-22T09:31:40Z</time>
      </trkpt>
      <trkpt lat="42.50093" lon="1.56506">
        <ele>1742.05</ele>
        <time>2020-08-22T09:31:53Z</time>
      </trkpt>
      <trkpt lat="42.50087" lon="1.56518">
        <ele>1741.57</ele>
        <time>2020-08-22T09:32:09Z</time>
      </trkpt>
      <trkpt lat="42.50086" lon="1.56529">
        <ele>1739.64</ele>
        <time>2020-08-22T09:32:23Z</time>
      </trkpt>
      <trkpt lat="42.50089" lon="1.56541">
        <ele>1737.72</ele>
        <time>2020-08-22T09:32:37Z</time>
      </trkpt>
      <trkpt lat="42.50091" lon="1.56556">
        <ele>1737.72</ele>
        <time>2020-08-22T09:32:53Z</time>
      </trkpt>
      <trkpt lat="42.50093" lon="1.56554">
        <ele>1737.72</ele>
        <time>2020-08-22T09:33:09Z</time>
      </trkpt>
      <trkpt lat="42.5009" lon="1.56558">
        <ele>1737.24</ele>
        <time>2020-08-22T09:33:33Z</time>
      </trkpt>
      <trkpt lat="42.50082" lon="1.5657">
        <ele>1735.32</ele>
        <time>2020-08-22T09:33:48Z</time>
      </trkpt>
      <trkpt lat="42.5008" lon="1.56571">
        <ele>1734.84</ele>
        <time>2020-08-22T09:33:51Z</time>
      </trkpt>
      <trkpt lat="42.50068" lon="1.5657">
        <ele>1732.91</ele>
        <time>2020-08-22T09:34:06Z</time>
      </trkpt>
      <trkpt lat="42.50059" lon="1.56574">
        <ele>1731.95</ele>
        <time>2020-08-22T09:34:21Z</time>
      </trkpt>
      <trkpt lat="42.50057" lon="1.56583">
        <ele>1730.51</ele>
        <time>2020-08-22T09:34:34Z</time>
      </trkpt>
      <trkpt lat="42.50061" lon="1.56587">
        <ele>1729.07</ele>
        <time>2020-08-22T09:34:46Z</time>
      </trkpt>
      <trkpt lat="42.50065" lon="1.56601">
        <ele>1727.63</ele>
        <time>2020-08-22T09:34:59Z</time>
      </trkpt>
      <trkpt lat="42.50065" lon="1.56615">
        <ele>1726.18</ele>
        <time>2020-08-22T09:35:15Z</time>
      </trkpt>
      <trkpt lat="42.50059" lon="1.56619">
        <ele>1725.22</ele>
        <time>2020-08-22T09:35:29Z</time>
      </trkpt>
      <trkpt lat="42.50048" lon="1.56625">
        <ele>1723.78</ele>
        <time>2020-08-22T09:35:44Z</time>
      </trkpt>
      <trkpt lat="42.50046" lon="1.56636">
        <ele>1721.86</ele>
        <time>2020-08-22T09:35:56Z</time>
      </trkpt>
      <trkpt lat="42.50045" lon="1.56642">
        <ele>1721.86</ele>
        <time>2020-08-22T09:36:03Z</time>
      </trkpt>
      <trkpt lat="42.50044" lon="1.56652">
        <ele>1719.46</ele>
        <time>2020-08-22T09:36:18Z</time>
      </trkpt>
      <trkpt lat="42.50043" lon="1.56664">
        <ele>1718.01</ele>
        <time>2020-08-22T09:36:31Z</time>
      </trkpt>
      <trkpt lat="42.50041" lon="1.56674">
        <ele>1717.05</ele>
        <time>2020-08-22T09:36:44Z</time>
      </trkpt>
      <trkpt lat="42.50036" lon="1.56689">
        <ele>1715.13</ele>
        <time>2020-08-22T09:37:00Z</time>
      </trkpt>
      <trkpt lat="42.50032" lon="1.56698">
        <ele>1713.69</ele>
        <time>2020-08-22T09:37:15Z</time>
      </trkpt>
      <trkpt lat="42.5003" lon="1.56708">
        <ele>1713.21</ele>
        <time>2020-08-22T09:37:29Z</time>
      </trkpt>
      <trkpt lat="42.50028" lon="1.56714">
        <ele>1711.76</ele>
        <time>2020-08-22T09:37:41Z</time>
      </trkpt>
      <trkpt lat="42.50025" lon="1.56723">
        <ele>1710.32</ele>
        <time>2020-08-22T09:37:55Z</time>
      </trkpt>
      <trkpt lat="42.50022" lon="1.56737">
        <ele>1710.32</ele>
        <time>2020-08-22T09:38:09Z</time>
      </trkpt>
      <trkpt lat="42.50023" lon="1.56756">
        <ele>1709.84</ele>
        <time>2020-08-22T09:38:23Z</time>
      </trkpt>
      <trkpt lat="42.50023" lon="1.5677">
        <ele>1708.88</ele>
        <time>2020-08-22T09:38:36Z</time>
      </trkpt>
      <trkpt lat="42.50018" lon="1.56787">
        <ele>1707.44</ele>
        <time>2020-08-22T09:38:51Z</time>
      </trkpt>
      <trkpt lat="42.50009" lon="1.56798">
        <ele>1706.96</ele>
        <time>2020-08-22T09:39:06Z</time>
      </trkpt>
      <trkpt lat="42.5" lon="1.56814">
        <ele>1705.04</ele>
        <time>2020-08-22T09:39:20Z</time>
      </trkpt>
      <trkpt lat="42.49992" lon="1.56834">
        <ele>1703.59</ele>
        <time>2020-08-22T09:39:35Z</time>
      </trkpt>
      <trkpt lat="42.49988" lon="1.56845">
        <ele>1702.63</ele>
        <time>2020-08-22T09:39:50Z</time>
      </trkpt>
      <trkpt lat="42.49983" lon="1.56852">
        <ele>1701.67</ele>
        <time>2020-08-22T09:39:59Z</time>
      </trkpt>
      <trkpt lat="42.4998" lon="1.56868">
        <ele>1700.71</ele>
        <time>2020-08-22T09:40:14Z</time>
      </trkpt>
      <trkpt lat="42.49976" lon="1.56877">
        <ele>1700.23</ele>
        <time>2020-08-22T09:40:26Z</time>
      </trkpt>
      <trkpt lat="42.49968" lon="1.56894">
        <ele>1699.27</ele>
        <time>2020-08-22T09:40:42Z</time>
      </trkpt>
      <trkpt lat="42.49963" lon="1.56914">
        <ele>1697.83</ele>
        <time>2020-08-22T09:40:56Z</time>
      </trkpt>
      <trkpt lat="42.49964" lon="1.56926">
        <ele>1696.86</ele>
        <time>2020-08-22T09:41:08Z</time>
      </trkpt>
      <trkpt lat="42.49963" lon="1.56932">
        <ele>1695.42</ele>
        <time>2020-08-22T09:41:22Z</time>
      </trkpt>
      <trkpt lat="42.49955" lon="1.56934">
        <ele>1693.5</ele>
        <time>2020-08-22T09:41:38Z</time>
      </trkpt>
      <trkpt lat="42.49945" lon="1.56936">
        <ele>1692.06</ele>
        <time>2020-08-22T09:41:50Z</time>
      </trkpt>
      <trkpt lat="42.49938" lon="1.56955">
        <ele>1691.58</ele>
        <time>2020-08-22T09:42:05Z</time>
      </trkpt>
      <trkpt lat="42.49935" lon="1.56965">
        <ele>1689.65</ele>
        <time>2020-08-22T09:42:18Z</time>
      </trkpt>
      <trkpt lat="42.49929" lon="1.56972">
        <ele>1688.69</ele>
        <time>2020-08-22T09:42:32Z</time>
      </trkpt>
      <trkpt lat="42.49924" lon="1.56983">
        <ele>1687.25</ele>
        <time>2020-08-22T09:42:44Z</time>
      </trkpt>
      <trkpt lat="42.49922" lon="1.5699">
        <ele>1686.77</ele>
        <time>2020-08-22T09:42:51Z</time>
      </trkpt>
      <trkpt lat="42.49919" lon="1.57003">
        <ele>1685.33</ele>
        <time>2020-08-22T09:43:06Z</time>
      </trkpt>
      <trkpt lat="42.49918" lon="1.57013">
        <ele>1681.96</ele>
        <time>2020-08-22T09:43:20Z</time>
      </trkpt>
      <trkpt lat="42.49915" lon="1.57019">
        <ele>1682.44</ele>
        <time>2020-08-22T09:43:33Z</time>
      </trkpt>
      <trkpt lat="42.4991" lon="1.57027">
        <ele>1681</ele>
        <time>2020-08-22T09:43:46Z</time>
      </trkpt>
      <trkpt lat="42.49902" lon="1.57035">
        <ele>1679.08</ele>
        <time>2020-08-22T09:44:01Z</time>
      </trkpt>
      <trkpt lat="42.49899" lon="1.57053">
        <ele>1678.12</ele>
        <time>2020-08-22T09:44:16Z</time>
      </trkpt>
      <trkpt lat="42.49896" lon="1.57064">
        <ele>1676.2</ele>
        <time>2020-08-22T09:44:30Z</time>
      </trkpt>
      <trkpt lat="42.4989" lon="1.57072">
        <ele>1674.27</ele>
        <time>2020-08-22T09:44:44Z</time>
      </trkpt>
      <trkpt lat="42.49886" lon="1.57084">
        <ele>1674.27</ele>
        <time>2020-08-22T09:44:58Z</time>
      </trkpt>
      <trkpt lat="42.49885" lon="1.57092">
        <ele>1670.91</ele>
        <time>2020-08-22T09:45:05Z</time>
      </trkpt>
      <trkpt lat="42.49885" lon="1.57093">
        <ele>1670.91</ele>
        <time>2020-08-22T09:45:06Z</time>
      </trkpt>
      <trkpt lat="42.49881" lon="1.57101">
        <ele>1672.83</ele>
        <time>2020-08-22T09:45:14Z</time>
      </trkpt>
      <trkpt lat="42.49872" lon="1.57118">
        <ele>1672.83</ele>
        <time>2020-08-22T09:45:32Z</time>
      </trkpt>
      <trkpt lat="42.49866" lon="1.57124">
        <ele>1671.39</ele>
        <time>2020-08-22T09:45:42Z</time>
      </trkpt>
      <trkpt lat="42.49861" lon="1.57132">
        <ele>1670.43</ele>
        <time>2020-08-22T09:45:55Z</time>
      </trkpt>
      <trkpt lat="42.49856" lon="1.57142">
        <ele>1668.99</ele>
        <time>2020-08-22T09:46:09Z</time>
      </trkpt>
      <trkpt lat="42.49848" lon="1.57151">
        <ele>1667.54</ele>
        <time>2020-08-22T09:46:23Z</time>
      </trkpt>
      <trkpt lat="42.49844" lon="1.57161">
        <ele>1667.06</ele>
        <time>2020-08-22T09:46:35Z</time>
      </trkpt>
      <trkpt lat="42.49838" lon="1.57174">
        <ele>1665.62</ele>
        <time>2020-08-22T09:46:49Z</time>
      </trkpt>
      <trkpt lat="42.49835" lon="1.57188">
        <ele>1664.18</ele>
        <time>2020-08-22T09:47:04Z</time>
      </trkpt>
      <trkpt lat="42.49832" lon="1.57199">
        <ele>1662.74</ele>
        <time>2020-08-22T09:47:17Z</time>
      </trkpt>
      <trkpt lat="42.4983" lon="1.57204">
        <ele>1662.26</ele>
        <time>2020-08-22T09:47:30Z</time>
      </trkpt>
      <trkpt lat="42.4983" lon="1.57221">
        <ele>1660.33</ele>
        <time>2020-08-22T09:47:45Z</time>
      </trkpt>
      <trkpt lat="42.49829" lon="1.57229">
        <ele>1658.89</ele>
        <time>2020-08-22T09:47:56Z</time>
      </trkpt>
      <trkpt lat="42.49828" lon="1.57241">
        <ele>1656.97</ele>
        <time>2020-08-22T09:48:12Z</time>
      </trkpt>
      <trkpt lat="42.49824" lon="1.57252">
        <ele>1655.53</ele>
        <time>2020-08-22T09:48:26Z</time>
      </trkpt>
      <trkpt lat="42.49826" lon="1.57257">
        <ele>1654.57</ele>
        <time>2020-08-22T09:48:38Z</time>
      </trkpt>
      <trkpt lat="42.49824" lon="1.57265">
        <ele>1653.6</ele>
        <time>2020-08-22T09:48:50Z</time>
      </trkpt>
      <trkpt lat="42.49822" lon="1.57272">
        <ele>1653.12</ele>
        <time>2020-08-22T09:49:06Z</time>
      </trkpt>
      <trkpt lat="42.49823" lon="1.57278">
        <ele>1652.16</ele>
        <time>2020-08-22T09:49:19Z</time>
      </trkpt>
      <trkpt lat="42.49823" lon="1.57288">
        <ele>1650.72</ele>
        <time>2020-08-22T09:49:34Z</time>
      </trkpt>
      <trkpt lat="42.49827" lon="1.57294">
        <ele>1650.24</ele>
        <time>2020-08-22T09:49:49Z</time>
      </trkpt>
      <trkpt lat="42.49826" lon="1.57303">
        <ele>1649.76</ele>
        <time>2020-08-22T09:50:05Z</time>
      </trkpt>
      <trkpt lat="42.49824" lon="1.57308">
        <ele>1648.32</ele>
        <time>2020-08-22T09:50:19Z</time>
      </trkpt>
      <trkpt lat="42.49825" lon="1.57317">
        <ele>1648.32</ele>
        <time>2020-08-22T09:50:28Z</time>
      </trkpt>
      <trkpt lat="42.49827" lon="1.5733">
        <ele>1648.32</ele>
        <time>2020-08-22T09:50:43Z</time>
      </trkpt>
      <trkpt lat="42.49827" lon="1.57334">
        <ele>1648.32</ele>
        <time>2020-08-22T09:50:56Z</time>
      </trkpt>
      <trkpt lat="42.49825" lon="1.5734">
        <ele>1648.32</ele>
        <time>2020-08-22T09:51:04Z</time>
      </trkpt>
      <trkpt lat="42.49823" lon="1.57355">
        <ele>1648.32</ele>
        <time>2020-08-22T09:51:18Z</time>
      </trkpt>
      <trkpt lat="42.4982" lon="1.57372">
        <ele>1648.32</ele>
        <time>2020-08-22T09:51:31Z</time>
      </trkpt>
      <trkpt lat="42.49814" lon="1.57383">
        <ele>1648.32</ele>
        <time>2020-08-22T09:51:45Z</time>
      </trkpt>
      <trkpt lat="42.49803" lon="1.57388">
        <ele>1647.84</ele>
        <time>2020-08-22T09:52:00Z</time>
      </trkpt>
      <trkpt lat="42.49793" lon="1.57398">
        <ele>1647.84</ele>
        <time>2020-08-22T09:52:13Z</time>
      </trkpt>
      <trkpt lat="42.49791" lon="1.57399">
        <ele>1647.84</ele>
        <time>2020-08-22T09:52:14Z</time>
      </trkpt>
      <trkpt lat="42.49782" lon="1.57414">
        <ele>1647.84</ele>
        <time>2020-08-22T09:52:30Z</time>
      </trkpt>
      <trkpt lat="42.49776" lon="1.57423">
        <ele>1649.28</ele>
        <time>2020-08-22T09:52:41Z</time>
      </trkpt>
      <trkpt lat="42.49773" lon="1.57434">
        <ele>1649.76</ele>
        <time>2020-08-22T09:52:56Z</time>
      </trkpt>
      <trkpt lat="42.49773" lon="1.57434">
        <ele>1646.88</ele>
        <time>2020-08-22T09:53:09Z</time>
      </trkpt>
      <trkpt lat="42.49773" lon="1.57434">
        <ele>1646.88</ele>
        <time>2020-08-22T09:53:10Z</time>
      </trkpt>
      <trkpt lat="42.49772" lon="1.57436">
        <ele>1650.24</ele>
        <time>2020-08-22T09:53:16Z</time>
      </trkpt>
      <trkpt lat="42.49774" lon="1.57438">
        <ele>1648.8</ele>
        <time>2020-08-22T09:53:34Z</time>
      </trkpt>
      <trkpt lat="42.49771" lon="1.57438">
        <ele>1648.8</ele>
        <time>2020-08-22T09:53:59Z</time>
      </trkpt>
      <trkpt lat="42.49775" lon="1.57436">
        <ele>1648.8</ele>
        <time>2020-08-22T09:54:26Z</time>
      </trkpt>
      <trkpt lat="42.49775" lon="1.57438">
        <ele>1648.8</ele>
        <time>2020-08-22T09:55:01Z</time>
      </trkpt>
      <trkpt lat="42.49774" lon="1.57436">
        <ele>1648.8</ele>
        <time>2020-08-22T09:55:35Z</time>
      </trkpt>
      <trkpt lat="42.49777" lon="1.5744">
        <ele>1648.8</ele>
        <time>2020-08-22T09:56:04Z</time>
      </trkpt>
      <trkpt lat="42.49775" lon="1.57438">
        <ele>1648.8</ele>
        <time>2020-08-22T09:56:26Z</time>
      </trkpt>
      <trkpt lat="42.49775" lon="1.57437">
        <ele>1650.72</ele>
        <time>2020-08-22T09:56:47Z</time>
      </trkpt>
      <trkpt lat="42.49775" lon="1.57437">
        <ele>1649.28</ele>
        <time>2020-08-22T09:56:49Z</time>
      </trkpt>
      <trkpt lat="42.49767" lon="1.57447">
        <ele>1650.24</ele>
        <time>2020-08-22T09:57:05Z</time>
      </trkpt>
      <trkpt lat="42.49763" lon="1.57456">
        <ele>1651.2</ele>
        <time>2020-08-22T09:57:20Z</time>
      </trkpt>
      <trkpt lat="42.49763" lon="1.57466">
        <ele>1653.12</ele>
        <time>2020-08-22T09:57:33Z</time>
      </trkpt>
      <trkpt lat="42.4976" lon="1.57478">
        <ele>1653.6</ele>
        <time>2020-08-22T09:57:48Z</time>
      </trkpt>
      <trkpt lat="42.49759" lon="1.57491">
        <ele>1654.57</ele>
        <time>2020-08-22T09:58:02Z</time>
      </trkpt>
      <trkpt lat="42.49758" lon="1.57504">
        <ele>1656.97</ele>
        <time>2020-08-22T09:58:18Z</time>
      </trkpt>
      <trkpt lat="42.49757" lon="1.5752">
        <ele>1657.93</ele>
        <time>2020-08-22T09:58:34Z</time>
      </trkpt>
      <trkpt lat="42.49753" lon="1.57532">
        <ele>1659.85</ele>
        <time>2020-08-22T09:58:49Z</time>
      </trkpt>
      <trkpt lat="42.4975" lon="1.57541">
        <ele>1661.78</ele>
        <time>2020-08-22T09:59:02Z</time>
      </trkpt>
      <trkpt lat="42.49749" lon="1.57556">
        <ele>1662.74</ele>
        <time>2020-08-22T09:59:16Z</time>
      </trkpt>
      <trkpt lat="42.49748" lon="1.57563">
        <ele>1663.22</ele>
        <time>2020-08-22T09:59:23Z</time>
      </trkpt>
      <trkpt lat="42.49743" lon="1.5758">
        <ele>1663.7</ele>
        <time>2020-08-22T09:59:38Z</time>
      </trkpt>
      <trkpt lat="42.49739" lon="1.57592">
        <ele>1664.18</ele>
        <time>2020-08-22T09:59:50Z</time>
      </trkpt>
      <trkpt lat="42.49734" lon="1.57607">
        <ele>1664.18</ele>
        <time>2020-08-22T10:00:02Z</time>
      </trkpt>
      <trkpt lat="42.49735" lon="1.57625">
        <ele>1664.66</ele>
        <time>2020-08-22T10:00:15Z</time>
      </trkpt>
      <trkpt lat="42.49736" lon="1.57642">
        <ele>1666.1</ele>
        <time>2020-08-22T10:00:29Z</time>
      </trkpt>
      <trkpt lat="42.49741" lon="1.57661">
        <ele>1667.54</ele>
        <time>2020-08-22T10:00:44Z</time>
      </trkpt>
      <trkpt lat="42.49744" lon="1.57668">
        <ele>1669.47</ele>
        <time>2020-08-22T10:00:56Z</time>
      </trkpt>
      <trkpt lat="42.49746" lon="1.57676">
        <ele>1671.39</ele>
        <time>2020-08-22T10:01:12Z</time>
      </trkpt>
      <trkpt lat="42.49746" lon="1.57683">
        <ele>1673.31</ele>
        <time>2020-08-22T10:01:27Z</time>
      </trkpt>
      <trkpt lat="42.49747" lon="1.57695">
        <ele>1674.75</ele>
        <time>2020-08-22T10:01:41Z</time>
      </trkpt>
      <trkpt lat="42.4975" lon="1.57711">
        <ele>1676.2</ele>
        <time>2020-08-22T10:01:55Z</time>
      </trkpt>
      <trkpt lat="42.49756" lon="1.57727">
        <ele>1679.08</ele>
        <time>2020-08-22T10:02:12Z</time>
      </trkpt>
      <trkpt lat="42.4976" lon="1.57726">
        <ele>1680.52</ele>
        <time>2020-08-22T10:02:29Z</time>
      </trkpt>
      <trkpt lat="42.49762" lon="1.57728">
        <ele>1682.44</ele>
        <time>2020-08-22T10:02:48Z</time>
      </trkpt>
      <trkpt lat="42.49762" lon="1.57742">
        <ele>1684.37</ele>
        <time>2020-08-22T10:03:04Z</time>
      </trkpt>
      <trkpt lat="42.49761" lon="1.57754">
        <ele>1685.81</ele>
        <time>2020-08-22T10:03:19Z</time>
      </trkpt>
      <trkpt lat="42.49761" lon="1.57769">
        <ele>1687.25</ele>
        <time>2020-08-22T10:03:36Z</time>
      </trkpt>
      <trkpt lat="42.49761" lon="1.57786">
        <ele>1689.17</ele>
        <time>2020-08-22T10:03:53Z</time>
      </trkpt>
      <trkpt lat="42.4976" lon="1.57799">
        <ele>1690.62</ele>
        <time>2020-08-22T10:04:08Z</time>
      </trkpt>
      <trkpt lat="42.49764" lon="1.57812">
        <ele>1691.1</ele>
        <time>2020-08-22T10:04:22Z</time>
      </trkpt>
      <trkpt lat="42.49764" lon="1.57826">
        <ele>1692.54</ele>
        <time>2020-08-22T10:04:36Z</time>
      </trkpt>
      <trkpt lat="42.49764" lon="1.57843">
        <ele>1693.98</ele>
        <time>2020-08-22T10:04:52Z</time>
      </trkpt>
      <trkpt lat="42.49764" lon="1.57848">
        <ele>1695.42</ele>
        <time>2020-08-22T10:05:00Z</time>
      </trkpt>
      <trkpt lat="42.49765" lon="1.57859">
        <ele>1697.34</ele>
        <time>2020-08-22T10:05:13Z</time>
      </trkpt>
      <trkpt lat="42.49768" lon="1.57873">
        <ele>1699.75</ele>
        <time>2020-08-22T10:05:30Z</time>
      </trkpt>
      <trkpt lat="42.4977" lon="1.57881">
        <ele>1700.23</ele>
        <time>2020-08-22T10:05:45Z</time>
      </trkpt>
      <trkpt lat="42.49769" lon="1.57895">
        <ele>1702.63</ele>
        <time>2020-08-22T10:06:01Z</time>
      </trkpt>
      <trkpt lat="42.49768" lon="1.57908">
        <ele>1704.55</ele>
        <time>2020-08-22T10:06:15Z</time>
      </trkpt>
      <trkpt lat="42.49767" lon="1.57915">
        <ele>1706.48</ele>
        <time>2020-08-22T10:06:30Z</time>
      </trkpt>
      <trkpt lat="42.49766" lon="1.57926">
        <ele>1708.4</ele>
        <time>2020-08-22T10:06:46Z</time>
      </trkpt>
      <trkpt lat="42.49769" lon="1.57941">
        <ele>1710.32</ele>
        <time>2020-08-22T10:07:01Z</time>
      </trkpt>
      <trkpt lat="42.49769" lon="1.5795">
        <ele>1711.76</ele>
        <time>2020-08-22T10:07:15Z</time>
      </trkpt>
      <trkpt lat="42.49771" lon="1.57962">
        <ele>1712.73</ele>
        <time>2020-08-22T10:07:31Z</time>
      </trkpt>
      <trkpt lat="42.4977" lon="1.57966">
        <ele>1714.65</ele>
        <time>2020-08-22T10:07:36Z</time>
      </trkpt>
      <trkpt lat="42.49767" lon="1.57977">
        <ele>1715.13</ele>
        <time>2020-08-22T10:07:51Z</time>
      </trkpt>
      <trkpt lat="42.49765" lon="1.57987">
        <ele>1716.57</ele>
        <time>2020-08-22T10:08:05Z</time>
      </trkpt>
      <trkpt lat="42.49763" lon="1.57997">
        <ele>1718.97</ele>
        <time>2020-08-22T10:08:19Z</time>
      </trkpt>
      <trkpt lat="42.49763" lon="1.58012">
        <ele>1721.38</ele>
        <time>2020-08-22T10:08:37Z</time>
      </trkpt>
      <trkpt lat="42.49761" lon="1.5802">
        <ele>1722.82</ele>
        <time>2020-08-22T10:08:52Z</time>
      </trkpt>
      <trkpt lat="42.49755" lon="1.58031">
        <ele>1723.3</ele>
        <time>2020-08-22T10:09:05Z</time>
      </trkpt>
      <trkpt lat="42.4975" lon="1.58035">
        <ele>1724.74</ele>
        <time>2020-08-22T10:09:18Z</time>
      </trkpt>
      <trkpt lat="42.49747" lon="1.58044">
        <ele>1726.18</ele>
        <time>2020-08-22T10:09:32Z</time>
      </trkpt>
      <trkpt lat="42.49742" lon="1.58053">
        <ele>1728.11</ele>
        <time>2020-08-22T10:09:48Z</time>
      </trkpt>
      <trkpt lat="42.49728" lon="1.58058">
        <ele>1729.55</ele>
        <time>2020-08-22T10:10:05Z</time>
      </trkpt>
      <trkpt lat="42.49717" lon="1.58067">
        <ele>1732.43</ele>
        <time>2020-08-22T10:10:25Z</time>
      </trkpt>
      <trkpt lat="42.49711" lon="1.58073">
        <ele>1734.36</ele>
        <time>2020-08-22T10:10:40Z</time>
      </trkpt>
      <trkpt lat="42.49702" lon="1.58077">
        <ele>1737.72</ele>
        <time>2020-08-22T10:10:53Z</time>
      </trkpt>
      <trkpt lat="42.49699" lon="1.58088">
        <ele>1740.6</ele>
        <time>2020-08-22T10:11:10Z</time>
      </trkpt>
      <trkpt lat="42.49698" lon="1.581">
        <ele>1741.08</ele>
        <time>2020-08-22T10:11:26Z</time>
      </trkpt>
      <trkpt lat="42.49699" lon="1.58117">
        <ele>1743.97</ele>
        <time>2020-08-22T10:11:40Z</time>
      </trkpt>
      <trkpt lat="42.49698" lon="1.58126">
        <ele>1746.37</ele>
        <time>2020-08-22T10:11:52Z</time>
      </trkpt>
      <trkpt lat="42.497" lon="1.58137">
        <ele>1747.81</ele>
        <time>2020-08-22T10:12:06Z</time>
      </trkpt>
      <trkpt lat="42.49702" lon="1.58144">
        <ele>1749.26</ele>
        <time>2020-08-22T10:12:19Z</time>
      </trkpt>
      <trkpt lat="42.49701" lon="1.5815">
        <ele>1749.74</ele>
        <time>2020-08-22T10:12:33Z</time>
      </trkpt>
      <trkpt lat="42.49697" lon="1.58156">
        <ele>1751.66</ele>
        <time>2020-08-22T10:12:48Z</time>
      </trkpt>
      <trkpt lat="42.49691" lon="1.58159">
        <ele>1753.1</ele>
        <time>2020-08-22T10:13:03Z</time>
      </trkpt>
      <trkpt lat="42.49691" lon="1.58161">
        <ele>1755.5</ele>
        <time>2020-08-22T10:13:21Z</time>
      </trkpt>
      <trkpt lat="42.49687" lon="1.58172">
        <ele>1757.43</ele>
        <time>2020-08-22T10:13:35Z</time>
      </trkpt>
      <trkpt lat="42.49681" lon="1.58185">
        <ele>1759.35</ele>
        <time>2020-08-22T10:13:53Z</time>
      </trkpt>
      <trkpt lat="42.49676" lon="1.58193">
        <ele>1759.83</ele>
        <time>2020-08-22T10:14:11Z</time>
      </trkpt>
      <trkpt lat="42.49671" lon="1.58196">
        <ele>1761.27</ele>
        <time>2020-08-22T10:14:21Z</time>
      </trkpt>
      <trkpt lat="42.49669" lon="1.5821">
        <ele>1762.71</ele>
        <time>2020-08-22T10:14:35Z</time>
      </trkpt>
      <trkpt lat="42.49668" lon="1.58223">
        <ele>1765.12</ele>
        <time>2020-08-22T10:14:50Z</time>
      </trkpt>
      <trkpt lat="42.49666" lon="1.58233">
        <ele>1766.08</ele>
        <time>2020-08-22T10:15:02Z</time>
      </trkpt>
      <trkpt lat="42.49657" lon="1.58244">
        <ele>1767.04</ele>
        <time>2020-08-22T10:15:18Z</time>
      </trkpt>
      <trkpt lat="42.4965" lon="1.58252">
        <ele>1768</ele>
        <time>2020-08-22T10:15:33Z</time>
      </trkpt>
      <trkpt lat="42.4964" lon="1.58258">
        <ele>1768.48</ele>
        <time>2020-08-22T10:15:48Z</time>
      </trkpt>
      <trkpt lat="42.49631" lon="1.58262">
        <ele>1768.96</ele>
        <time>2020-08-22T10:16:02Z</time>
      </trkpt>
      <trkpt lat="42.49622" lon="1.58268">
        <ele>1770.41</ele>
        <time>2020-08-22T10:16:18Z</time>
      </trkpt>
      <trkpt lat="42.49614" lon="1.58277">
        <ele>1770.41</ele>
        <time>2020-08-22T10:16:30Z</time>
      </trkpt>
      <trkpt lat="42.49613" lon="1.58292">
        <ele>1770.41</ele>
        <time>2020-08-22T10:16:42Z</time>
      </trkpt>
      <trkpt lat="42.4961" lon="1.58302">
        <ele>1771.85</ele>
        <time>2020-08-22T10:16:54Z</time>
      </trkpt>
      <trkpt lat="42.49612" lon="1.58315">
        <ele>1772.81</ele>
        <time>2020-08-22T10:17:07Z</time>
      </trkpt>
      <trkpt lat="42.49616" lon="1.58328">
        <ele>1773.77</ele>
        <time>2020-08-22T10:17:23Z</time>
      </trkpt>
      <trkpt lat="42.49618" lon="1.58342">
        <ele>1774.73</ele>
        <time>2020-08-22T10:17:36Z</time>
      </trkpt>
      <trkpt lat="42.49617" lon="1.58353">
        <ele>1774.73</ele>
        <time>2020-08-22T10:17:49Z</time>
      </trkpt>
      <trkpt lat="42.49617" lon="1.58358">
        <ele>1774.73</ele>
        <time>2020-08-22T10:18:07Z</time>
      </trkpt>
      <trkpt lat="42.49612" lon="1.58361">
        <ele>1774.73</ele>
        <time>2020-08-22T10:18:17Z</time>
      </trkpt>
      <trkpt lat="42.49606" lon="1.58372">
        <ele>1775.21</ele>
        <time>2020-08-22T10:18:31Z</time>
      </trkpt>
      <trkpt lat="42.49602" lon="1.58383">
        <ele>1775.69</ele>
        <time>2020-08-22T10:18:45Z</time>
      </trkpt>
      <trkpt lat="42.49596" lon="1.58393">
        <ele>1777.61</ele>
        <time>2020-08-22T10:19:00Z</time>
      </trkpt>
      <trkpt lat="42.49589" lon="1.58402">
        <ele>1779.06</ele>
        <time>2020-08-22T10:19:13Z</time>
      </trkpt>
      <trkpt lat="42.4958" lon="1.58409">
        <ele>1780.5</ele>
        <time>2020-08-22T10:19:27Z</time>
      </trkpt>
      <trkpt lat="42.49579" lon="1.58411">
        <ele>1780.98</ele>
        <time>2020-08-22T10:19:30Z</time>
      </trkpt>
      <trkpt lat="42.49574" lon="1.58419">
        <ele>1782.9</ele>
        <time>2020-08-22T10:19:45Z</time>
      </trkpt>
      <trkpt lat="42.49572" lon="1.58422">
        <ele>1784.34</ele>
        <time>2020-08-22T10:19:59Z</time>
      </trkpt>
      <trkpt lat="42.49566" lon="1.58428">
        <ele>1785.79</ele>
        <time>2020-08-22T10:20:10Z</time>
      </trkpt>
      <trkpt lat="42.49557" lon="1.5844">
        <ele>1787.71</ele>
        <time>2020-08-22T10:20:26Z</time>
      </trkpt>
      <trkpt lat="42.49549" lon="1.58452">
        <ele>1789.63</ele>
        <time>2020-08-22T10:20:40Z</time>
      </trkpt>
      <trkpt lat="42.49541" lon="1.58461">
        <ele>1792.52</ele>
        <time>2020-08-22T10:20:56Z</time>
      </trkpt>
      <trkpt lat="42.49536" lon="1.58468">
        <ele>1793.48</ele>
        <time>2020-08-22T10:21:10Z</time>
      </trkpt>
      <trkpt lat="42.49528" lon="1.58477">
        <ele>1794.44</ele>
        <time>2020-08-22T10:21:24Z</time>
      </trkpt>
      <trkpt lat="42.49528" lon="1.58478">
        <ele>1794.44</ele>
        <time>2020-08-22T10:21:25Z</time>
      </trkpt>
      <trkpt lat="42.49519" lon="1.5849">
        <ele>1796.84</ele>
        <time>2020-08-22T10:21:39Z</time>
      </trkpt>
      <trkpt lat="42.49518" lon="1.585">
        <ele>1797.8</ele>
        <time>2020-08-22T10:21:51Z</time>
      </trkpt>
      <trkpt lat="42.49517" lon="1.5851">
        <ele>1797.8</ele>
        <time>2020-08-22T10:22:05Z</time>
      </trkpt>
      <trkpt lat="42.49523" lon="1.58517">
        <ele>1800.21</ele>
        <time>2020-08-22T10:22:18Z</time>
      </trkpt>
      <trkpt lat="42.49522" lon="1.58532">
        <ele>1800.69</ele>
        <time>2020-08-22T10:22:35Z</time>
      </trkpt>
      <trkpt lat="42.49523" lon="1.58538">
        <ele>1801.65</ele>
        <time>2020-08-22T10:22:48Z</time>
      </trkpt>
      <trkpt lat="42.49519" lon="1.58554">
        <ele>1802.61</ele>
        <time>2020-08-22T10:23:08Z</time>
      </trkpt>
      <trkpt lat="42.49521" lon="1.58564">
        <ele>1805.01</ele>
        <time>2020-08-22T10:23:23Z</time>
      </trkpt>
      <trkpt lat="42.49521" lon="1.5857">
        <ele>1805.49</ele>
        <time>2020-08-22T10:23:29Z</time>
      </trkpt>
      <trkpt lat="42.49519" lon="1.58581">
        <ele>1806.45</ele>
        <time>2020-08-22T10:23:42Z</time>
      </trkpt>
      <trkpt lat="42.49518" lon="1.58596">
        <ele>1807.42</ele>
        <time>2020-08-22T10:23:54Z</time>
      </trkpt>
      <trkpt lat="42.49515" lon="1.58607">
        <ele>1809.34</ele>
        <time>2020-08-22T10:24:07Z</time>
      </trkpt>
      <trkpt lat="42.49514" lon="1.58622">
        <ele>1809.82</ele>
        <time>2020-08-22T10:24:23Z</time>
      </trkpt>
      <trkpt lat="42.49514" lon="1.58623">
        <ele>1810.78</ele>
        <time>2020-08-22T10:24:25Z</time>
      </trkpt>
      <trkpt lat="42.49514" lon="1.58624">
        <ele>1809.34</ele>
        <time>2020-08-22T10:24:27Z</time>
      </trkpt>
      <trkpt lat="42.49518" lon="1.58636">
        <ele>1808.86</ele>
        <time>2020-08-22T10:24:40Z</time>
      </trkpt>
      <trkpt lat="42.49518" lon="1.58652">
        <ele>1808.38</ele>
        <time>2020-08-22T10:24:53Z</time>
      </trkpt>
      <trkpt lat="42.49511" lon="1.58658">
        <ele>1810.3</ele>
        <time>2020-08-22T10:25:01Z</time>
      </trkpt>
      <trkpt lat="42.49506" lon="1.5866">
        <ele>1810.78</ele>
        <time>2020-08-22T10:25:06Z</time>
      </trkpt>
      <trkpt lat="42.49504" lon="1.58661">
        <ele>1811.26</ele>
        <time>2020-08-22T10:25:08Z</time>
      </trkpt>
      <trkpt lat="42.49502" lon="1.58674">
        <ele>1812.22</ele>
        <time>2020-08-22T10:25:22Z</time>
      </trkpt>
      <trkpt lat="42.495" lon="1.58676">
        <ele>1812.7</ele>
        <time>2020-08-22T10:25:24Z</time>
      </trkpt>
      <trkpt lat="42.49495" lon="1.58683">
        <ele>1812.7</ele>
        <time>2020-08-22T10:25:38Z</time>
      </trkpt>
      <trkpt lat="42.49496" lon="1.58692">
        <ele>1812.7</ele>
        <time>2020-08-22T10:25:58Z</time>
      </trkpt>
      <trkpt lat="42.49497" lon="1.587">
        <ele>1813.18</ele>
        <time>2020-08-22T10:26:05Z</time>
      </trkpt>
      <trkpt lat="42.49496" lon="1.58702">
        <ele>1813.18</ele>
        <time>2020-08-22T10:26:07Z</time>
      </trkpt>
      <trkpt lat="42.49489" lon="1.5871">
        <ele>1814.63</ele>
        <time>2020-08-22T10:26:20Z</time>
      </trkpt>
      <trkpt lat="42.49484" lon="1.5872">
        <ele>1816.55</ele>
        <time>2020-08-22T10:26:33Z</time>
      </trkpt>
      <trkpt lat="42.49478" lon="1.58727">
        <ele>1818.47</ele>
        <time>2020-08-22T10:26:47Z</time>
      </trkpt>
      <trkpt lat="42.49472" lon="1.58739">
        <ele>1818.95</ele>
        <time>2020-08-22T10:27:02Z</time>
      </trkpt>
      <trkpt lat="42.49467" lon="1.5875">
        <ele>1820.87</ele>
        <time>2020-08-22T10:27:16Z</time>
      </trkpt>
      <trkpt lat="42.49464" lon="1.58758">
        <ele>1822.32</ele>
        <time>2020-08-22T10:27:30Z</time>
      </trkpt>
      <trkpt lat="42.49464" lon="1.58758">
        <ele>1822.32</ele>
        <time>2020-08-22T10:27:39Z</time>
      </trkpt>
      <trkpt lat="42.49458" lon="1.58776">
        <ele>1822.32</ele>
        <time>2020-08-22T10:27:55Z</time>
      </trkpt>
      <trkpt lat="42.49458" lon="1.58787">
        <ele>1822.8</ele>
        <time>2020-08-22T10:28:03Z</time>
      </trkpt>
      <trkpt lat="42.49453" lon="1.58796">
        <ele>1823.76</ele>
        <time>2020-08-22T10:28:15Z</time>
      </trkpt>
      <trkpt lat="42.49447" lon="1.58804">
        <ele>1824.24</ele>
        <time>2020-08-22T10:28:30Z</time>
      </trkpt>
      <trkpt lat="42.49443" lon="1.58807">
        <ele>1824.72</ele>
        <time>2020-08-22T10:28:36Z</time>
      </trkpt>
      <trkpt lat="42.49438" lon="1.58814">
        <ele>1824.72</ele>
        <time>2020-08-22T10:28:49Z</time>
      </trkpt>
      <trkpt lat="42.49438" lon="1.58815">
        <ele>1824.72</ele>
        <time>2020-08-22T10:28:50Z</time>
      </trkpt>
      <trkpt lat="42.49435" lon="1.58816">
        <ele>1825.2</ele>
        <time>2020-08-22T10:28:52Z</time>
      </trkpt>
      <trkpt lat="42.4943" lon="1.58815">
        <ele>1826.16</ele>
        <time>2020-08-22T10:29:05Z</time>
      </trkpt>
      <trkpt lat="42.4943" lon="1.58814">
        <ele>1825.2</ele>
        <time>2020-08-22T10:29:23Z</time>
      </trkpt>
      <trkpt lat="42.49434" lon="1.58818">
        <ele>1825.2</ele>
        <time>2020-08-22T10:29:59Z</time>
      </trkpt>
      <trkpt lat="42.49435" lon="1.58819">
        <ele>1826.64</ele>
        <time>2020-08-22T10:30:06Z</time>
      </trkpt>
      <trkpt lat="42.49434" lon="1.58818">
        <ele>1825.2</ele>
        <time>2020-08-22T10:30:09Z</time>
      </trkpt>
      <trkpt lat="42.49426" lon="1.58822">
        <ele>1826.16</ele>
        <time>2020-08-22T10:30:19Z</time>
      </trkpt>
      <trkpt lat="42.49417" lon="1.58824">
        <ele>1827.12</ele>
        <time>2020-08-22T10:30:26Z</time>
      </trkpt>
      <trkpt lat="42.49408" lon="1.58831">
        <ele>1828.56</ele>
        <time>2020-08-22T10:30:35Z</time>
      </trkpt>
      <trkpt lat="42.49404" lon="1.58833">
        <ele>1829.05</ele>
        <time>2020-08-22T10:30:40Z</time>
      </trkpt>
      <trkpt lat="42.494" lon="1.58837">
        <ele>1830.01</ele>
        <time>2020-08-22T10:30:46Z</time>
      </trkpt>
      <trkpt lat="42.49393" lon="1.58853">
        <ele>1830.97</ele>
        <time>2020-08-22T10:30:58Z</time>
      </trkpt>
      <trkpt lat="42.49392" lon="1.58867">
        <ele>1832.41</ele>
        <time>2020-08-22T10:31:13Z</time>
      </trkpt>
      <trkpt lat="42.49392" lon="1.58885">
        <ele>1833.85</ele>
        <time>2020-08-22T10:31:27Z</time>
      </trkpt>
      <trkpt lat="42.4939" lon="1.58903">
        <ele>1833.85</ele>
        <time>2020-08-22T10:31:43Z</time>
      </trkpt>
      <trkpt lat="42.49402" lon="1.58919">
        <ele>1834.81</ele>
        <time>2020-08-22T10:31:55Z</time>
      </trkpt>
      <trkpt lat="42.49405" lon="1.58928">
        <ele>1836.26</ele>
        <time>2020-08-22T10:32:08Z</time>
      </trkpt>
      <trkpt lat="42.49392" lon="1.58937">
        <ele>1838.18</ele>
        <time>2020-08-22T10:32:20Z</time>
      </trkpt>
      <trkpt lat="42.49383" lon="1.58943">
        <ele>1840.1</ele>
        <time>2020-08-22T10:32:37Z</time>
      </trkpt>
      <trkpt lat="42.49379" lon="1.58952">
        <ele>1841.54</ele>
        <time>2020-08-22T10:32:50Z</time>
      </trkpt>
      <trkpt lat="42.49372" lon="1.58959">
        <ele>1843.47</ele>
        <time>2020-08-22T10:33:04Z</time>
      </trkpt>
      <trkpt lat="42.4936" lon="1.5897">
        <ele>1845.87</ele>
        <time>2020-08-22T10:33:19Z</time>
      </trkpt>
      <trkpt lat="42.4935" lon="1.58978">
        <ele>1847.31</ele>
        <time>2020-08-22T10:33:35Z</time>
      </trkpt>
      <trkpt lat="42.49345" lon="1.58994">
        <ele>1847.79</ele>
        <time>2020-08-22T10:33:48Z</time>
      </trkpt>
      <trkpt lat="42.4934" lon="1.5901">
        <ele>1849.71</ele>
        <time>2020-08-22T10:34:04Z</time>
      </trkpt>
      <trkpt lat="42.49339" lon="1.59022">
        <ele>1851.16</ele>
        <time>2020-08-22T10:34:18Z</time>
      </trkpt>
      <trkpt lat="42.4933" lon="1.59033">
        <ele>1853.08</ele>
        <time>2020-08-22T10:34:32Z</time>
      </trkpt>
      <trkpt lat="42.49328" lon="1.59047">
        <ele>1854.52</ele>
        <time>2020-08-22T10:34:47Z</time>
      </trkpt>
      <trkpt lat="42.49323" lon="1.59055">
        <ele>1855</ele>
        <time>2020-08-22T10:35:00Z</time>
      </trkpt>
      <trkpt lat="42.49322" lon="1.59067">
        <ele>1856.44</ele>
        <time>2020-08-22T10:35:13Z</time>
      </trkpt>
      <trkpt lat="42.49316" lon="1.59078">
        <ele>1858.37</ele>
        <time>2020-08-22T10:35:27Z</time>
      </trkpt>
      <trkpt lat="42.49313" lon="1.59085">
        <ele>1860.29</ele>
        <time>2020-08-22T10:35:41Z</time>
      </trkpt>
      <trkpt lat="42.49307" lon="1.59095">
        <ele>1862.69</ele>
        <time>2020-08-22T10:35:55Z</time>
      </trkpt>
      <trkpt lat="42.49304" lon="1.59102">
        <ele>1863.17</ele>
        <time>2020-08-22T10:36:11Z</time>
      </trkpt>
      <trkpt lat="42.49301" lon="1.5911">
        <ele>1865.09</ele>
        <time>2020-08-22T10:36:22Z</time>
      </trkpt>
      <trkpt lat="42.49285" lon="1.59119">
        <ele>1865.58</ele>
        <time>2020-08-22T10:36:37Z</time>
      </trkpt>
      <trkpt lat="42.49278" lon="1.59129">
        <ele>1866.06</ele>
        <time>2020-08-22T10:36:50Z</time>
      </trkpt>
      <trkpt lat="42.49269" lon="1.59143">
        <ele>1865.09</ele>
        <time>2020-08-22T10:37:03Z</time>
      </trkpt>
      <trkpt lat="42.49265" lon="1.59147">
        <ele>1865.09</ele>
        <time>2020-08-22T10:37:09Z</time>
      </trkpt>
      <trkpt lat="42.49258" lon="1.59165">
        <ele>1864.61</ele>
        <time>2020-08-22T10:37:24Z</time>
      </trkpt>
      <trkpt lat="42.49257" lon="1.5918">
        <ele>1864.61</ele>
        <time>2020-08-22T10:37:35Z</time>
      </trkpt>
      <trkpt lat="42.49249" lon="1.59193">
        <ele>1865.58</ele>
        <time>2020-08-22T10:37:49Z</time>
      </trkpt>
      <trkpt lat="42.49247" lon="1.59195">
        <ele>1865.58</ele>
        <time>2020-08-22T10:37:51Z</time>
      </trkpt>
      <trkpt lat="42.49238" lon="1.59213">
        <ele>1866.54</ele>
        <time>2020-08-22T10:38:06Z</time>
      </trkpt>
      <trkpt lat="42.49239" lon="1.5922">
        <ele>1867.02</ele>
        <time>2020-08-22T10:38:11Z</time>
      </trkpt>
      <trkpt lat="42.49238" lon="1.59227">
        <ele>1867.02</ele>
        <time>2020-08-22T10:38:17Z</time>
      </trkpt>
      <trkpt lat="42.49235" lon="1.59242">
        <ele>1867.98</ele>
        <time>2020-08-22T10:38:30Z</time>
      </trkpt>
      <trkpt lat="42.49238" lon="1.59256">
        <ele>1868.46</ele>
        <time>2020-08-22T10:38:46Z</time>
      </trkpt>
      <trkpt lat="42.49236" lon="1.59263">
        <ele>1869.42</ele>
        <time>2020-08-22T10:38:59Z</time>
      </trkpt>
      <trkpt lat="42.49235" lon="1.59267">
        <ele>1869.42</ele>
        <time>2020-08-22T10:39:04Z</time>
      </trkpt>
      <trkpt lat="42.49237" lon="1.59282">
        <ele>1869.42</ele>
        <time>2020-08-22T10:39:18Z</time>
      </trkpt>
      <trkpt lat="42.4924" lon="1.59287">
        <ele>1869.42</ele>
        <time>2020-08-22T10:39:31Z</time>
      </trkpt>
      <trkpt lat="42.49233" lon="1.59294">
        <ele>1869.42</ele>
        <time>2020-08-22T10:39:44Z</time>
      </trkpt>
      <trkpt lat="42.49231" lon="1.59293">
        <ele>1869.42</ele>
        <time>2020-08-22T10:39:57Z</time>
      </trkpt>
      <trkpt lat="42.49227" lon="1.59295">
        <ele>1868.94</ele>
        <time>2020-08-22T10:40:13Z</time>
      </trkpt>
      <trkpt lat="42.49223" lon="1.593">
        <ele>1868.94</ele>
        <time>2020-08-22T10:40:32Z</time>
      </trkpt>
      <trkpt lat="42.49227" lon="1.59298">
        <ele>1868.94</ele>
        <time>2020-08-22T10:40:49Z</time>
      </trkpt>
      <trkpt lat="42.49227" lon="1.59301">
        <ele>1868.94</ele>
        <time>2020-08-22T10:41:03Z</time>
      </trkpt>
      <trkpt lat="42.49227" lon="1.59302">
        <ele>1868.94</ele>
        <time>2020-08-22T10:41:20Z</time>
      </trkpt>
      <trkpt lat="42.49225" lon="1.59303">
        <ele>1868.94</ele>
        <time>2020-08-22T10:41:54Z</time>
      </trkpt>
      <trkpt lat="42.49227" lon="1.59303">
        <ele>1870.38</ele>
        <time>2020-08-22T10:42:09Z</time>
      </trkpt>
      <trkpt lat="42.49227" lon="1.59303">
        <ele>1868.94</ele>
        <time>2020-08-22T10:42:12Z</time>
      </trkpt>
      <trkpt lat="42.49229" lon="1.593">
        <ele>1868.94</ele>
        <time>2020-08-22T10:42:40Z</time>
      </trkpt>
      <trkpt lat="42.49229" lon="1.59298">
        <ele>1868.94</ele>
        <time>2020-08-22T10:42:53Z</time>
      </trkpt>
      <trkpt lat="42.4923" lon="1.59298">
        <ele>1868.94</ele>
        <time>2020-08-22T10:42:59Z</time>
      </trkpt>
      <trkpt lat="42.49237" lon="1.59299">
        <ele>1868.94</ele>
        <time>2020-08-22T10:43:11Z</time>
      </trkpt>
      <trkpt lat="42.49243" lon="1.59295">
        <ele>1868.46</ele>
        <time>2020-08-22T10:43:22Z</time>
      </trkpt>
      <trkpt lat="42.49247" lon="1.59294">
        <ele>1868.46</ele>
        <time>2020-08-22T10:43:34Z</time>
      </trkpt>
      <trkpt lat="42.4925" lon="1.59295">
        <ele>1869.9</ele>
        <time>2020-08-22T10:43:41Z</time>
      </trkpt>
      <trkpt lat="42.49252" lon="1.59293">
        <ele>1870.38</ele>
        <time>2020-08-22T10:43:55Z</time>
      </trkpt>
      <trkpt lat="42.49253" lon="1.59297">
        <ele>1870.86</ele>
        <time>2020-08-22T10:44:14Z</time>
      </trkpt>
      <trkpt lat="42.4925" lon="1.59306">
        <ele>1870.86</ele>
        <time>2020-08-22T10:44:28Z</time>
      </trkpt>
      <trkpt lat="42.49254" lon="1.59304">
        <ele>1869.9</ele>
        <time>2020-08-22T10:44:43Z</time>
      </trkpt>
      <trkpt lat="42.49259" lon="1.59304">
        <ele>1863.17</ele>
        <time>2020-08-22T10:45:03Z</time>
      </trkpt>
      <trkpt lat="42.49259" lon="1.59304">
        <ele>1868.46</ele>
        <time>2020-08-22T10:45:04Z</time>
      </trkpt>
      <trkpt lat="42.49259" lon="1.59303">
        <ele>1870.86</ele>
        <time>2020-08-22T10:45:06Z</time>
      </trkpt>
      <trkpt lat="42.49259" lon="1.59303">
        <ele>1868.94</ele>
        <time>2020-08-22T10:45:08Z</time>
      </trkpt>
      <trkpt lat="42.49256" lon="1.59304">
        <ele>1868.46</ele>
        <time>2020-08-22T10:45:41Z</time>
      </trkpt>
      <trkpt lat="42.49254" lon="1.59307">
        <ele>1868.94</ele>
        <time>2020-08-22T10:46:30Z</time>
      </trkpt>
      <trkpt lat="42.49257" lon="1.59299">
        <ele>1868.94</ele>
        <time>2020-08-22T10:47:04Z</time>
      </trkpt>
      <trkpt lat="42.49265" lon="1.59302">
        <ele>1868.94</ele>
        <time>2020-08-22T10:47:44Z</time>
      </trkpt>
      <trkpt lat="42.49263" lon="1.593">
        <ele>1869.42</ele>
        <time>2020-08-22T10:48:33Z</time>
      </trkpt>
      <trkpt lat="42.49255" lon="1.59303">
        <ele>1869.42</ele>
        <time>2020-08-22T10:49:12Z</time>
      </trkpt>
      <trkpt lat="42.49252" lon="1.59303">
        <ele>1868.94</ele>
        <time>2020-08-22T10:49:58Z</time>
      </trkpt>
      <trkpt lat="42.49256" lon="1.593">
        <ele>1868.94</ele>
        <time>2020-08-22T10:50:38Z</time>
      </trkpt>
      <trkpt lat="42.49254" lon="1.59303">
        <ele>1870.38</ele>
        <time>2020-08-22T10:51:14Z</time>
      </trkpt>
      <trkpt lat="42.49255" lon="1.59302">
        <ele>1870.86</ele>
        <time>2020-08-22T10:51:54Z</time>
      </trkpt>
      <trkpt lat="42.49252" lon="1.59298">
        <ele>1870.38</ele>
        <time>2020-08-22T10:52:31Z</time>
      </trkpt>
      <trkpt lat="42.49253" lon="1.59299">
        <ele>1870.38</ele>
        <time>2020-08-22T10:53:01Z</time>
      </trkpt>
      <trkpt lat="42.49256" lon="1.59301">
        <ele>1870.38</ele>
        <time>2020-08-22T10:53:42Z</time>
      </trkpt>
      <trkpt lat="42.49274" lon="1.59302">
        <ele>1870.38</ele>
        <time>2020-08-22T10:54:19Z</time>
      </trkpt>
      <trkpt lat="42.49264" lon="1.59307">
        <ele>1869.9</ele>
        <time>2020-08-22T10:54:59Z</time>
      </trkpt>
      <trkpt lat="42.49262" lon="1.59305">
        <ele>1869.9</ele>
        <time>2020-08-22T10:55:38Z</time>
      </trkpt>
      <trkpt lat="42.49254" lon="1.59301">
        <ele>1869.9</ele>
        <time>2020-08-22T10:56:14Z</time>
      </trkpt>
      <trkpt lat="42.49254" lon="1.59302">
        <ele>1868.94</ele>
        <time>2020-08-22T10:56:51Z</time>
      </trkpt>
      <trkpt lat="42.49254" lon="1.59303">
        <ele>1868.94</ele>
        <time>2020-08-22T10:57:31Z</time>
      </trkpt>
      <trkpt lat="42.49251" lon="1.59304">
        <ele>1868.94</ele>
        <time>2020-08-22T10:58:01Z</time>
      </trkpt>
      <trkpt lat="42.49255" lon="1.59303">
        <ele>1868.46</ele>
        <time>2020-08-22T10:58:30Z</time>
      </trkpt>
      <trkpt lat="42.49245" lon="1.593">
        <ele>1868.46</ele>
        <time>2020-08-22T10:59:03Z</time>
      </trkpt>
      <trkpt lat="42.49258" lon="1.59309">
        <ele>1868.46</ele>
        <time>2020-08-22T10:59:36Z</time>
      </trkpt>
      <trkpt lat="42.49257" lon="1.59309">
        <ele>1868.46</ele>
        <time>2020-08-22T11:00:21Z</time>
      </trkpt>
      <trkpt lat="42.49251" lon="1.59303">
        <ele>1868.46</ele>
        <time>2020-08-22T11:00:59Z</time>
      </trkpt>
      <trkpt lat="42.49257" lon="1.59305">
        <ele>1868.46</ele>
        <time>2020-08-22T11:01:29Z</time>
      </trkpt>
      <trkpt lat="42.49252" lon="1.59305">
        <ele>1868.94</ele>
        <time>2020-08-22T11:02:00Z</time>
      </trkpt>
      <trkpt lat="42.49254" lon="1.59303">
        <ele>1868.94</ele>
        <time>2020-08-22T11:02:34Z</time>
      </trkpt>
      <trkpt lat="42.49256" lon="1.59305">
        <ele>1868.94</ele>
        <time>2020-08-22T11:03:10Z</time>
      </trkpt>
      <trkpt lat="42.49256" lon="1.59305">
        <ele>1868.94</ele>
        <time>2020-08-22T11:03:54Z</time>
      </trkpt>
      <trkpt lat="42.49255" lon="1.59306">
        <ele>1868.94</ele>
        <time>2020-08-22T11:04:28Z</time>
      </trkpt>
      <trkpt lat="42.49257" lon="1.59304">
        <ele>1870.38</ele>
        <time>2020-08-22T11:05:05Z</time>
      </trkpt>
      <trkpt lat="42.49257" lon="1.59302">
        <ele>1870.38</ele>
        <time>2020-08-22T11:05:32Z</time>
      </trkpt>
      <trkpt lat="42.49257" lon="1.59302">
        <ele>1870.86</ele>
        <time>2020-08-22T11:06:00Z</time>
      </trkpt>
      <trkpt lat="42.49259" lon="1.59307">
        <ele>1870.86</ele>
        <time>2020-08-22T11:06:30Z</time>
      </trkpt>
      <trkpt lat="42.49252" lon="1.59301">
        <ele>1870.86</ele>
        <time>2020-08-22T11:07:03Z</time>
      </trkpt>
      <trkpt lat="42.49257" lon="1.59302">
        <ele>1870.86</ele>
        <time>2020-08-22T11:07:39Z</time>
      </trkpt>
      <trkpt lat="42.49255" lon="1.59303">
        <ele>1870.86</ele>
        <time>2020-08-22T11:08:12Z</time>
      </trkpt>
      <trkpt lat="42.4925" lon="1.59303">
        <ele>1870.86</ele>
        <time>2020-08-22T11:08:48Z</time>
      </trkpt>
      <trkpt lat="42.49251" lon="1.59301">
        <ele>1869.9</ele>
        <time>2020-08-22T11:09:17Z</time>
      </trkpt>
      <trkpt lat="42.49255" lon="1.59304">
        <ele>1869.9</ele>
        <time>2020-08-22T11:09:50Z</time>
      </trkpt>
      <trkpt lat="42.49253" lon="1.59301">
        <ele>1869.9</ele>
        <time>2020-08-22T11:10:21Z</time>
      </trkpt>
      <trkpt lat="42.49262" lon="1.59303">
        <ele>1869.9</ele>
        <time>2020-08-22T11:10:58Z</time>
      </trkpt>
      <trkpt lat="42.49257" lon="1.59302">
        <ele>1869.9</ele>
        <time>2020-08-22T11:11:33Z</time>
      </trkpt>
      <trkpt lat="42.49258" lon="1.59302">
        <ele>1869.9</ele>
        <time>2020-08-22T11:12:01Z</time>
      </trkpt>
      <trkpt lat="42.49256" lon="1.59301">
        <ele>1869.42</ele>
        <time>2020-08-22T11:12:33Z</time>
      </trkpt>
      <trkpt lat="42.49258" lon="1.59303">
        <ele>1869.9</ele>
        <time>2020-08-22T11:13:08Z</time>
      </trkpt>
      <trkpt lat="42.4925" lon="1.59301">
        <ele>1869.9</ele>
        <time>2020-08-22T11:13:41Z</time>
      </trkpt>
      <trkpt lat="42.49251" lon="1.59304">
        <ele>1869.9</ele>
        <time>2020-08-22T11:14:08Z</time>
      </trkpt>
      <trkpt lat="42.49253" lon="1.59305">
        <ele>1869.9</ele>
        <time>2020-08-22T11:14:38Z</time>
      </trkpt>
      <trkpt lat="42.49255" lon="1.59305">
        <ele>1869.9</ele>
        <time>2020-08-22T11:15:10Z</time>
      </trkpt>
      <trkpt lat="42.49255" lon="1.59309">
        <ele>1869.9</ele>
        <time>2020-08-22T11:15:52Z</time>
      </trkpt>
      <trkpt lat="42.49254" lon="1.59305">
        <ele>1869.42</ele>
        <time>2020-08-22T11:16:33Z</time>
      </trkpt>
      <trkpt lat="42.49252" lon="1.59304">
        <ele>1870.86</ele>
        <time>2020-08-22T11:16:36Z</time>
      </trkpt>
      <trkpt lat="42.4925" lon="1.59304">
        <ele>1869.42</ele>
        <time>2020-08-22T11:16:46Z</time>
      </trkpt>
      <trkpt lat="42.49255" lon="1.59307">
        <ele>1870.86</ele>
        <time>2020-08-22T11:17:21Z</time>
      </trkpt>
      <trkpt lat="42.49254" lon="1.59304">
        <ele>1869.9</ele>
        <time>2020-08-22T11:17:41Z</time>
      </trkpt>
      <trkpt lat="42.49256" lon="1.59303">
        <ele>1869.9</ele>
        <time>2020-08-22T11:18:07Z</time>
      </trkpt>
      <trkpt lat="42.49255" lon="1.59307">
        <ele>1870.86</ele>
        <time>2020-08-22T11:18:36Z</time>
      </trkpt>
      <trkpt lat="42.49252" lon="1.59305">
        <ele>1870.86</ele>
        <time>2020-08-22T11:19:07Z</time>
      </trkpt>
      <trkpt lat="42.49251" lon="1.59306">
        <ele>1870.38</ele>
        <time>2020-08-22T11:19:30Z</time>
      </trkpt>
      <trkpt lat="42.49253" lon="1.59306">
        <ele>1870.38</ele>
        <time>2020-08-22T11:20:00Z</time>
      </trkpt>
      <trkpt lat="42.49257" lon="1.59307">
        <ele>1870.86</ele>
        <time>2020-08-22T11:20:31Z</time>
      </trkpt>
      <trkpt lat="42.49253" lon="1.59305">
        <ele>1870.86</ele>
        <time>2020-08-22T11:20:57Z</time>
      </trkpt>
      <trkpt lat="42.49252" lon="1.59301">
        <ele>1871.82</ele>
        <time>2020-08-22T11:21:14Z</time>
      </trkpt>
      <trkpt lat="42.49256" lon="1.59299">
        <ele>1871.82</ele>
        <time>2020-08-22T11:21:33Z</time>
      </trkpt>
      <trkpt lat="42.49257" lon="1.59293">
        <ele>1871.82</ele>
        <time>2020-08-22T11:21:46Z</time>
      </trkpt>
      <trkpt lat="42.49254" lon="1.5929">
        <ele>1870.38</ele>
        <time>2020-08-22T11:22:03Z</time>
      </trkpt>
      <trkpt lat="42.49248" lon="1.59287">
        <ele>1869.42</ele>
        <time>2020-08-22T11:22:16Z</time>
      </trkpt>
      <trkpt lat="42.49242" lon="1.59286">
        <ele>1869.9</ele>
        <time>2020-08-22T11:22:27Z</time>
      </trkpt>
      <trkpt lat="42.49235" lon="1.59288">
        <ele>1869.42</ele>
        <time>2020-08-22T11:22:39Z</time>
      </trkpt>
      <trkpt lat="42.49234" lon="1.59288">
        <ele>1869.42</ele>
        <time>2020-08-22T11:22:44Z</time>
      </trkpt>
      <trkpt lat="42.49227" lon="1.59303">
        <ele>1869.42</ele>
        <time>2020-08-22T11:22:59Z</time>
      </trkpt>
      <trkpt lat="42.49228" lon="1.59301">
        <ele>1868.94</ele>
        <time>2020-08-22T11:23:28Z</time>
      </trkpt>
      <trkpt lat="42.49228" lon="1.59301">
        <ele>1871.34</ele>
        <time>2020-08-22T11:23:30Z</time>
      </trkpt>
      <trkpt lat="42.49228" lon="1.59302">
        <ele>1869.9</ele>
        <time>2020-08-22T11:23:32Z</time>
      </trkpt>
      <trkpt lat="42.49228" lon="1.59302">
        <ele>1869.9</ele>
        <time>2020-08-22T11:23:36Z</time>
      </trkpt>
      <trkpt lat="42.49223" lon="1.59313">
        <ele>1869.9</ele>
        <time>2020-08-22T11:23:50Z</time>
      </trkpt>
      <trkpt lat="42.49222" lon="1.59319">
        <ele>1869.9</ele>
        <time>2020-08-22T11:24:02Z</time>
      </trkpt>
      <trkpt lat="42.49218" lon="1.59329">
        <ele>1871.34</ele>
        <time>2020-08-22T11:24:14Z</time>
      </trkpt>
      <trkpt lat="42.49215" lon="1.59339">
        <ele>1871.82</ele>
        <time>2020-08-22T11:24:29Z</time>
      </trkpt>
      <trkpt lat="42.49211" lon="1.59357">
        <ele>1871.82</ele>
        <time>2020-08-22T11:24:44Z</time>
      </trkpt>
      <trkpt lat="42.4921" lon="1.59357">
        <ele>1871.82</ele>
        <time>2020-08-22T11:24:45Z</time>
      </trkpt>
      <trkpt lat="42.49208" lon="1.59363">
        <ele>1871.82</ele>
        <time>2020-08-22T11:24:50Z</time>
      </trkpt>
      <trkpt lat="42.49208" lon="1.59366">
        <ele>1872.3</ele>
        <time>2020-08-22T11:24:53Z</time>
      </trkpt>
      <trkpt lat="42.49207" lon="1.59387">
        <ele>1873.75</ele>
        <time>2020-08-22T11:25:09Z</time>
      </trkpt>
      <trkpt lat="42.49205" lon="1.59397">
        <ele>1875.19</ele>
        <time>2020-08-22T11:25:21Z</time>
      </trkpt>
      <trkpt lat="42.49208" lon="1.5941">
        <ele>1877.59</ele>
        <time>2020-08-22T11:25:34Z</time>
      </trkpt>
      <trkpt lat="42.49209" lon="1.5941">
        <ele>1878.07</ele>
        <time>2020-08-22T11:25:47Z</time>
      </trkpt>
      <trkpt lat="42.49208" lon="1.59408">
        <ele>1876.15</ele>
        <time>2020-08-22T11:25:54Z</time>
      </trkpt>
      <trkpt lat="42.49207" lon="1.59411">
        <ele>1877.59</ele>
        <time>2020-08-22T11:26:02Z</time>
      </trkpt>
      <trkpt lat="42.49203" lon="1.59424">
        <ele>1879.03</ele>
        <time>2020-08-22T11:26:17Z</time>
      </trkpt>
      <trkpt lat="42.49206" lon="1.59432">
        <ele>1880.48</ele>
        <time>2020-08-22T11:26:31Z</time>
      </trkpt>
      <trkpt lat="42.49203" lon="1.59441">
        <ele>1881.92</ele>
        <time>2020-08-22T11:26:45Z</time>
      </trkpt>
      <trkpt lat="42.49203" lon="1.59454">
        <ele>1883.36</ele>
        <time>2020-08-22T11:27:01Z</time>
      </trkpt>
      <trkpt lat="42.49204" lon="1.59455">
        <ele>1883.36</ele>
        <time>2020-08-22T11:27:21Z</time>
      </trkpt>
      <trkpt lat="42.49202" lon="1.59455">
        <ele>1883.36</ele>
        <time>2020-08-22T11:27:35Z</time>
      </trkpt>
      <trkpt lat="42.49203" lon="1.59457">
        <ele>1883.36</ele>
        <time>2020-08-22T11:27:49Z</time>
      </trkpt>
      <trkpt lat="42.49206" lon="1.59453">
        <ele>1883.84</ele>
        <time>2020-08-22T11:28:05Z</time>
      </trkpt>
      <trkpt lat="42.49206" lon="1.59448">
        <ele>1882.4</ele>
        <time>2020-08-22T11:28:20Z</time>
      </trkpt>
      <trkpt lat="42.49206" lon="1.59448">
        <ele>1882.4</ele>
        <time>2020-08-22T11:28:21Z</time>
      </trkpt>
      <trkpt lat="42.49205" lon="1.59444">
        <ele>1882.4</ele>
        <time>2020-08-22T11:28:46Z</time>
      </trkpt>
      <trkpt lat="42.49205" lon="1.59446">
        <ele>1883.84</ele>
        <time>2020-08-22T11:28:54Z</time>
      </trkpt>
      <trkpt lat="42.49204" lon="1.59448">
        <ele>1881.44</ele>
        <time>2020-08-22T11:29:25Z</time>
      </trkpt>
      <trkpt lat="42.49203" lon="1.59449">
        <ele>1881.44</ele>
        <time>2020-08-22T11:29:55Z</time>
      </trkpt>
      <trkpt lat="42.49204" lon="1.59449">
        <ele>1881.44</ele>
        <time>2020-08-22T11:30:46Z</time>
      </trkpt>
      <trkpt lat="42.49204" lon="1.59447">
        <ele>1880.96</ele>
        <time>2020-08-22T11:31:03Z</time>
      </trkpt>
      <trkpt lat="42.49199" lon="1.59447">
        <ele>1880.48</ele>
        <time>2020-08-22T11:31:17Z</time>
      </trkpt>
      <trkpt lat="42.49189" lon="1.59448">
        <ele>1877.11</ele>
        <time>2020-08-22T11:31:29Z</time>
      </trkpt>
      <trkpt lat="42.49186" lon="1.59449">
        <ele>1876.63</ele>
        <time>2020-08-22T11:31:33Z</time>
      </trkpt>
      <trkpt lat="42.49175" lon="1.59457">
        <ele>1876.15</ele>
        <time>2020-08-22T11:31:44Z</time>
      </trkpt>
      <trkpt lat="42.49171" lon="1.59463">
        <ele>1877.59</ele>
        <time>2020-08-22T11:31:49Z</time>
      </trkpt>
      <trkpt lat="42.4916" lon="1.59468">
        <ele>1878.07</ele>
        <time>2020-08-22T11:32:00Z</time>
      </trkpt>
      <trkpt lat="42.49157" lon="1.59484">
        <ele>1879.51</ele>
        <time>2020-08-22T11:32:15Z</time>
      </trkpt>
      <trkpt lat="42.49155" lon="1.59498">
        <ele>1880.48</ele>
        <time>2020-08-22T11:32:29Z</time>
      </trkpt>
      <trkpt lat="42.49156" lon="1.59513">
        <ele>1881.44</ele>
        <time>2020-08-22T11:32:43Z</time>
      </trkpt>
      <trkpt lat="42.49158" lon="1.59528">
        <ele>1882.4</ele>
        <time>2020-08-22T11:32:57Z</time>
      </trkpt>
      <trkpt lat="42.49157" lon="1.59533">
        <ele>1883.36</ele>
        <time>2020-08-22T11:33:09Z</time>
      </trkpt>
      <trkpt lat="42.49155" lon="1.59546">
        <ele>1883.84</ele>
        <time>2020-08-22T11:33:23Z</time>
      </trkpt>
      <trkpt lat="42.4915" lon="1.59553">
        <ele>1885.28</ele>
        <time>2020-08-22T11:33:40Z</time>
      </trkpt>
      <trkpt lat="42.49144" lon="1.59568">
        <ele>1886.24</ele>
        <time>2020-08-22T11:33:57Z</time>
      </trkpt>
      <trkpt lat="42.4914" lon="1.59574">
        <ele>1887.21</ele>
        <time>2020-08-22T11:34:10Z</time>
      </trkpt>
      <trkpt lat="42.49137" lon="1.59586">
        <ele>1889.13</ele>
        <time>2020-08-22T11:34:26Z</time>
      </trkpt>
      <trkpt lat="42.49132" lon="1.59601">
        <ele>1890.09</ele>
        <time>2020-08-22T11:34:38Z</time>
      </trkpt>
      <trkpt lat="42.49131" lon="1.59621">
        <ele>1891.05</ele>
        <time>2020-08-22T11:34:53Z</time>
      </trkpt>
      <trkpt lat="42.49133" lon="1.59641">
        <ele>1892.49</ele>
        <time>2020-08-22T11:35:05Z</time>
      </trkpt>
      <trkpt lat="42.49138" lon="1.59651">
        <ele>1894.9</ele>
        <time>2020-08-22T11:35:19Z</time>
      </trkpt>
      <trkpt lat="42.49136" lon="1.59664">
        <ele>1896.82</ele>
        <time>2020-08-22T11:35:37Z</time>
      </trkpt>
      <trkpt lat="42.49131" lon="1.59673">
        <ele>1898.26</ele>
        <time>2020-08-22T11:35:52Z</time>
      </trkpt>
      <trkpt lat="42.49131" lon="1.59684">
        <ele>1898.74</ele>
        <time>2020-08-22T11:36:07Z</time>
      </trkpt>
      <trkpt lat="42.49136" lon="1.59691">
        <ele>1900.18</ele>
        <time>2020-08-22T11:36:22Z</time>
      </trkpt>
      <trkpt lat="42.49136" lon="1.59697">
        <ele>1902.59</ele>
        <time>2020-08-22T11:36:36Z</time>
      </trkpt>
      <trkpt lat="42.49136" lon="1.59722">
        <ele>1905.47</ele>
        <time>2020-08-22T11:36:51Z</time>
      </trkpt>
      <trkpt lat="42.49131" lon="1.59731">
        <ele>1906.91</ele>
        <time>2020-08-22T11:37:07Z</time>
      </trkpt>
      <trkpt lat="42.49128" lon="1.59742">
        <ele>1907.87</ele>
        <time>2020-08-22T11:37:23Z</time>
      </trkpt>
      <trkpt lat="42.49126" lon="1.59744">
        <ele>1908.35</ele>
        <time>2020-08-22T11:37:44Z</time>
      </trkpt>
      <trkpt lat="42.49127" lon="1.59756">
        <ele>1908.35</ele>
        <time>2020-08-22T11:38:13Z</time>
      </trkpt>
      <trkpt lat="42.49126" lon="1.5976">
        <ele>1908.35</ele>
        <time>2020-08-22T11:38:42Z</time>
      </trkpt>
      <trkpt lat="42.49131" lon="1.59752">
        <ele>1908.83</ele>
        <time>2020-08-22T11:39:08Z</time>
      </trkpt>
      <trkpt lat="42.49131" lon="1.59753">
        <ele>1907.39</ele>
        <time>2020-08-22T11:39:29Z</time>
      </trkpt>
      <trkpt lat="42.4913" lon="1.59755">
        <ele>1907.39</ele>
        <time>2020-08-22T11:39:51Z</time>
      </trkpt>
      <trkpt lat="42.49126" lon="1.59753">
        <ele>1907.87</ele>
        <time>2020-08-22T11:40:22Z</time>
      </trkpt>
      <trkpt lat="42.49127" lon="1.59754">
        <ele>1909.32</ele>
        <time>2020-08-22T11:40:30Z</time>
      </trkpt>
      <trkpt lat="42.49128" lon="1.59754">
        <ele>1908.83</ele>
        <time>2020-08-22T11:40:49Z</time>
      </trkpt>
      <trkpt lat="42.49128" lon="1.59753">
        <ele>1908.83</ele>
        <time>2020-08-22T11:40:50Z</time>
      </trkpt>
      <trkpt lat="42.49128" lon="1.59754">
        <ele>1908.83</ele>
        <time>2020-08-22T11:41:13Z</time>
      </trkpt>
      <trkpt lat="42.49123" lon="1.59761">
        <ele>1908.83</ele>
        <time>2020-08-22T11:41:31Z</time>
      </trkpt>
      <trkpt lat="42.49123" lon="1.59784">
        <ele>1911.72</ele>
        <time>2020-08-22T11:41:48Z</time>
      </trkpt>
      <trkpt lat="42.49123" lon="1.59794">
        <ele>1912.2</ele>
        <time>2020-08-22T11:41:55Z</time>
      </trkpt>
      <trkpt lat="42.49124" lon="1.59815">
        <ele>1912.2</ele>
        <time>2020-08-22T11:42:10Z</time>
      </trkpt>
      <trkpt lat="42.49119" lon="1.5983">
        <ele>1912.2</ele>
        <time>2020-08-22T11:42:26Z</time>
      </trkpt>
      <trkpt lat="42.49117" lon="1.59849">
        <ele>1912.2</ele>
        <time>2020-08-22T11:42:40Z</time>
      </trkpt>
      <trkpt lat="42.4911" lon="1.59867">
        <ele>1913.64</ele>
        <time>2020-08-22T11:42:56Z</time>
      </trkpt>
      <trkpt lat="42.49106" lon="1.59883">
        <ele>1914.6</ele>
        <time>2020-08-22T11:43:11Z</time>
      </trkpt>
      <trkpt lat="42.49103" lon="1.59896">
        <ele>1915.08</ele>
        <time>2020-08-22T11:43:17Z</time>
      </trkpt>
      <trkpt lat="42.491" lon="1.5992">
        <ele>1915.56</ele>
        <time>2020-08-22T11:43:34Z</time>
      </trkpt>
      <trkpt lat="42.49091" lon="1.59941">
        <ele>1914.12</ele>
        <time>2020-08-22T11:43:49Z</time>
      </trkpt>
      <trkpt lat="42.49087" lon="1.59964">
        <ele>1915.08</ele>
        <time>2020-08-22T11:44:05Z</time>
      </trkpt>
      <trkpt lat="42.49083" lon="1.59979">
        <ele>1915.08</ele>
        <time>2020-08-22T11:44:19Z</time>
      </trkpt>
      <trkpt lat="42.49075" lon="1.59983">
        <ele>1918.93</ele>
        <time>2020-08-22T11:44:35Z</time>
      </trkpt>
      <trkpt lat="42.49067" lon="1.59989">
        <ele>1920.85</ele>
        <time>2020-08-22T11:44:51Z</time>
      </trkpt>
      <trkpt lat="42.4906" lon="1.59992">
        <ele>1921.33</ele>
        <time>2020-08-22T11:45:04Z</time>
      </trkpt>
      <trkpt lat="42.49052" lon="1.60002">
        <ele>1923.74</ele>
        <time>2020-08-22T11:45:21Z</time>
      </trkpt>
      <trkpt lat="42.4905" lon="1.60009">
        <ele>1926.14</ele>
        <time>2020-08-22T11:45:34Z</time>
      </trkpt>
      <trkpt lat="42.49046" lon="1.60018">
        <ele>1929.02</ele>
        <time>2020-08-22T11:45:49Z</time>
      </trkpt>
      <trkpt lat="42.49043" lon="1.60027">
        <ele>1931.43</ele>
        <time>2020-08-22T11:46:04Z</time>
      </trkpt>
      <trkpt lat="42.49039" lon="1.6004">
        <ele>1933.83</ele>
        <time>2020-08-22T11:46:17Z</time>
      </trkpt>
      <trkpt lat="42.49033" lon="1.60062">
        <ele>1935.27</ele>
        <time>2020-08-22T11:46:32Z</time>
      </trkpt>
      <trkpt lat="42.4903" lon="1.60085">
        <ele>1937.19</ele>
        <time>2020-08-22T11:46:52Z</time>
      </trkpt>
      <trkpt lat="42.49025" lon="1.60102">
        <ele>1939.12</ele>
        <time>2020-08-22T11:47:12Z</time>
      </trkpt>
      <trkpt lat="42.49025" lon="1.60109">
        <ele>1939.12</ele>
        <time>2020-08-22T11:47:18Z</time>
      </trkpt>
      <trkpt lat="42.49016" lon="1.60127">
        <ele>1940.08</ele>
        <time>2020-08-22T11:47:35Z</time>
      </trkpt>
      <trkpt lat="42.49013" lon="1.60138">
        <ele>1942</ele>
        <time>2020-08-22T11:47:51Z</time>
      </trkpt>
      <trkpt lat="42.4901" lon="1.60161">
        <ele>1944.4</ele>
        <time>2020-08-22T11:48:07Z</time>
      </trkpt>
      <trkpt lat="42.49008" lon="1.60177">
        <ele>1946.33</ele>
        <time>2020-08-22T11:48:21Z</time>
      </trkpt>
      <trkpt lat="42.49008" lon="1.60208">
        <ele>1949.21</ele>
        <time>2020-08-22T11:48:38Z</time>
      </trkpt>
      <trkpt lat="42.49008" lon="1.60217">
        <ele>1950.65</ele>
        <time>2020-08-22T11:48:52Z</time>
      </trkpt>
      <trkpt lat="42.49008" lon="1.60225">
        <ele>1952.09</ele>
        <time>2020-08-22T11:49:04Z</time>
      </trkpt>
      <trkpt lat="42.4901" lon="1.60233">
        <ele>1954.02</ele>
        <time>2020-08-22T11:49:20Z</time>
      </trkpt>
      <trkpt lat="42.4901" lon="1.60238">
        <ele>1955.94</ele>
        <time>2020-08-22T11:49:35Z</time>
      </trkpt>
      <trkpt lat="42.49007" lon="1.60249">
        <ele>1957.86</ele>
        <time>2020-08-22T11:49:49Z</time>
      </trkpt>
      <trkpt lat="42.49007" lon="1.60256">
        <ele>1960.27</ele>
        <time>2020-08-22T11:50:07Z</time>
      </trkpt>
      <trkpt lat="42.49002" lon="1.60275">
        <ele>1963.15</ele>
        <time>2020-08-22T11:50:24Z</time>
      </trkpt>
      <trkpt lat="42.48999" lon="1.60285">
        <ele>1964.11</ele>
        <time>2020-08-22T11:50:39Z</time>
      </trkpt>
      <trkpt lat="42.48998" lon="1.60288">
        <ele>1965.07</ele>
        <time>2020-08-22T11:50:55Z</time>
      </trkpt>
      <trkpt lat="42.49002" lon="1.60294">
        <ele>1966.99</ele>
        <time>2020-08-22T11:51:13Z</time>
      </trkpt>
      <trkpt lat="42.49001" lon="1.60301">
        <ele>1970.36</ele>
        <time>2020-08-22T11:51:28Z</time>
      </trkpt>
      <trkpt lat="42.48999" lon="1.60314">
        <ele>1972.28</ele>
        <time>2020-08-22T11:51:42Z</time>
      </trkpt>
      <trkpt lat="42.48998" lon="1.6032">
        <ele>1972.76</ele>
        <time>2020-08-22T11:52:00Z</time>
      </trkpt>
      <trkpt lat="42.48995" lon="1.60331">
        <ele>1974.2</ele>
        <time>2020-08-22T11:52:17Z</time>
      </trkpt>
      <trkpt lat="42.48993" lon="1.60341">
        <ele>1975.65</ele>
        <time>2020-08-22T11:52:29Z</time>
      </trkpt>
      <trkpt lat="42.4899" lon="1.60353">
        <ele>1977.09</ele>
        <time>2020-08-22T11:52:42Z</time>
      </trkpt>
      <trkpt lat="42.48989" lon="1.60364">
        <ele>1977.57</ele>
        <time>2020-08-22T11:52:52Z</time>
      </trkpt>
      <trkpt lat="42.48988" lon="1.60382">
        <ele>1979.01</ele>
        <time>2020-08-22T11:53:07Z</time>
      </trkpt>
      <trkpt lat="42.48984" lon="1.60396">
        <ele>1979.97</ele>
        <time>2020-08-22T11:53:20Z</time>
      </trkpt>
      <trkpt lat="42.4898" lon="1.6041">
        <ele>1980.45</ele>
        <time>2020-08-22T11:53:35Z</time>
      </trkpt>
      <trkpt lat="42.48975" lon="1.60424">
        <ele>1981.41</ele>
        <time>2020-08-22T11:53:48Z</time>
      </trkpt>
      <trkpt lat="42.48971" lon="1.60435">
        <ele>1981.41</ele>
        <time>2020-08-22T11:54:02Z</time>
      </trkpt>
      <trkpt lat="42.48966" lon="1.60454">
        <ele>1981.41</ele>
        <time>2020-08-22T11:54:17Z</time>
      </trkpt>
      <trkpt lat="42.4896" lon="1.6047">
        <ele>1981.41</ele>
        <time>2020-08-22T11:54:33Z</time>
      </trkpt>
      <trkpt lat="42.48956" lon="1.60491">
        <ele>1982.38</ele>
        <time>2020-08-22T11:54:47Z</time>
      </trkpt>
      <trkpt lat="42.48961" lon="1.60514">
        <ele>1982.86</ele>
        <time>2020-08-22T11:55:02Z</time>
      </trkpt>
      <trkpt lat="42.4896" lon="1.60527">
        <ele>1982.38</ele>
        <time>2020-08-22T11:55:18Z</time>
      </trkpt>
      <trkpt lat="42.48963" lon="1.60541">
        <ele>1982.38</ele>
        <time>2020-08-22T11:55:35Z</time>
      </trkpt>
      <trkpt lat="42.48969" lon="1.60563">
        <ele>1982.38</ele>
        <time>2020-08-22T11:55:51Z</time>
      </trkpt>
      <trkpt lat="42.48968" lon="1.60566">
        <ele>1982.38</ele>
        <time>2020-08-22T11:56:21Z</time>
      </trkpt>
      <trkpt lat="42.48967" lon="1.60567">
        <ele>1982.38</ele>
        <time>2020-08-22T11:56:49Z</time>
      </trkpt>
      <trkpt lat="42.48968" lon="1.60576">
        <ele>1981.9</ele>
        <time>2020-08-22T11:56:58Z</time>
      </trkpt>
      <trkpt lat="42.48973" lon="1.60591">
        <ele>1982.38</ele>
        <time>2020-08-22T11:57:11Z</time>
      </trkpt>
      <trkpt lat="42.48974" lon="1.60605">
        <ele>1983.82</ele>
        <time>2020-08-22T11:57:22Z</time>
      </trkpt>
      <trkpt lat="42.4897" lon="1.60615">
        <ele>1983.82</ele>
        <time>2020-08-22T11:57:35Z</time>
      </trkpt>
      <trkpt lat="42.4896" lon="1.60637">
        <ele>1985.74</ele>
        <time>2020-08-22T11:57:51Z</time>
      </trkpt>
      <trkpt lat="42.48956" lon="1.60643">
        <ele>1985.74</ele>
        <time>2020-08-22T11:57:57Z</time>
      </trkpt>
      <trkpt lat="42.48951" lon="1.60662">
        <ele>1986.22</ele>
        <time>2020-08-22T11:58:11Z</time>
      </trkpt>
      <trkpt lat="42.48951" lon="1.60671">
        <ele>1986.22</ele>
        <time>2020-08-22T11:58:17Z</time>
      </trkpt>
      <trkpt lat="42.48954" lon="1.60679">
        <ele>1986.22</ele>
        <time>2020-08-22T11:58:32Z</time>
      </trkpt>
      <trkpt lat="42.48956" lon="1.60683">
        <ele>1986.22</ele>
        <time>2020-08-22T11:58:36Z</time>
      </trkpt>
      <trkpt lat="42.48957" lon="1.60694">
        <ele>1986.22</ele>
        <time>2020-08-22T11:58:48Z</time>
      </trkpt>
      <trkpt lat="42.48957" lon="1.60697">
        <ele>1986.22</ele>
        <time>2020-08-22T11:58:50Z</time>
      </trkpt>
      <trkpt lat="42.48962" lon="1.6071">
        <ele>1986.22</ele>
        <time>2020-08-22T11:59:01Z</time>
      </trkpt>
      <trkpt lat="42.48965" lon="1.60733">
        <ele>1987.66</ele>
        <time>2020-08-22T11:59:17Z</time>
      </trkpt>
      <trkpt lat="42.48966" lon="1.60751">
        <ele>1989.1</ele>
        <time>2020-08-22T11:59:31Z</time>
      </trkpt>
      <trkpt lat="42.48967" lon="1.60751">
        <ele>1988.62</ele>
        <time>2020-08-22T11:59:44Z</time>
      </trkpt>
      <trkpt lat="42.48964" lon="1.60761">
        <ele>1989.1</ele>
        <time>2020-08-22T12:00:06Z</time>
      </trkpt>
      <trkpt lat="42.48963" lon="1.60761">
        <ele>1987.66</ele>
        <time>2020-08-22T12:00:09Z</time>
      </trkpt>
      <trkpt lat="42.48963" lon="1.60765">
        <ele>1987.18</ele>
        <time>2020-08-22T12:00:30Z</time>
      </trkpt>
      <trkpt lat="42.48968" lon="1.60766">
        <ele>1988.14</ele>
        <time>2020-08-22T12:00:44Z</time>
      </trkpt>
      <trkpt lat="42.48967" lon="1.60761">
        <ele>1988.14</ele>
        <time>2020-08-22T12:01:08Z</time>
      </trkpt>
      <trkpt lat="42.48967" lon="1.60764">
        <ele>1987.66</ele>
        <time>2020-08-22T12:01:34Z</time>
      </trkpt>
      <trkpt lat="42.48965" lon="1.60764">
        <ele>1987.18</ele>
        <time>2020-08-22T12:02:05Z</time>
      </trkpt>
      <trkpt lat="42.48965" lon="1.60765">
        <ele>1987.18</ele>
        <time>2020-08-22T12:02:45Z</time>
      </trkpt>
      <trkpt lat="42.48967" lon="1.60763">
        <ele>1988.62</ele>
        <time>2020-08-22T12:02:53Z</time>
      </trkpt>
      <trkpt lat="42.48967" lon="1.60756">
        <ele>1988.62</ele>
        <time>2020-08-22T12:02:59Z</time>
      </trkpt>
      <trkpt lat="42.48966" lon="1.60747">
        <ele>1988.62</ele>
        <time>2020-08-22T12:03:15Z</time>
      </trkpt>
      <trkpt lat="42.48964" lon="1.60735">
        <ele>1987.66</ele>
        <time>2020-08-22T12:03:27Z</time>
      </trkpt>
      <trkpt lat="42.48967" lon="1.60714">
        <ele>1986.7</ele>
        <time>2020-08-22T12:03:43Z</time>
      </trkpt>
      <trkpt lat="42.48963" lon="1.60699">
        <ele>1985.74</ele>
        <time>2020-08-22T12:03:59Z</time>
      </trkpt>
      <trkpt lat="42.4896" lon="1.60692">
        <ele>1978.53</ele>
        <time>2020-08-22T12:04:06Z</time>
      </trkpt>
      <trkpt lat="42.48959" lon="1.60692">
        <ele>1989.59</ele>
        <time>2020-08-22T12:04:07Z</time>
      </trkpt>
      <trkpt lat="42.48959" lon="1.60692">
        <ele>1987.66</ele>
        <time>2020-08-22T12:04:08Z</time>
      </trkpt>
      <trkpt lat="42.48959" lon="1.6069">
        <ele>1986.22</ele>
        <time>2020-08-22T12:04:10Z</time>
      </trkpt>
      <trkpt lat="42.48958" lon="1.60681">
        <ele>1985.26</ele>
        <time>2020-08-22T12:04:17Z</time>
      </trkpt>
      <trkpt lat="42.48958" lon="1.60676">
        <ele>1985.26</ele>
        <time>2020-08-22T12:04:21Z</time>
      </trkpt>
      <trkpt lat="42.48957" lon="1.60674">
        <ele>1985.26</ele>
        <time>2020-08-22T12:04:23Z</time>
      </trkpt>
      <trkpt lat="42.48955" lon="1.60657">
        <ele>1986.22</ele>
        <time>2020-08-22T12:04:37Z</time>
      </trkpt>
      <trkpt lat="42.48961" lon="1.60641">
        <ele>1986.22</ele>
        <time>2020-08-22T12:04:52Z</time>
      </trkpt>
      <trkpt lat="42.48962" lon="1.6064">
        <ele>1984.78</ele>
        <time>2020-08-22T12:04:54Z</time>
      </trkpt>
      <trkpt lat="42.48965" lon="1.60637">
        <ele>1984.78</ele>
        <time>2020-08-22T12:04:59Z</time>
      </trkpt>
      <trkpt lat="42.48969" lon="1.60634">
        <ele>1983.34</ele>
        <time>2020-08-22T12:05:04Z</time>
      </trkpt>
      <trkpt lat="42.48976" lon="1.6062">
        <ele>1982.38</ele>
        <time>2020-08-22T12:05:20Z</time>
      </trkpt>
      <trkpt lat="42.48978" lon="1.60599">
        <ele>1981.41</ele>
        <time>2020-08-22T12:05:35Z</time>
      </trkpt>
      <trkpt lat="42.48977" lon="1.60588">
        <ele>1980.93</ele>
        <time>2020-08-22T12:05:45Z</time>
      </trkpt>
      <trkpt lat="42.48974" lon="1.6057">
        <ele>1980.93</ele>
        <time>2020-08-22T12:06:01Z</time>
      </trkpt>
      <trkpt lat="42.48969" lon="1.60552">
        <ele>1979.97</ele>
        <time>2020-08-22T12:06:18Z</time>
      </trkpt>
      <trkpt lat="42.48964" lon="1.60534">
        <ele>1979.97</ele>
        <time>2020-08-22T12:06:34Z</time>
      </trkpt>
      <trkpt lat="42.48963" lon="1.6052">
        <ele>1980.93</ele>
        <time>2020-08-22T12:06:48Z</time>
      </trkpt>
      <trkpt lat="42.48962" lon="1.60499">
        <ele>1980.93</ele>
        <time>2020-08-22T12:07:05Z</time>
      </trkpt>
      <trkpt lat="42.48964" lon="1.6048">
        <ele>1980.93</ele>
        <time>2020-08-22T12:07:21Z</time>
      </trkpt>
      <trkpt lat="42.48969" lon="1.60462">
        <ele>1979.49</ele>
        <time>2020-08-22T12:07:37Z</time>
      </trkpt>
      <trkpt lat="42.48975" lon="1.60445">
        <ele>1979.49</ele>
        <time>2020-08-22T12:07:51Z</time>
      </trkpt>
      <trkpt lat="42.48982" lon="1.60428">
        <ele>1979.49</ele>
        <time>2020-08-22T12:08:06Z</time>
      </trkpt>
      <trkpt lat="42.48988" lon="1.60412">
        <ele>1979.01</ele>
        <time>2020-08-22T12:08:21Z</time>
      </trkpt>
      <trkpt lat="42.48992" lon="1.604">
        <ele>1978.05</ele>
        <time>2020-08-22T12:08:36Z</time>
      </trkpt>
      <trkpt lat="42.48995" lon="1.60387">
        <ele>1977.57</ele>
        <time>2020-08-22T12:08:51Z</time>
      </trkpt>
      <trkpt lat="42.48994" lon="1.60371">
        <ele>1975.17</ele>
        <time>2020-08-22T12:09:06Z</time>
      </trkpt>
      <trkpt lat="42.48995" lon="1.60352">
        <ele>1974.69</ele>
        <time>2020-08-22T12:09:22Z</time>
      </trkpt>
      <trkpt lat="42.48999" lon="1.60339">
        <ele>1973.24</ele>
        <time>2020-08-22T12:09:38Z</time>
      </trkpt>
      <trkpt lat="42.48999" lon="1.60327">
        <ele>1972.28</ele>
        <time>2020-08-22T12:09:52Z</time>
      </trkpt>
      <trkpt lat="42.49001" lon="1.60312">
        <ele>1970.84</ele>
        <time>2020-08-22T12:10:07Z</time>
      </trkpt>
      <trkpt lat="42.49006" lon="1.60304">
        <ele>1967.96</ele>
        <time>2020-08-22T12:10:24Z</time>
      </trkpt>
      <trkpt lat="42.49006" lon="1.60295">
        <ele>1966.51</ele>
        <time>2020-08-22T12:10:39Z</time>
      </trkpt>
      <trkpt lat="42.49005" lon="1.60289">
        <ele>1965.07</ele>
        <time>2020-08-22T12:10:56Z</time>
      </trkpt>
      <trkpt lat="42.48997" lon="1.60289">
        <ele>1963.15</ele>
        <time>2020-08-22T12:11:12Z</time>
      </trkpt>
      <trkpt lat="42.48989" lon="1.60278">
        <ele>1963.15</ele>
        <time>2020-08-22T12:11:30Z</time>
      </trkpt>
      <trkpt lat="42.48994" lon="1.60268">
        <ele>1961.23</ele>
        <time>2020-08-22T12:11:48Z</time>
      </trkpt>
      <trkpt lat="42.48997" lon="1.60265">
        <ele>1959.78</ele>
        <time>2020-08-22T12:12:04Z</time>
      </trkpt>
      <trkpt lat="42.48999" lon="1.60257">
        <ele>1958.34</ele>
        <time>2020-08-22T12:12:19Z</time>
      </trkpt>
      <trkpt lat="42.49003" lon="1.60254">
        <ele>1956.9</ele>
        <time>2020-08-22T12:12:34Z</time>
      </trkpt>
      <trkpt lat="42.49007" lon="1.60259">
        <ele>1955.94</ele>
        <time>2020-08-22T12:12:49Z</time>
      </trkpt>
      <trkpt lat="42.49016" lon="1.60251">
        <ele>1954.02</ele>
        <time>2020-08-22T12:13:06Z</time>
      </trkpt>
      <trkpt lat="42.49021" lon="1.60237">
        <ele>1952.57</ele>
        <time>2020-08-22T12:13:23Z</time>
      </trkpt>
      <trkpt lat="42.49023" lon="1.60228">
        <ele>1951.61</ele>
        <time>2020-08-22T12:13:38Z</time>
      </trkpt>
      <trkpt lat="42.4902" lon="1.60215">
        <ele>1950.17</ele>
        <time>2020-08-22T12:13:53Z</time>
      </trkpt>
      <trkpt lat="42.49014" lon="1.60206">
        <ele>1949.21</ele>
        <time>2020-08-22T12:14:07Z</time>
      </trkpt>
      <trkpt lat="42.49011" lon="1.60199">
        <ele>1947.77</ele>
        <time>2020-08-22T12:14:21Z</time>
      </trkpt>
      <trkpt lat="42.49013" lon="1.60193">
        <ele>1946.33</ele>
        <time>2020-08-22T12:14:36Z</time>
      </trkpt>
      <trkpt lat="42.49012" lon="1.60187">
        <ele>1944.88</ele>
        <time>2020-08-22T12:14:51Z</time>
      </trkpt>
      <trkpt lat="42.49014" lon="1.60177">
        <ele>1943.44</ele>
        <time>2020-08-22T12:15:06Z</time>
      </trkpt>
      <trkpt lat="42.49015" lon="1.60166">
        <ele>1942</ele>
        <time>2020-08-22T12:15:19Z</time>
      </trkpt>
      <trkpt lat="42.49021" lon="1.6016">
        <ele>1940.08</ele>
        <time>2020-08-22T12:15:34Z</time>
      </trkpt>
      <trkpt lat="42.49024" lon="1.60144">
        <ele>1939.12</ele>
        <time>2020-08-22T12:15:50Z</time>
      </trkpt>
      <trkpt lat="42.49029" lon="1.60132">
        <ele>1938.64</ele>
        <time>2020-08-22T12:16:05Z</time>
      </trkpt>
      <trkpt lat="42.49033" lon="1.60113">
        <ele>1937.67</ele>
        <time>2020-08-22T12:16:21Z</time>
      </trkpt>
      <trkpt lat="42.49034" lon="1.60099">
        <ele>1936.23</ele>
        <time>2020-08-22T12:16:35Z</time>
      </trkpt>
      <trkpt lat="42.49037" lon="1.60093">
        <ele>1934.79</ele>
        <time>2020-08-22T12:16:47Z</time>
      </trkpt>
      <trkpt lat="42.49043" lon="1.60088">
        <ele>1933.35</ele>
        <time>2020-08-22T12:16:58Z</time>
      </trkpt>
      <trkpt lat="42.49046" lon="1.60073">
        <ele>1930.95</ele>
        <time>2020-08-22T12:17:15Z</time>
      </trkpt>
      <trkpt lat="42.49048" lon="1.60062">
        <ele>1929.02</ele>
        <time>2020-08-22T12:17:28Z</time>
      </trkpt>
      <trkpt lat="42.49053" lon="1.60054">
        <ele>1927.58</ele>
        <time>2020-08-22T12:17:42Z</time>
      </trkpt>
      <trkpt lat="42.49051" lon="1.60041">
        <ele>1925.18</ele>
        <time>2020-08-22T12:18:00Z</time>
      </trkpt>
      <trkpt lat="42.49053" lon="1.60034">
        <ele>1923.74</ele>
        <time>2020-08-22T12:18:18Z</time>
      </trkpt>
      <trkpt lat="42.49058" lon="1.6003">
        <ele>1921.81</ele>
        <time>2020-08-22T12:18:33Z</time>
      </trkpt>
      <trkpt lat="42.49063" lon="1.60019">
        <ele>1920.85</ele>
        <time>2020-08-22T12:18:50Z</time>
      </trkpt>
      <trkpt lat="42.49072" lon="1.6001">
        <ele>1919.41</ele>
        <time>2020-08-22T12:19:07Z</time>
      </trkpt>
      <trkpt lat="42.49078" lon="1.60002">
        <ele>1917.97</ele>
        <time>2020-08-22T12:19:22Z</time>
      </trkpt>
      <trkpt lat="42.49079" lon="1.5999">
        <ele>1916.04</ele>
        <time>2020-08-22T12:19:39Z</time>
      </trkpt>
      <trkpt lat="42.49084" lon="1.59985">
        <ele>1913.64</ele>
        <time>2020-08-22T12:19:55Z</time>
      </trkpt>
      <trkpt lat="42.49089" lon="1.59969">
        <ele>1913.16</ele>
        <time>2020-08-22T12:20:13Z</time>
      </trkpt>
      <trkpt lat="42.49091" lon="1.59964">
        <ele>1912.68</ele>
        <time>2020-08-22T12:20:20Z</time>
      </trkpt>
      <trkpt lat="42.49093" lon="1.59947">
        <ele>1912.2</ele>
        <time>2020-08-22T12:20:33Z</time>
      </trkpt>
      <trkpt lat="42.49098" lon="1.59938">
        <ele>1911.24</ele>
        <time>2020-08-22T12:20:45Z</time>
      </trkpt>
      <trkpt lat="42.49104" lon="1.59921">
        <ele>1911.24</ele>
        <time>2020-08-22T12:21:00Z</time>
      </trkpt>
      <trkpt lat="42.4911" lon="1.59904">
        <ele>1911.24</ele>
        <time>2020-08-22T12:21:14Z</time>
      </trkpt>
      <trkpt lat="42.49115" lon="1.5989">
        <ele>1912.2</ele>
        <time>2020-08-22T12:21:30Z</time>
      </trkpt>
      <trkpt lat="42.49118" lon="1.59876">
        <ele>1912.2</ele>
        <time>2020-08-22T12:21:46Z</time>
      </trkpt>
      <trkpt lat="42.49121" lon="1.59861">
        <ele>1911.24</ele>
        <time>2020-08-22T12:22:03Z</time>
      </trkpt>
      <trkpt lat="42.49122" lon="1.59858">
        <ele>1910.76</ele>
        <time>2020-08-22T12:22:07Z</time>
      </trkpt>
      <trkpt lat="42.49126" lon="1.59837">
        <ele>1910.28</ele>
        <time>2020-08-22T12:22:24Z</time>
      </trkpt>
      <trkpt lat="42.49126" lon="1.59817">
        <ele>1910.28</ele>
        <time>2020-08-22T12:22:36Z</time>
      </trkpt>
      <trkpt lat="42.49125" lon="1.59801">
        <ele>1910.28</ele>
        <time>2020-08-22T12:22:51Z</time>
      </trkpt>
      <trkpt lat="42.49124" lon="1.59786">
        <ele>1910.28</ele>
        <time>2020-08-22T12:23:05Z</time>
      </trkpt>
      <trkpt lat="42.49126" lon="1.59772">
        <ele>1907.39</ele>
        <time>2020-08-22T12:23:20Z</time>
      </trkpt>
      <trkpt lat="42.49124" lon="1.59756">
        <ele>1906.91</ele>
        <time>2020-08-22T12:23:36Z</time>
      </trkpt>
      <trkpt lat="42.49133" lon="1.59736">
        <ele>1906.91</ele>
        <time>2020-08-22T12:23:55Z</time>
      </trkpt>
      <trkpt lat="42.49139" lon="1.59724">
        <ele>1904.51</ele>
        <time>2020-08-22T12:24:11Z</time>
      </trkpt>
      <trkpt lat="42.49142" lon="1.59718">
        <ele>1903.55</ele>
        <time>2020-08-22T12:24:23Z</time>
      </trkpt>
      <trkpt lat="42.49145" lon="1.5971">
        <ele>1902.11</ele>
        <time>2020-08-22T12:24:44Z</time>
      </trkpt>
      <trkpt lat="42.49146" lon="1.59703">
        <ele>1900.66</ele>
        <time>2020-08-22T12:24:58Z</time>
      </trkpt>
      <trkpt lat="42.49146" lon="1.59687">
        <ele>1899.7</ele>
        <time>2020-08-22T12:25:13Z</time>
      </trkpt>
      <trkpt lat="42.49147" lon="1.59672">
        <ele>1898.74</ele>
        <time>2020-08-22T12:25:27Z</time>
      </trkpt>
      <trkpt lat="42.49148" lon="1.59657">
        <ele>1897.3</ele>
        <time>2020-08-22T12:25:43Z</time>
      </trkpt>
      <trkpt lat="42.49144" lon="1.59648">
        <ele>1895.86</ele>
        <time>2020-08-22T12:25:58Z</time>
      </trkpt>
      <trkpt lat="42.49135" lon="1.59637">
        <ele>1894.42</ele>
        <time>2020-08-22T12:26:13Z</time>
      </trkpt>
      <trkpt lat="42.49134" lon="1.59626">
        <ele>1892.97</ele>
        <time>2020-08-22T12:26:28Z</time>
      </trkpt>
      <trkpt lat="42.49137" lon="1.59615">
        <ele>1891.53</ele>
        <time>2020-08-22T12:26:44Z</time>
      </trkpt>
      <trkpt lat="42.49136" lon="1.59599">
        <ele>1890.57</ele>
        <time>2020-08-22T12:26:59Z</time>
      </trkpt>
      <trkpt lat="42.4914" lon="1.59589">
        <ele>1889.61</ele>
        <time>2020-08-22T12:27:12Z</time>
      </trkpt>
      <trkpt lat="42.49142" lon="1.59581">
        <ele>1889.13</ele>
        <time>2020-08-22T12:27:26Z</time>
      </trkpt>
      <trkpt lat="42.49148" lon="1.59571">
        <ele>1888.17</ele>
        <time>2020-08-22T12:27:40Z</time>
      </trkpt>
      <trkpt lat="42.49155" lon="1.59563">
        <ele>1886.72</ele>
        <time>2020-08-22T12:27:54Z</time>
      </trkpt>
      <trkpt lat="42.49159" lon="1.59558">
        <ele>1885.76</ele>
        <time>2020-08-22T12:28:05Z</time>
      </trkpt>
      <trkpt lat="42.49161" lon="1.59546">
        <ele>1884.8</ele>
        <time>2020-08-22T12:28:19Z</time>
      </trkpt>
      <trkpt lat="42.49163" lon="1.59535">
        <ele>1883.84</ele>
        <time>2020-08-22T12:28:32Z</time>
      </trkpt>
      <trkpt lat="42.49164" lon="1.59521">
        <ele>1883.36</ele>
        <time>2020-08-22T12:28:47Z</time>
      </trkpt>
      <trkpt lat="42.49159" lon="1.59511">
        <ele>1882.4</ele>
        <time>2020-08-22T12:28:59Z</time>
      </trkpt>
      <trkpt lat="42.49157" lon="1.59497">
        <ele>1882.4</ele>
        <time>2020-08-22T12:29:12Z</time>
      </trkpt>
      <trkpt lat="42.49156" lon="1.59482">
        <ele>1880.96</ele>
        <time>2020-08-22T12:29:25Z</time>
      </trkpt>
      <trkpt lat="42.49163" lon="1.5947">
        <ele>1879.51</ele>
        <time>2020-08-22T12:29:40Z</time>
      </trkpt>
      <trkpt lat="42.49174" lon="1.59464">
        <ele>1879.03</ele>
        <time>2020-08-22T12:29:55Z</time>
      </trkpt>
      <trkpt lat="42.49182" lon="1.59452">
        <ele>1878.07</ele>
        <time>2020-08-22T12:30:10Z</time>
      </trkpt>
      <trkpt lat="42.49188" lon="1.5944">
        <ele>1877.11</ele>
        <time>2020-08-22T12:30:25Z</time>
      </trkpt>
      <trkpt lat="42.49191" lon="1.59434">
        <ele>1876.63</ele>
        <time>2020-08-22T12:30:31Z</time>
      </trkpt>
      <trkpt lat="42.492" lon="1.59415">
        <ele>1877.59</ele>
        <time>2020-08-22T12:30:49Z</time>
      </trkpt>
      <trkpt lat="42.49205" lon="1.59404">
        <ele>1877.59</ele>
        <time>2020-08-22T12:31:02Z</time>
      </trkpt>
      <trkpt lat="42.49205" lon="1.59403">
        <ele>1876.15</ele>
        <time>2020-08-22T12:31:04Z</time>
      </trkpt>
      <trkpt lat="42.49209" lon="1.59391">
        <ele>1874.71</ele>
        <time>2020-08-22T12:31:19Z</time>
      </trkpt>
      <trkpt lat="42.49211" lon="1.59382">
        <ele>1873.27</ele>
        <time>2020-08-22T12:31:31Z</time>
      </trkpt>
      <trkpt lat="42.49212" lon="1.59374">
        <ele>1872.79</ele>
        <time>2020-08-22T12:31:38Z</time>
      </trkpt>
      <trkpt lat="42.49212" lon="1.59368">
        <ele>1872.79</ele>
        <time>2020-08-22T12:31:43Z</time>
      </trkpt>
      <trkpt lat="42.49216" lon="1.59352">
        <ele>1871.34</ele>
        <time>2020-08-22T12:31:59Z</time>
      </trkpt>
      <trkpt lat="42.49217" lon="1.59345">
        <ele>1871.34</ele>
        <time>2020-08-22T12:32:07Z</time>
      </trkpt>
      <trkpt lat="42.49217" lon="1.59335">
        <ele>1871.34</ele>
        <time>2020-08-22T12:32:14Z</time>
      </trkpt>
      <trkpt lat="42.49219" lon="1.59326">
        <ele>1871.34</ele>
        <time>2020-08-22T12:32:21Z</time>
      </trkpt>
      <trkpt lat="42.49226" lon="1.59318">
        <ele>1870.38</ele>
        <time>2020-08-22T12:32:35Z</time>
      </trkpt>
      <trkpt lat="42.49228" lon="1.59306">
        <ele>1869.9</ele>
        <time>2020-08-22T12:32:48Z</time>
      </trkpt>
      <trkpt lat="42.49228" lon="1.59304">
        <ele>1869.42</ele>
        <time>2020-08-22T12:32:50Z</time>
      </trkpt>
      <trkpt lat="42.49231" lon="1.59298">
        <ele>1869.42</ele>
        <time>2020-08-22T12:32:59Z</time>
      </trkpt>
      <trkpt lat="42.49241" lon="1.59294">
        <ele>1868.94</ele>
        <time>2020-08-22T12:33:12Z</time>
      </trkpt>
      <trkpt lat="42.49246" lon="1.59286">
        <ele>1868.46</ele>
        <time>2020-08-22T12:33:23Z</time>
      </trkpt>
      <trkpt lat="42.49247" lon="1.59281">
        <ele>1868.46</ele>
        <time>2020-08-22T12:33:28Z</time>
      </trkpt>
      <trkpt lat="42.49249" lon="1.59262">
        <ele>1868.46</ele>
        <time>2020-08-22T12:33:43Z</time>
      </trkpt>
      <trkpt lat="42.49246" lon="1.59253">
        <ele>1867.5</ele>
        <time>2020-08-22T12:33:56Z</time>
      </trkpt>
      <trkpt lat="42.49247" lon="1.59252">
        <ele>1867.5</ele>
        <time>2020-08-22T12:33:58Z</time>
      </trkpt>
      <trkpt lat="42.4925" lon="1.59239">
        <ele>1866.54</ele>
        <time>2020-08-22T12:34:12Z</time>
      </trkpt>
      <trkpt lat="42.49258" lon="1.59226">
        <ele>1865.58</ele>
        <time>2020-08-22T12:34:27Z</time>
      </trkpt>
      <trkpt lat="42.49258" lon="1.59212">
        <ele>1865.58</ele>
        <time>2020-08-22T12:34:38Z</time>
      </trkpt>
      <trkpt lat="42.49264" lon="1.59203">
        <ele>1864.61</ele>
        <time>2020-08-22T12:34:50Z</time>
      </trkpt>
      <trkpt lat="42.49266" lon="1.59186">
        <ele>1863.65</ele>
        <time>2020-08-22T12:35:04Z</time>
      </trkpt>
      <trkpt lat="42.4927" lon="1.59169">
        <ele>1863.65</ele>
        <time>2020-08-22T12:35:17Z</time>
      </trkpt>
      <trkpt lat="42.49276" lon="1.59153">
        <ele>1863.65</ele>
        <time>2020-08-22T12:35:33Z</time>
      </trkpt>
      <trkpt lat="42.4928" lon="1.59144">
        <ele>1863.65</ele>
        <time>2020-08-22T12:35:44Z</time>
      </trkpt>
      <trkpt lat="42.49289" lon="1.5914">
        <ele>1864.61</ele>
        <time>2020-08-22T12:35:53Z</time>
      </trkpt>
      <trkpt lat="42.49297" lon="1.59133">
        <ele>1865.09</ele>
        <time>2020-08-22T12:36:04Z</time>
      </trkpt>
      <trkpt lat="42.49302" lon="1.59123">
        <ele>1863.17</ele>
        <time>2020-08-22T12:36:16Z</time>
      </trkpt>
      <trkpt lat="42.49315" lon="1.5912">
        <ele>1863.17</ele>
        <time>2020-08-22T12:36:29Z</time>
      </trkpt>
      <trkpt lat="42.49317" lon="1.5911">
        <ele>1862.21</ele>
        <time>2020-08-22T12:36:41Z</time>
      </trkpt>
      <trkpt lat="42.49321" lon="1.59094">
        <ele>1860.29</ele>
        <time>2020-08-22T12:36:56Z</time>
      </trkpt>
      <trkpt lat="42.49325" lon="1.59088">
        <ele>1858.85</ele>
        <time>2020-08-22T12:37:11Z</time>
      </trkpt>
      <trkpt lat="42.49328" lon="1.59082">
        <ele>1857.89</ele>
        <time>2020-08-22T12:37:25Z</time>
      </trkpt>
      <trkpt lat="42.49333" lon="1.59075">
        <ele>1856.44</ele>
        <time>2020-08-22T12:37:39Z</time>
      </trkpt>
      <trkpt lat="42.49339" lon="1.59068">
        <ele>1855.48</ele>
        <time>2020-08-22T12:37:53Z</time>
      </trkpt>
      <trkpt lat="42.49344" lon="1.59063">
        <ele>1855</ele>
        <time>2020-08-22T12:38:10Z</time>
      </trkpt>
      <trkpt lat="42.49349" lon="1.59049">
        <ele>1854.52</ele>
        <time>2020-08-22T12:38:22Z</time>
      </trkpt>
      <trkpt lat="42.49352" lon="1.59041">
        <ele>1853.56</ele>
        <time>2020-08-22T12:38:33Z</time>
      </trkpt>
      <trkpt lat="42.49352" lon="1.59032">
        <ele>1852.12</ele>
        <time>2020-08-22T12:38:45Z</time>
      </trkpt>
      <trkpt lat="42.49353" lon="1.59023">
        <ele>1850.19</ele>
        <time>2020-08-22T12:39:02Z</time>
      </trkpt>
      <trkpt lat="42.49356" lon="1.59009">
        <ele>1848.27</ele>
        <time>2020-08-22T12:39:21Z</time>
      </trkpt>
      <trkpt lat="42.49359" lon="1.58996">
        <ele>1847.31</ele>
        <time>2020-08-22T12:39:36Z</time>
      </trkpt>
      <trkpt lat="42.49362" lon="1.58993">
        <ele>1842.98</ele>
        <time>2020-08-22T12:39:41Z</time>
      </trkpt>
      <trkpt lat="42.49363" lon="1.58993">
        <ele>1848.27</ele>
        <time>2020-08-22T12:39:42Z</time>
      </trkpt>
      <trkpt lat="42.49366" lon="1.5899">
        <ele>1845.39</ele>
        <time>2020-08-22T12:39:45Z</time>
      </trkpt>
      <trkpt lat="42.49378" lon="1.58984">
        <ele>1845.39</ele>
        <time>2020-08-22T12:39:59Z</time>
      </trkpt>
      <trkpt lat="42.49384" lon="1.58979">
        <ele>1843.47</ele>
        <time>2020-08-22T12:40:14Z</time>
      </trkpt>
      <trkpt lat="42.49387" lon="1.58966">
        <ele>1842.5</ele>
        <time>2020-08-22T12:40:28Z</time>
      </trkpt>
      <trkpt lat="42.49395" lon="1.5896">
        <ele>1841.06</ele>
        <time>2020-08-22T12:40:44Z</time>
      </trkpt>
      <trkpt lat="42.49402" lon="1.58952">
        <ele>1839.62</ele>
        <time>2020-08-22T12:40:57Z</time>
      </trkpt>
      <trkpt lat="42.49407" lon="1.58944">
        <ele>1839.14</ele>
        <time>2020-08-22T12:41:08Z</time>
      </trkpt>
      <trkpt lat="42.49409" lon="1.58936">
        <ele>1838.18</ele>
        <time>2020-08-22T12:41:19Z</time>
      </trkpt>
      <trkpt lat="42.49412" lon="1.58926">
        <ele>1837.7</ele>
        <time>2020-08-22T12:41:29Z</time>
      </trkpt>
      <trkpt lat="42.49416" lon="1.58906">
        <ele>1837.7</ele>
        <time>2020-08-22T12:41:44Z</time>
      </trkpt>
      <trkpt lat="42.49415" lon="1.58897">
        <ele>1839.14</ele>
        <time>2020-08-22T12:41:48Z</time>
      </trkpt>
      <trkpt lat="42.49423" lon="1.58887">
        <ele>1839.14</ele>
        <time>2020-08-22T12:42:02Z</time>
      </trkpt>
      <trkpt lat="42.49431" lon="1.58873">
        <ele>1839.62</ele>
        <time>2020-08-22T12:42:15Z</time>
      </trkpt>
      <trkpt lat="42.49439" lon="1.58856">
        <ele>1839.62</ele>
        <time>2020-08-22T12:42:30Z</time>
      </trkpt>
      <trkpt lat="42.49448" lon="1.58846">
        <ele>1838.18</ele>
        <time>2020-08-22T12:42:44Z</time>
      </trkpt>
      <trkpt lat="42.49452" lon="1.5884">
        <ele>1838.18</ele>
        <time>2020-08-22T12:42:49Z</time>
      </trkpt>
      <trkpt lat="42.49461" lon="1.58828">
        <ele>1838.18</ele>
        <time>2020-08-22T12:43:02Z</time>
      </trkpt>
      <trkpt lat="42.49469" lon="1.58815">
        <ele>1838.18</ele>
        <time>2020-08-22T12:43:15Z</time>
      </trkpt>
      <trkpt lat="42.49477" lon="1.58807">
        <ele>1837.22</ele>
        <time>2020-08-22T12:43:29Z</time>
      </trkpt>
      <trkpt lat="42.49479" lon="1.58804">
        <ele>1837.22</ele>
        <time>2020-08-22T12:43:34Z</time>
      </trkpt>
      <trkpt lat="42.49489" lon="1.58789">
        <ele>1837.22</ele>
        <time>2020-08-22T12:43:48Z</time>
      </trkpt>
      <trkpt lat="42.49494" lon="1.58783">
        <ele>1837.22</ele>
        <time>2020-08-22T12:43:55Z</time>
      </trkpt>
      <trkpt lat="42.49502" lon="1.58779">
        <ele>1838.18</ele>
        <time>2020-08-22T12:44:04Z</time>
      </trkpt>
      <trkpt lat="42.49505" lon="1.58774">
        <ele>1838.18</ele>
        <time>2020-08-22T12:44:10Z</time>
      </trkpt>
      <trkpt lat="42.49513" lon="1.58762">
        <ele>1838.18</ele>
        <time>2020-08-22T12:44:24Z</time>
      </trkpt>
      <trkpt lat="42.49514" lon="1.58758">
        <ele>1836.74</ele>
        <time>2020-08-22T12:44:29Z</time>
      </trkpt>
      <trkpt lat="42.4952" lon="1.58746">
        <ele>1835.77</ele>
        <time>2020-08-22T12:44:41Z</time>
      </trkpt>
      <trkpt lat="42.49523" lon="1.58739">
        <ele>1835.29</ele>
        <time>2020-08-22T12:44:47Z</time>
      </trkpt>
      <trkpt lat="42.49531" lon="1.5873">
        <ele>1835.29</ele>
        <time>2020-08-22T12:45:01Z</time>
      </trkpt>
      <trkpt lat="42.49534" lon="1.58711">
        <ele>1835.29</ele>
        <time>2020-08-22T12:45:15Z</time>
      </trkpt>
      <trkpt lat="42.49541" lon="1.58697">
        <ele>1832.89</ele>
        <time>2020-08-22T12:45:29Z</time>
      </trkpt>
      <trkpt lat="42.49549" lon="1.58682">
        <ele>1834.33</ele>
        <time>2020-08-22T12:45:45Z</time>
      </trkpt>
      <trkpt lat="42.49552" lon="1.58669">
        <ele>1835.29</ele>
        <time>2020-08-22T12:45:58Z</time>
      </trkpt>
      <trkpt lat="42.49556" lon="1.58652">
        <ele>1835.77</ele>
        <time>2020-08-22T12:46:10Z</time>
      </trkpt>
      <trkpt lat="42.49557" lon="1.58638">
        <ele>1835.77</ele>
        <time>2020-08-22T12:46:24Z</time>
      </trkpt>
      <trkpt lat="42.49559" lon="1.58622">
        <ele>1834.33</ele>
        <time>2020-08-22T12:46:36Z</time>
      </trkpt>
      <trkpt lat="42.49564" lon="1.5861">
        <ele>1832.41</ele>
        <time>2020-08-22T12:46:48Z</time>
      </trkpt>
      <trkpt lat="42.49569" lon="1.58605">
        <ele>1831.45</ele>
        <time>2020-08-22T12:47:03Z</time>
      </trkpt>
      <trkpt lat="42.49573" lon="1.58591">
        <ele>1830.49</ele>
        <time>2020-08-22T12:47:16Z</time>
      </trkpt>
      <trkpt lat="42.49578" lon="1.58583">
        <ele>1829.53</ele>
        <time>2020-08-22T12:47:26Z</time>
      </trkpt>
      <trkpt lat="42.49587" lon="1.58573">
        <ele>1829.05</ele>
        <time>2020-08-22T12:47:42Z</time>
      </trkpt>
      <trkpt lat="42.49595" lon="1.58567">
        <ele>1828.08</ele>
        <time>2020-08-22T12:47:54Z</time>
      </trkpt>
      <trkpt lat="42.49602" lon="1.58557">
        <ele>1830.49</ele>
        <time>2020-08-22T12:48:08Z</time>
      </trkpt>
      <trkpt lat="42.49602" lon="1.58556">
        <ele>1829.05</ele>
        <time>2020-08-22T12:48:10Z</time>
      </trkpt>
      <trkpt lat="42.49608" lon="1.58549">
        <ele>1829.05</ele>
        <time>2020-08-22T12:48:23Z</time>
      </trkpt>
      <trkpt lat="42.49614" lon="1.58548">
        <ele>1830.49</ele>
        <time>2020-08-22T12:48:32Z</time>
      </trkpt>
      <trkpt lat="42.49627" lon="1.58549">
        <ele>1832.89</ele>
        <time>2020-08-22T12:48:49Z</time>
      </trkpt>
      <trkpt lat="42.4964" lon="1.58546">
        <ele>1834.81</ele>
        <time>2020-08-22T12:49:08Z</time>
      </trkpt>
      <trkpt lat="42.49649" lon="1.58539">
        <ele>1836.74</ele>
        <time>2020-08-22T12:49:24Z</time>
      </trkpt>
      <trkpt lat="42.49652" lon="1.58536">
        <ele>1837.7</ele>
        <time>2020-08-22T12:49:37Z</time>
      </trkpt>
      <trkpt lat="42.49658" lon="1.58532">
        <ele>1836.74</ele>
        <time>2020-08-22T12:49:44Z</time>
      </trkpt>
      <trkpt lat="42.49664" lon="1.58527">
        <ele>1835.29</ele>
        <time>2020-08-22T12:49:59Z</time>
      </trkpt>
      <trkpt lat="42.49668" lon="1.58523">
        <ele>1834.81</ele>
        <time>2020-08-22T12:50:13Z</time>
      </trkpt>
      <trkpt lat="42.4967" lon="1.58517">
        <ele>1833.85</ele>
        <time>2020-08-22T12:50:27Z</time>
      </trkpt>
      <trkpt lat="42.49674" lon="1.58507">
        <ele>1832.41</ele>
        <time>2020-08-22T12:50:42Z</time>
      </trkpt>
      <trkpt lat="42.49679" lon="1.58496">
        <ele>1830.97</ele>
        <time>2020-08-22T12:50:56Z</time>
      </trkpt>
      <trkpt lat="42.49685" lon="1.58489">
        <ele>1829.05</ele>
        <time>2020-08-22T12:51:11Z</time>
      </trkpt>
      <trkpt lat="42.49692" lon="1.58483">
        <ele>1828.56</ele>
        <time>2020-08-22T12:51:25Z</time>
      </trkpt>
      <trkpt lat="42.49699" lon="1.58474">
        <ele>1828.08</ele>
        <time>2020-08-22T12:51:42Z</time>
      </trkpt>
      <trkpt lat="42.49705" lon="1.58461">
        <ele>1830.01</ele>
        <time>2020-08-22T12:51:58Z</time>
      </trkpt>
      <trkpt lat="42.49707" lon="1.58456">
        <ele>1830.01</ele>
        <time>2020-08-22T12:52:13Z</time>
      </trkpt>
      <trkpt lat="42.49713" lon="1.58448">
        <ele>1830.49</ele>
        <time>2020-08-22T12:52:29Z</time>
      </trkpt>
      <trkpt lat="42.49716" lon="1.58435">
        <ele>1833.37</ele>
        <time>2020-08-22T12:52:45Z</time>
      </trkpt>
      <trkpt lat="42.4972" lon="1.58431">
        <ele>1833.85</ele>
        <time>2020-08-22T12:53:00Z</time>
      </trkpt>
      <trkpt lat="42.49723" lon="1.5842">
        <ele>1833.37</ele>
        <time>2020-08-22T12:53:15Z</time>
      </trkpt>
      <trkpt lat="42.49722" lon="1.58415">
        <ele>1832.41</ele>
        <time>2020-08-22T12:53:20Z</time>
      </trkpt>
      <trkpt lat="42.49724" lon="1.58404">
        <ele>1831.45</ele>
        <time>2020-08-22T12:53:34Z</time>
      </trkpt>
      <trkpt lat="42.4973" lon="1.58402">
        <ele>1830.01</ele>
        <time>2020-08-22T12:53:46Z</time>
      </trkpt>
      <trkpt lat="42.49734" lon="1.584">
        <ele>1829.05</ele>
        <time>2020-08-22T12:53:53Z</time>
      </trkpt>
      <trkpt lat="42.49738" lon="1.58399">
        <ele>1829.05</ele>
        <time>2020-08-22T12:53:57Z</time>
      </trkpt>
      <trkpt lat="42.49749" lon="1.58402">
        <ele>1829.05</ele>
        <time>2020-08-22T12:54:12Z</time>
      </trkpt>
      <trkpt lat="42.49756" lon="1.58392">
        <ele>1826.64</ele>
        <time>2020-08-22T12:54:28Z</time>
      </trkpt>
      <trkpt lat="42.49764" lon="1.58382">
        <ele>1825.68</ele>
        <time>2020-08-22T12:54:41Z</time>
      </trkpt>
      <trkpt lat="42.49765" lon="1.58381">
        <ele>1825.68</ele>
        <time>2020-08-22T12:54:43Z</time>
      </trkpt>
      <trkpt lat="42.49771" lon="1.58368">
        <ele>1825.2</ele>
        <time>2020-08-22T12:54:58Z</time>
      </trkpt>
      <trkpt lat="42.49778" lon="1.58358">
        <ele>1825.2</ele>
        <time>2020-08-22T12:55:14Z</time>
      </trkpt>
      <trkpt lat="42.49778" lon="1.58345">
        <ele>1824.24</ele>
        <time>2020-08-22T12:55:28Z</time>
      </trkpt>
      <trkpt lat="42.4978" lon="1.58334">
        <ele>1822.8</ele>
        <time>2020-08-22T12:55:42Z</time>
      </trkpt>
      <trkpt lat="42.49785" lon="1.58323">
        <ele>1822.8</ele>
        <time>2020-08-22T12:55:57Z</time>
      </trkpt>
      <trkpt lat="42.49788" lon="1.58314">
        <ele>1822.8</ele>
        <time>2020-08-22T12:56:11Z</time>
      </trkpt>
      <trkpt lat="42.49792" lon="1.58303">
        <ele>1822.8</ele>
        <time>2020-08-22T12:56:25Z</time>
      </trkpt>
      <trkpt lat="42.49796" lon="1.58291">
        <ele>1822.32</ele>
        <time>2020-08-22T12:56:39Z</time>
      </trkpt>
      <trkpt lat="42.498" lon="1.58282">
        <ele>1820.87</ele>
        <time>2020-08-22T12:56:52Z</time>
      </trkpt>
      <trkpt lat="42.498" lon="1.58273">
        <ele>1819.43</ele>
        <time>2020-08-22T12:57:05Z</time>
      </trkpt>
      <trkpt lat="42.49804" lon="1.58262">
        <ele>1818.95</ele>
        <time>2020-08-22T12:57:18Z</time>
      </trkpt>
      <trkpt lat="42.49805" lon="1.5825">
        <ele>1817.99</ele>
        <time>2020-08-22T12:57:32Z</time>
      </trkpt>
      <trkpt lat="42.49807" lon="1.5824">
        <ele>1816.55</ele>
        <time>2020-08-22T12:57:49Z</time>
      </trkpt>
      <trkpt lat="42.49811" lon="1.58231">
        <ele>1816.07</ele>
        <time>2020-08-22T12:58:03Z</time>
      </trkpt>
      <trkpt lat="42.49813" lon="1.58223">
        <ele>1814.63</ele>
        <time>2020-08-22T12:58:17Z</time>
      </trkpt>
      <trkpt lat="42.49817" lon="1.58213">
        <ele>1813.66</ele>
        <time>2020-08-22T12:58:32Z</time>
      </trkpt>
      <trkpt lat="42.49822" lon="1.58211">
        <ele>1813.66</ele>
        <time>2020-08-22T12:58:45Z</time>
      </trkpt>
      <trkpt lat="42.49823" lon="1.58209">
        <ele>1813.66</ele>
        <time>2020-08-22T12:58:48Z</time>
      </trkpt>
      <trkpt lat="42.4983" lon="1.58202">
        <ele>1814.15</ele>
        <time>2020-08-22T12:59:02Z</time>
      </trkpt>
      <trkpt lat="42.49833" lon="1.58197">
        <ele>1812.7</ele>
        <time>2020-08-22T12:59:09Z</time>
      </trkpt>
      <trkpt lat="42.49835" lon="1.58183">
        <ele>1811.26</ele>
        <time>2020-08-22T12:59:24Z</time>
      </trkpt>
      <trkpt lat="42.49842" lon="1.58171">
        <ele>1810.78</ele>
        <time>2020-08-22T12:59:41Z</time>
      </trkpt>
      <trkpt lat="42.49851" lon="1.58161">
        <ele>1809.34</ele>
        <time>2020-08-22T12:59:57Z</time>
      </trkpt>
      <trkpt lat="42.49858" lon="1.58146">
        <ele>1808.38</ele>
        <time>2020-08-22T13:00:14Z</time>
      </trkpt>
      <trkpt lat="42.49865" lon="1.58133">
        <ele>1807.9</ele>
        <time>2020-08-22T13:00:30Z</time>
      </trkpt>
      <trkpt lat="42.49874" lon="1.58124">
        <ele>1807.9</ele>
        <time>2020-08-22T13:00:44Z</time>
      </trkpt>
      <trkpt lat="42.49884" lon="1.58119">
        <ele>1807.42</ele>
        <time>2020-08-22T13:01:00Z</time>
      </trkpt>
      <trkpt lat="42.49887" lon="1.58117">
        <ele>1808.86</ele>
        <time>2020-08-22T13:01:07Z</time>
      </trkpt>
      <trkpt lat="42.49893" lon="1.5811">
        <ele>1809.82</ele>
        <time>2020-08-22T13:01:24Z</time>
      </trkpt>
      <trkpt lat="42.49897" lon="1.58094">
        <ele>1809.82</ele>
        <time>2020-08-22T13:01:38Z</time>
      </trkpt>
      <trkpt lat="42.49896" lon="1.58087">
        <ele>1808.38</ele>
        <time>2020-08-22T13:01:48Z</time>
      </trkpt>
      <trkpt lat="42.49898" lon="1.58078">
        <ele>1810.3</ele>
        <time>2020-08-22T13:02:02Z</time>
      </trkpt>
      <trkpt lat="42.49899" lon="1.58064">
        <ele>1811.26</ele>
        <time>2020-08-22T13:02:22Z</time>
      </trkpt>
      <trkpt lat="42.49898" lon="1.58054">
        <ele>1809.82</ele>
        <time>2020-08-22T13:02:36Z</time>
      </trkpt>
      <trkpt lat="42.49899" lon="1.58034">
        <ele>1808.38</ele>
        <time>2020-08-22T13:02:54Z</time>
      </trkpt>
      <trkpt lat="42.49903" lon="1.58024">
        <ele>1808.38</ele>
        <time>2020-08-22T13:03:10Z</time>
      </trkpt>
      <trkpt lat="42.49909" lon="1.58017">
        <ele>1808.38</ele>
        <time>2020-08-22T13:03:26Z</time>
      </trkpt>
      <trkpt lat="42.49909" lon="1.58017">
        <ele>1809.82</ele>
        <time>2020-08-22T13:03:27Z</time>
      </trkpt>
      <trkpt lat="42.49914" lon="1.58">
        <ele>1809.82</ele>
        <time>2020-08-22T13:03:42Z</time>
      </trkpt>
      <trkpt lat="42.49918" lon="1.57992">
        <ele>1807.42</ele>
        <time>2020-08-22T13:03:55Z</time>
      </trkpt>
      <trkpt lat="42.49921" lon="1.57985">
        <ele>1806.94</ele>
        <time>2020-08-22T13:04:08Z</time>
      </trkpt>
      <trkpt lat="42.49922" lon="1.57967">
        <ele>1805.97</ele>
        <time>2020-08-22T13:04:23Z</time>
      </trkpt>
      <trkpt lat="42.49924" lon="1.57952">
        <ele>1805.49</ele>
        <time>2020-08-22T13:04:38Z</time>
      </trkpt>
      <trkpt lat="42.49927" lon="1.57944">
        <ele>1805.49</ele>
        <time>2020-08-22T13:04:51Z</time>
      </trkpt>
      <trkpt lat="42.49929" lon="1.57938">
        <ele>1806.94</ele>
        <time>2020-08-22T13:04:56Z</time>
      </trkpt>
      <trkpt lat="42.49934" lon="1.57927">
        <ele>1804.05</ele>
        <time>2020-08-22T13:05:09Z</time>
      </trkpt>
      <trkpt lat="42.49934" lon="1.57926">
        <ele>1810.78</ele>
        <time>2020-08-22T13:05:10Z</time>
      </trkpt>
      <trkpt lat="42.49934" lon="1.57925">
        <ele>1809.34</ele>
        <time>2020-08-22T13:05:11Z</time>
      </trkpt>
      <trkpt lat="42.49936" lon="1.57919">
        <ele>1809.34</ele>
        <time>2020-08-22T13:05:20Z</time>
      </trkpt>
      <trkpt lat="42.49936" lon="1.57916">
        <ele>1807.9</ele>
        <time>2020-08-22T13:05:24Z</time>
      </trkpt>
      <trkpt lat="42.49937" lon="1.57914">
        <ele>1809.34</ele>
        <time>2020-08-22T13:05:28Z</time>
      </trkpt>
      <trkpt lat="42.4994" lon="1.57906">
        <ele>1808.86</ele>
        <time>2020-08-22T13:05:41Z</time>
      </trkpt>
      <trkpt lat="42.49946" lon="1.57895">
        <ele>1809.82</ele>
        <time>2020-08-22T13:05:54Z</time>
      </trkpt>
      <trkpt lat="42.49948" lon="1.57886">
        <ele>1810.3</ele>
        <time>2020-08-22T13:06:08Z</time>
      </trkpt>
      <trkpt lat="42.49948" lon="1.57884">
        <ele>1808.38</ele>
        <time>2020-08-22T13:06:12Z</time>
      </trkpt>
      <trkpt lat="42.49949" lon="1.57874">
        <ele>1806.94</ele>
        <time>2020-08-22T13:06:27Z</time>
      </trkpt>
      <trkpt lat="42.49948" lon="1.57868">
        <ele>1806.94</ele>
        <time>2020-08-22T13:06:33Z</time>
      </trkpt>
      <trkpt lat="42.49951" lon="1.57858">
        <ele>1806.94</ele>
        <time>2020-08-22T13:06:46Z</time>
      </trkpt>
      <trkpt lat="42.49955" lon="1.57848">
        <ele>1806.94</ele>
        <time>2020-08-22T13:06:57Z</time>
      </trkpt>
      <trkpt lat="42.49955" lon="1.57847">
        <ele>1807.9</ele>
        <time>2020-08-22T13:06:58Z</time>
      </trkpt>
      <trkpt lat="42.49957" lon="1.57832">
        <ele>1807.9</ele>
        <time>2020-08-22T13:07:14Z</time>
      </trkpt>
      <trkpt lat="42.49957" lon="1.57823">
        <ele>1806.45</ele>
        <time>2020-08-22T13:07:29Z</time>
      </trkpt>
      <trkpt lat="42.49955" lon="1.57819">
        <ele>1806.45</ele>
        <time>2020-08-22T13:07:47Z</time>
      </trkpt>
      <trkpt lat="42.49952" lon="1.57812">
        <ele>1807.42</ele>
        <time>2020-08-22T13:08:18Z</time>
      </trkpt>
      <trkpt lat="42.49955" lon="1.57808">
        <ele>1805.97</ele>
        <time>2020-08-22T13:08:26Z</time>
      </trkpt>
      <trkpt lat="42.49962" lon="1.57795">
        <ele>1804.53</ele>
        <time>2020-08-22T13:08:43Z</time>
      </trkpt>
      <trkpt lat="42.49968" lon="1.57785">
        <ele>1804.53</ele>
        <time>2020-08-22T13:08:58Z</time>
      </trkpt>
      <trkpt lat="42.49971" lon="1.57774">
        <ele>1804.05</ele>
        <time>2020-08-22T13:09:11Z</time>
      </trkpt>
      <trkpt lat="42.49972" lon="1.57764">
        <ele>1803.09</ele>
        <time>2020-08-22T13:09:26Z</time>
      </trkpt>
      <trkpt lat="42.49974" lon="1.57758">
        <ele>1802.13</ele>
        <time>2020-08-22T13:09:42Z</time>
      </trkpt>
      <trkpt lat="42.49975" lon="1.57748">
        <ele>1801.65</ele>
        <time>2020-08-22T13:09:54Z</time>
      </trkpt>
      <trkpt lat="42.49973" lon="1.57739">
        <ele>1799.73</ele>
        <time>2020-08-22T13:10:10Z</time>
      </trkpt>
      <trkpt lat="42.49973" lon="1.57728">
        <ele>1798.76</ele>
        <time>2020-08-22T13:10:24Z</time>
      </trkpt>
      <trkpt lat="42.49975" lon="1.57718">
        <ele>1798.28</ele>
        <time>2020-08-22T13:10:40Z</time>
      </trkpt>
      <trkpt lat="42.49975" lon="1.57705">
        <ele>1800.21</ele>
        <time>2020-08-22T13:10:54Z</time>
      </trkpt>
      <trkpt lat="42.49978" lon="1.57693">
        <ele>1798.76</ele>
        <time>2020-08-22T13:11:07Z</time>
      </trkpt>
      <trkpt lat="42.49979" lon="1.57677">
        <ele>1798.28</ele>
        <time>2020-08-22T13:11:24Z</time>
      </trkpt>
      <trkpt lat="42.49975" lon="1.57665">
        <ele>1795.88</ele>
        <time>2020-08-22T13:11:39Z</time>
      </trkpt>
      <trkpt lat="42.49973" lon="1.57655">
        <ele>1797.32</ele>
        <time>2020-08-22T13:11:51Z</time>
      </trkpt>
      <trkpt lat="42.49973" lon="1.57654">
        <ele>1797.32</ele>
        <time>2020-08-22T13:11:52Z</time>
      </trkpt>
      <trkpt lat="42.49972" lon="1.5765">
        <ele>1795.88</ele>
        <time>2020-08-22T13:11:55Z</time>
      </trkpt>
      <trkpt lat="42.4997" lon="1.57637">
        <ele>1794.92</ele>
        <time>2020-08-22T13:12:08Z</time>
      </trkpt>
      <trkpt lat="42.49972" lon="1.57626">
        <ele>1794.92</ele>
        <time>2020-08-22T13:12:22Z</time>
      </trkpt>
      <trkpt lat="42.49972" lon="1.57625">
        <ele>1798.28</ele>
        <time>2020-08-22T13:12:25Z</time>
      </trkpt>
      <trkpt lat="42.49972" lon="1.57624">
        <ele>1791.55</ele>
        <time>2020-08-22T13:12:26Z</time>
      </trkpt>
      <trkpt lat="42.49972" lon="1.57624">
        <ele>1791.55</ele>
        <time>2020-08-22T13:12:27Z</time>
      </trkpt>
      <trkpt lat="42.49972" lon="1.57624">
        <ele>1802.61</ele>
        <time>2020-08-22T13:12:28Z</time>
      </trkpt>
      <trkpt lat="42.49973" lon="1.57623">
        <ele>1797.8</ele>
        <time>2020-08-22T13:12:29Z</time>
      </trkpt>
      <trkpt lat="42.49974" lon="1.57615">
        <ele>1794.44</ele>
        <time>2020-08-22T13:12:38Z</time>
      </trkpt>
      <trkpt lat="42.49974" lon="1.57603">
        <ele>1793.96</ele>
        <time>2020-08-22T13:12:51Z</time>
      </trkpt>
      <trkpt lat="42.49977" lon="1.57586">
        <ele>1792.52</ele>
        <time>2020-08-22T13:13:07Z</time>
      </trkpt>
      <trkpt lat="42.49978" lon="1.57572">
        <ele>1794.44</ele>
        <time>2020-08-22T13:13:21Z</time>
      </trkpt>
      <trkpt lat="42.49979" lon="1.57558">
        <ele>1795.88</ele>
        <time>2020-08-22T13:13:35Z</time>
      </trkpt>
      <trkpt lat="42.49979" lon="1.57557">
        <ele>1793.96</ele>
        <time>2020-08-22T13:13:37Z</time>
      </trkpt>
      <trkpt lat="42.4998" lon="1.57548">
        <ele>1793.96</ele>
        <time>2020-08-22T13:13:49Z</time>
      </trkpt>
      <trkpt lat="42.4998" lon="1.57532">
        <ele>1792.52</ele>
        <time>2020-08-22T13:14:02Z</time>
      </trkpt>
      <trkpt lat="42.49979" lon="1.57519">
        <ele>1793.96</ele>
        <time>2020-08-22T13:14:15Z</time>
      </trkpt>
      <trkpt lat="42.49973" lon="1.57509">
        <ele>1794.92</ele>
        <time>2020-08-22T13:14:31Z</time>
      </trkpt>
      <trkpt lat="42.49967" lon="1.57494">
        <ele>1797.8</ele>
        <time>2020-08-22T13:14:44Z</time>
      </trkpt>
      <trkpt lat="42.49966" lon="1.57493">
        <ele>1799.24</ele>
        <time>2020-08-22T13:15:01Z</time>
      </trkpt>
      <trkpt lat="42.49968" lon="1.57479">
        <ele>1799.73</ele>
        <time>2020-08-22T13:15:17Z</time>
      </trkpt>
      <trkpt lat="42.4997" lon="1.57479">
        <ele>1801.65</ele>
        <time>2020-08-22T13:15:33Z</time>
      </trkpt>
      <trkpt lat="42.49977" lon="1.57489">
        <ele>1803.57</ele>
        <time>2020-08-22T13:15:51Z</time>
      </trkpt>
      <trkpt lat="42.49984" lon="1.575">
        <ele>1805.97</ele>
        <time>2020-08-22T13:16:07Z</time>
      </trkpt>
      <trkpt lat="42.49987" lon="1.57487">
        <ele>1808.38</ele>
        <time>2020-08-22T13:16:23Z</time>
      </trkpt>
      <trkpt lat="42.49987" lon="1.57473">
        <ele>1810.3</ele>
        <time>2020-08-22T13:16:39Z</time>
      </trkpt>
      <trkpt lat="42.49989" lon="1.57465">
        <ele>1813.18</ele>
        <time>2020-08-22T13:16:55Z</time>
      </trkpt>
      <trkpt lat="42.4999" lon="1.5745">
        <ele>1815.59</ele>
        <time>2020-08-22T13:17:12Z</time>
      </trkpt>
      <trkpt lat="42.49995" lon="1.57446">
        <ele>1817.51</ele>
        <time>2020-08-22T13:17:28Z</time>
      </trkpt>
      <trkpt lat="42.49995" lon="1.57441">
        <ele>1817.03</ele>
        <time>2020-08-22T13:17:48Z</time>
      </trkpt>
      <trkpt lat="42.49995" lon="1.57428">
        <ele>1818.95</ele>
        <time>2020-08-22T13:18:05Z</time>
      </trkpt>
      <trkpt lat="42.49999" lon="1.57412">
        <ele>1820.39</ele>
        <time>2020-08-22T13:18:23Z</time>
      </trkpt>
      <trkpt lat="42.50003" lon="1.57394">
        <ele>1820.39</ele>
        <time>2020-08-22T13:18:38Z</time>
      </trkpt>
      <trkpt lat="42.50005" lon="1.57373">
        <ele>1820.39</ele>
        <time>2020-08-22T13:18:53Z</time>
      </trkpt>
      <trkpt lat="42.50006" lon="1.5735">
        <ele>1820.87</ele>
        <time>2020-08-22T13:19:10Z</time>
      </trkpt>
      <trkpt lat="42.50006" lon="1.57347">
        <ele>1819.43</ele>
        <time>2020-08-22T13:19:12Z</time>
      </trkpt>
      <trkpt lat="42.50005" lon="1.57331">
        <ele>1818.47</ele>
        <time>2020-08-22T13:19:27Z</time>
      </trkpt>
      <trkpt lat="42.50011" lon="1.5732">
        <ele>1816.55</ele>
        <time>2020-08-22T13:19:43Z</time>
      </trkpt>
      <trkpt lat="42.50016" lon="1.57315">
        <ele>1815.59</ele>
        <time>2020-08-22T13:19:54Z</time>
      </trkpt>
      <trkpt lat="42.50022" lon="1.57302">
        <ele>1813.66</ele>
        <time>2020-08-22T13:20:15Z</time>
      </trkpt>
      <trkpt lat="42.50021" lon="1.57289">
        <ele>1812.22</ele>
        <time>2020-08-22T13:20:29Z</time>
      </trkpt>
      <trkpt lat="42.50022" lon="1.57285">
        <ele>1811.26</ele>
        <time>2020-08-22T13:20:49Z</time>
      </trkpt>
      <trkpt lat="42.50026" lon="1.57275">
        <ele>1809.34</ele>
        <time>2020-08-22T13:21:09Z</time>
      </trkpt>
      <trkpt lat="42.5003" lon="1.5727">
        <ele>1807.42</ele>
        <time>2020-08-22T13:21:27Z</time>
      </trkpt>
      <trkpt lat="42.50029" lon="1.57264">
        <ele>1807.42</ele>
        <time>2020-08-22T13:21:52Z</time>
      </trkpt>
      <trkpt lat="42.50037" lon="1.57261">
        <ele>1805.49</ele>
        <time>2020-08-22T13:22:11Z</time>
      </trkpt>
      <trkpt lat="42.50036" lon="1.57255">
        <ele>1804.05</ele>
        <time>2020-08-22T13:22:27Z</time>
      </trkpt>
      <trkpt lat="42.50034" lon="1.57249">
        <ele>1803.09</ele>
        <time>2020-08-22T13:22:42Z</time>
      </trkpt>
      <trkpt lat="42.50028" lon="1.57239">
        <ele>1801.65</ele>
        <time>2020-08-22T13:22:59Z</time>
      </trkpt>
      <trkpt lat="42.50029" lon="1.57227">
        <ele>1799.73</ele>
        <time>2020-08-22T13:23:22Z</time>
      </trkpt>
      <trkpt lat="42.50029" lon="1.57215">
        <ele>1799.24</ele>
        <time>2020-08-22T13:23:41Z</time>
      </trkpt>
      <trkpt lat="42.50033" lon="1.57204">
        <ele>1799.24</ele>
        <time>2020-08-22T13:23:57Z</time>
      </trkpt>
      <trkpt lat="42.50034" lon="1.57192">
        <ele>1797.8</ele>
        <time>2020-08-22T13:24:16Z</time>
      </trkpt>
      <trkpt lat="42.50037" lon="1.57183">
        <ele>1796.84</ele>
        <time>2020-08-22T13:24:23Z</time>
      </trkpt>
      <trkpt lat="42.50036" lon="1.57173">
        <ele>1795.88</ele>
        <time>2020-08-22T13:24:40Z</time>
      </trkpt>
      <trkpt lat="42.50036" lon="1.57169">
        <ele>1796.36</ele>
        <time>2020-08-22T13:24:44Z</time>
      </trkpt>
      <trkpt lat="42.50037" lon="1.57159">
        <ele>1796.84</ele>
        <time>2020-08-22T13:24:53Z</time>
      </trkpt>
      <trkpt lat="42.50038" lon="1.57157">
        <ele>1795.4</ele>
        <time>2020-08-22T13:24:55Z</time>
      </trkpt>
      <trkpt lat="42.50038" lon="1.57153">
        <ele>1796.84</ele>
        <time>2020-08-22T13:25:01Z</time>
      </trkpt>
      <trkpt lat="42.5004" lon="1.57141">
        <ele>1798.28</ele>
        <time>2020-08-22T13:25:14Z</time>
      </trkpt>
      <trkpt lat="42.50044" lon="1.57129">
        <ele>1794.44</ele>
        <time>2020-08-22T13:25:28Z</time>
      </trkpt>
      <trkpt lat="42.50044" lon="1.57128">
        <ele>1797.8</ele>
        <time>2020-08-22T13:25:29Z</time>
      </trkpt>
      <trkpt lat="42.50045" lon="1.57126">
        <ele>1794.44</ele>
        <time>2020-08-22T13:25:32Z</time>
      </trkpt>
      <trkpt lat="42.50049" lon="1.57112">
        <ele>1794.92</ele>
        <time>2020-08-22T13:25:47Z</time>
      </trkpt>
      <trkpt lat="42.50053" lon="1.57099">
        <ele>1793</ele>
        <time>2020-08-22T13:26:02Z</time>
      </trkpt>
      <trkpt lat="42.50057" lon="1.57087">
        <ele>1792.52</ele>
        <time>2020-08-22T13:26:16Z</time>
      </trkpt>
      <trkpt lat="42.50059" lon="1.57068">
        <ele>1792.52</ele>
        <time>2020-08-22T13:26:30Z</time>
      </trkpt>
      <trkpt lat="42.50064" lon="1.57049">
        <ele>1792.03</ele>
        <time>2020-08-22T13:26:44Z</time>
      </trkpt>
      <trkpt lat="42.50064" lon="1.57034">
        <ele>1791.07</ele>
        <time>2020-08-22T13:27:01Z</time>
      </trkpt>
      <trkpt lat="42.50062" lon="1.57027">
        <ele>1790.59</ele>
        <time>2020-08-22T13:27:15Z</time>
      </trkpt>
      <trkpt lat="42.50062" lon="1.57011">
        <ele>1789.15</ele>
        <time>2020-08-22T13:27:30Z</time>
      </trkpt>
      <trkpt lat="42.50064" lon="1.56995">
        <ele>1790.59</ele>
        <time>2020-08-22T13:27:45Z</time>
      </trkpt>
      <trkpt lat="42.50064" lon="1.56992">
        <ele>1789.15</ele>
        <time>2020-08-22T13:27:48Z</time>
      </trkpt>
      <trkpt lat="42.50067" lon="1.56986">
        <ele>1788.19</ele>
        <time>2020-08-22T13:28:05Z</time>
      </trkpt>
      <trkpt lat="42.50069" lon="1.5698">
        <ele>1786.27</ele>
        <time>2020-08-22T13:28:30Z</time>
      </trkpt>
      <trkpt lat="42.50074" lon="1.56976">
        <ele>1784.34</ele>
        <time>2020-08-22T13:28:46Z</time>
      </trkpt>
      <trkpt lat="42.50077" lon="1.56967">
        <ele>1785.31</ele>
        <time>2020-08-22T13:29:01Z</time>
      </trkpt>
      <trkpt lat="42.50073" lon="1.56953">
        <ele>1786.27</ele>
        <time>2020-08-22T13:29:21Z</time>
      </trkpt>
      <trkpt lat="42.50071" lon="1.56937">
        <ele>1786.27</ele>
        <time>2020-08-22T13:29:35Z</time>
      </trkpt>
      <trkpt lat="42.50071" lon="1.56922">
        <ele>1786.75</ele>
        <time>2020-08-22T13:29:47Z</time>
      </trkpt>
      <trkpt lat="42.50076" lon="1.56907">
        <ele>1786.75</ele>
        <time>2020-08-22T13:30:03Z</time>
      </trkpt>
      <trkpt lat="42.50077" lon="1.56906">
        <ele>1785.79</ele>
        <time>2020-08-22T13:30:05Z</time>
      </trkpt>
      <trkpt lat="42.50079" lon="1.56895">
        <ele>1784.34</ele>
        <time>2020-08-22T13:30:18Z</time>
      </trkpt>
      <trkpt lat="42.5008" lon="1.56882">
        <ele>1783.38</ele>
        <time>2020-08-22T13:30:33Z</time>
      </trkpt>
      <trkpt lat="42.5008" lon="1.56872">
        <ele>1782.42</ele>
        <time>2020-08-22T13:30:51Z</time>
      </trkpt>
      <trkpt lat="42.50085" lon="1.56857">
        <ele>1781.94</ele>
        <time>2020-08-22T13:31:08Z</time>
      </trkpt>
      <trkpt lat="42.50087" lon="1.56853">
        <ele>1779.54</ele>
        <time>2020-08-22T13:31:23Z</time>
      </trkpt>
      <trkpt lat="42.50091" lon="1.56841">
        <ele>1778.1</ele>
        <time>2020-08-22T13:31:39Z</time>
      </trkpt>
      <trkpt lat="42.50095" lon="1.56833">
        <ele>1776.65</ele>
        <time>2020-08-22T13:31:52Z</time>
      </trkpt>
      <trkpt lat="42.50099" lon="1.56827">
        <ele>1775.21</ele>
        <time>2020-08-22T13:32:05Z</time>
      </trkpt>
      <trkpt lat="42.50105" lon="1.56823">
        <ele>1773.77</ele>
        <time>2020-08-22T13:32:20Z</time>
      </trkpt>
      <trkpt lat="42.50104" lon="1.56811">
        <ele>1773.29</ele>
        <time>2020-08-22T13:32:44Z</time>
      </trkpt>
      <trkpt lat="42.50106" lon="1.56808">
        <ele>1774.73</ele>
        <time>2020-08-22T13:32:48Z</time>
      </trkpt>
      <trkpt lat="42.50109" lon="1.56795">
        <ele>1774.73</ele>
        <time>2020-08-22T13:33:02Z</time>
      </trkpt>
      <trkpt lat="42.5011" lon="1.5678">
        <ele>1775.69</ele>
        <time>2020-08-22T13:33:15Z</time>
      </trkpt>
      <trkpt lat="42.50111" lon="1.56756">
        <ele>1774.73</ele>
        <time>2020-08-22T13:33:32Z</time>
      </trkpt>
      <trkpt lat="42.50111" lon="1.56755">
        <ele>1774.73</ele>
        <time>2020-08-22T13:33:33Z</time>
      </trkpt>
      <trkpt lat="42.50111" lon="1.56743">
        <ele>1776.17</ele>
        <time>2020-08-22T13:33:44Z</time>
      </trkpt>
      <trkpt lat="42.50114" lon="1.56735">
        <ele>1778.1</ele>
        <time>2020-08-22T13:34:00Z</time>
      </trkpt>
      <trkpt lat="42.50116" lon="1.56725">
        <ele>1780.02</ele>
        <time>2020-08-22T13:34:15Z</time>
      </trkpt>
      <trkpt lat="42.50116" lon="1.56717">
        <ele>1781.94</ele>
        <time>2020-08-22T13:34:28Z</time>
      </trkpt>
      <trkpt lat="42.50118" lon="1.5672">
        <ele>1783.38</ele>
        <time>2020-08-22T13:34:39Z</time>
      </trkpt>
      <trkpt lat="42.50116" lon="1.56713">
        <ele>1785.79</ele>
        <time>2020-08-22T13:34:54Z</time>
      </trkpt>
      <trkpt lat="42.50118" lon="1.56689">
        <ele>1788.67</ele>
        <time>2020-08-22T13:35:12Z</time>
      </trkpt>
      <trkpt lat="42.50122" lon="1.5668">
        <ele>1787.71</ele>
        <time>2020-08-22T13:35:31Z</time>
      </trkpt>
      <trkpt lat="42.50127" lon="1.5667">
        <ele>1787.23</ele>
        <time>2020-08-22T13:35:47Z</time>
      </trkpt>
      <trkpt lat="42.50124" lon="1.56658">
        <ele>1786.27</ele>
        <time>2020-08-22T13:36:02Z</time>
      </trkpt>
      <trkpt lat="42.50122" lon="1.56648">
        <ele>1783.86</ele>
        <time>2020-08-22T13:36:18Z</time>
      </trkpt>
      <trkpt lat="42.50122" lon="1.56635">
        <ele>1781.46</ele>
        <time>2020-08-22T13:36:34Z</time>
      </trkpt>
      <trkpt lat="42.50122" lon="1.56624">
        <ele>1779.54</ele>
        <time>2020-08-22T13:36:51Z</time>
      </trkpt>
      <trkpt lat="42.50124" lon="1.56608">
        <ele>1777.61</ele>
        <time>2020-08-22T13:37:07Z</time>
      </trkpt>
      <trkpt lat="42.50131" lon="1.56594">
        <ele>1780.02</ele>
        <time>2020-08-22T13:37:23Z</time>
      </trkpt>
      <trkpt lat="42.50132" lon="1.5659">
        <ele>1779.54</ele>
        <time>2020-08-22T13:37:37Z</time>
      </trkpt>
      <trkpt lat="42.50133" lon="1.56579">
        <ele>1779.06</ele>
        <time>2020-08-22T13:37:53Z</time>
      </trkpt>
      <trkpt lat="42.50136" lon="1.56565">
        <ele>1778.58</ele>
        <time>2020-08-22T13:38:05Z</time>
      </trkpt>
      <trkpt lat="42.50137" lon="1.56551">
        <ele>1777.13</ele>
        <time>2020-08-22T13:38:19Z</time>
      </trkpt>
      <trkpt lat="42.50139" lon="1.56533">
        <ele>1776.65</ele>
        <time>2020-08-22T13:38:34Z</time>
      </trkpt>
      <trkpt lat="42.50144" lon="1.5652">
        <ele>1777.61</ele>
        <time>2020-08-22T13:38:49Z</time>
      </trkpt>
      <trkpt lat="42.50143" lon="1.5651">
        <ele>1776.65</ele>
        <time>2020-08-22T13:38:57Z</time>
      </trkpt>
      <trkpt lat="42.50143" lon="1.56497">
        <ele>1775.69</ele>
        <time>2020-08-22T13:39:10Z</time>
      </trkpt>
      <trkpt lat="42.50147" lon="1.56485">
        <ele>1776.65</ele>
        <time>2020-08-22T13:39:22Z</time>
      </trkpt>
      <trkpt lat="42.5015" lon="1.56474">
        <ele>1778.58</ele>
        <time>2020-08-22T13:39:36Z</time>
      </trkpt>
      <trkpt lat="42.50158" lon="1.56458">
        <ele>1780.02</ele>
        <time>2020-08-22T13:39:52Z</time>
      </trkpt>
      <trkpt lat="42.50161" lon="1.56442">
        <ele>1780.98</ele>
        <time>2020-08-22T13:40:09Z</time>
      </trkpt>
      <trkpt lat="42.50171" lon="1.56428">
        <ele>1780.98</ele>
        <time>2020-08-22T13:40:24Z</time>
      </trkpt>
      <trkpt lat="42.50173" lon="1.56419">
        <ele>1779.54</ele>
        <time>2020-08-22T13:40:35Z</time>
      </trkpt>
      <trkpt lat="42.50176" lon="1.56402">
        <ele>1777.61</ele>
        <time>2020-08-22T13:40:48Z</time>
      </trkpt>
      <trkpt lat="42.50173" lon="1.56383">
        <ele>1776.65</ele>
        <time>2020-08-22T13:41:01Z</time>
      </trkpt>
      <trkpt lat="42.5017" lon="1.56376">
        <ele>1777.13</ele>
        <time>2020-08-22T13:41:14Z</time>
      </trkpt>
      <trkpt lat="42.50167" lon="1.56377">
        <ele>1777.13</ele>
        <time>2020-08-22T13:41:37Z</time>
      </trkpt>
      <trkpt lat="42.50166" lon="1.56379">
        <ele>1777.13</ele>
        <time>2020-08-22T13:42:00Z</time>
      </trkpt>
      <trkpt lat="42.50165" lon="1.5638">
        <ele>1773.77</ele>
        <time>2020-08-22T13:42:23Z</time>
      </trkpt>
      <trkpt lat="42.50166" lon="1.5638">
        <ele>1773.77</ele>
        <time>2020-08-22T13:42:24Z</time>
      </trkpt>
      <trkpt lat="42.50166" lon="1.5638">
        <ele>1778.58</ele>
        <time>2020-08-22T13:42:25Z</time>
      </trkpt>
      <trkpt lat="42.50166" lon="1.5638">
        <ele>1773.77</ele>
        <time>2020-08-22T13:42:26Z</time>
      </trkpt>
      <trkpt lat="42.50166" lon="1.5638">
        <ele>1773.77</ele>
        <time>2020-08-22T13:42:27Z</time>
      </trkpt>
      <trkpt lat="42.50166" lon="1.5638">
        <ele>1761.75</ele>
        <time>2020-08-22T13:42:28Z</time>
      </trkpt>
      <trkpt lat="42.50166" lon="1.5638">
        <ele>1784.82</ele>
        <time>2020-08-22T13:42:29Z</time>
      </trkpt>
      <trkpt lat="42.50167" lon="1.5638">
        <ele>1782.42</ele>
        <time>2020-08-22T13:42:30Z</time>
      </trkpt>
      <trkpt lat="42.50167" lon="1.5638">
        <ele>1778.1</ele>
        <time>2020-08-22T13:42:31Z</time>
      </trkpt>
      <trkpt lat="42.50173" lon="1.56368">
        <ele>1778.58</ele>
        <time>2020-08-22T13:42:54Z</time>
      </trkpt>
      <trkpt lat="42.50174" lon="1.56369">
        <ele>1777.13</ele>
        <time>2020-08-22T13:42:56Z</time>
      </trkpt>
      <trkpt lat="42.50173" lon="1.5637">
        <ele>1776.17</ele>
        <time>2020-08-22T13:43:23Z</time>
      </trkpt>
      <trkpt lat="42.50172" lon="1.5637">
        <ele>1777.61</ele>
        <time>2020-08-22T13:43:25Z</time>
      </trkpt>
      <trkpt lat="42.50172" lon="1.56367">
        <ele>1777.61</ele>
        <time>2020-08-22T13:44:02Z</time>
      </trkpt>
      <trkpt lat="42.50172" lon="1.5637">
        <ele>1770.41</ele>
        <time>2020-08-22T13:44:27Z</time>
      </trkpt>
      <trkpt lat="42.50172" lon="1.5637">
        <ele>1771.37</ele>
        <time>2020-08-22T13:44:28Z</time>
      </trkpt>
      <trkpt lat="42.50171" lon="1.56369">
        <ele>1781.46</ele>
        <time>2020-08-22T13:44:30Z</time>
      </trkpt>
      <trkpt lat="42.5017" lon="1.56369">
        <ele>1786.27</ele>
        <time>2020-08-22T13:44:31Z</time>
      </trkpt>
      <trkpt lat="42.5017" lon="1.5637">
        <ele>1779.54</ele>
        <time>2020-08-22T13:44:32Z</time>
      </trkpt>
      <trkpt lat="42.50167" lon="1.5637">
        <ele>1776.17</ele>
        <time>2020-08-22T13:44:52Z</time>
      </trkpt>
      <trkpt lat="42.50169" lon="1.56372">
        <ele>1778.58</ele>
        <time>2020-08-22T13:45:16Z</time>
      </trkpt>
      <trkpt lat="42.50169" lon="1.56371">
        <ele>1776.65</ele>
        <time>2020-08-22T13:45:18Z</time>
      </trkpt>
      <trkpt lat="42.50168" lon="1.5637">
        <ele>1778.1</ele>
        <time>2020-08-22T13:45:30Z</time>
      </trkpt>
      <trkpt lat="42.50168" lon="1.5637">
        <ele>1776.65</ele>
        <time>2020-08-22T13:45:32Z</time>
      </trkpt>
      <trkpt lat="42.50168" lon="1.5637">
        <ele>1777.61</ele>
        <time>2020-08-22T13:45:35Z</time>
      </trkpt>
      <trkpt lat="42.50168" lon="1.56371">
        <ele>1776.65</ele>
        <time>2020-08-22T13:45:58Z</time>
      </trkpt>
      <trkpt lat="42.50169" lon="1.56376">
        <ele>1776.17</ele>
        <time>2020-08-22T13:46:32Z</time>
      </trkpt>
      <trkpt lat="42.50165" lon="1.56373">
        <ele>1776.17</ele>
        <time>2020-08-22T13:46:54Z</time>
      </trkpt>
      <trkpt lat="42.50163" lon="1.56373">
        <ele>1777.61</ele>
        <time>2020-08-22T13:47:24Z</time>
      </trkpt>
      <trkpt lat="42.50164" lon="1.56374">
        <ele>1778.1</ele>
        <time>2020-08-22T13:47:57Z</time>
      </trkpt>
      <trkpt lat="42.50167" lon="1.56371">
        <ele>1779.06</ele>
        <time>2020-08-22T13:48:43Z</time>
      </trkpt>
      <trkpt lat="42.50166" lon="1.56372">
        <ele>1779.54</ele>
        <time>2020-08-22T13:49:07Z</time>
      </trkpt>
      <trkpt lat="42.50164" lon="1.56372">
        <ele>1780.98</ele>
        <time>2020-08-22T13:49:13Z</time>
      </trkpt>
      <trkpt lat="42.50163" lon="1.56371">
        <ele>1780.02</ele>
        <time>2020-08-22T13:49:38Z</time>
      </trkpt>
      <trkpt lat="42.5016" lon="1.56377">
        <ele>1780.02</ele>
        <time>2020-08-22T13:49:59Z</time>
      </trkpt>
      <trkpt lat="42.50172" lon="1.56378">
        <ele>1780.02</ele>
        <time>2020-08-22T13:50:18Z</time>
      </trkpt>
      <trkpt lat="42.50182" lon="1.56378">
        <ele>1780.5</ele>
        <time>2020-08-22T13:50:33Z</time>
      </trkpt>
      <trkpt lat="42.50189" lon="1.5638">
        <ele>1779.06</ele>
        <time>2020-08-22T13:50:47Z</time>
      </trkpt>
      <trkpt lat="42.50195" lon="1.56387">
        <ele>1776.65</ele>
        <time>2020-08-22T13:51:03Z</time>
      </trkpt>
      <trkpt lat="42.50202" lon="1.56395">
        <ele>1775.21</ele>
        <time>2020-08-22T13:51:18Z</time>
      </trkpt>
      <trkpt lat="42.50212" lon="1.56408">
        <ele>1773.77</ele>
        <time>2020-08-22T13:51:36Z</time>
      </trkpt>
      <trkpt lat="42.50219" lon="1.56416">
        <ele>1772.33</ele>
        <time>2020-08-22T13:51:54Z</time>
      </trkpt>
      <trkpt lat="42.50226" lon="1.56423">
        <ele>1770.89</ele>
        <time>2020-08-22T13:52:08Z</time>
      </trkpt>
      <trkpt lat="42.50234" lon="1.56432">
        <ele>1769.44</ele>
        <time>2020-08-22T13:52:23Z</time>
      </trkpt>
      <trkpt lat="42.5024" lon="1.56443">
        <ele>1768</ele>
        <time>2020-08-22T13:52:40Z</time>
      </trkpt>
      <trkpt lat="42.5025" lon="1.5645">
        <ele>1766.56</ele>
        <time>2020-08-22T13:52:55Z</time>
      </trkpt>
      <trkpt lat="42.50258" lon="1.56456">
        <ele>1764.64</ele>
        <time>2020-08-22T13:53:12Z</time>
      </trkpt>
      <trkpt lat="42.50263" lon="1.56459">
        <ele>1762.71</ele>
        <time>2020-08-22T13:53:27Z</time>
      </trkpt>
      <trkpt lat="42.50271" lon="1.56466">
        <ele>1760.79</ele>
        <time>2020-08-22T13:53:46Z</time>
      </trkpt>
      <trkpt lat="42.50277" lon="1.56464">
        <ele>1759.35</ele>
        <time>2020-08-22T13:54:03Z</time>
      </trkpt>
      <trkpt lat="42.50284" lon="1.5647">
        <ele>1757.91</ele>
        <time>2020-08-22T13:54:22Z</time>
      </trkpt>
      <trkpt lat="42.50296" lon="1.56476">
        <ele>1756.47</ele>
        <time>2020-08-22T13:54:39Z</time>
      </trkpt>
      <trkpt lat="42.50302" lon="1.5648">
        <ele>1755.5</ele>
        <time>2020-08-22T13:54:56Z</time>
      </trkpt>
      <trkpt lat="42.50307" lon="1.56482">
        <ele>1754.06</ele>
        <time>2020-08-22T13:55:12Z</time>
      </trkpt>
      <trkpt lat="42.50307" lon="1.56481">
        <ele>1753.58</ele>
        <time>2020-08-22T13:55:29Z</time>
      </trkpt>
      <trkpt lat="42.50308" lon="1.56482">
        <ele>1752.14</ele>
        <time>2020-08-22T13:55:46Z</time>
      </trkpt>
      <trkpt lat="42.50319" lon="1.56487">
        <ele>1750.22</ele>
        <time>2020-08-22T13:56:04Z</time>
      </trkpt>
      <trkpt lat="42.50326" lon="1.56488">
        <ele>1748.78</ele>
        <time>2020-08-22T13:56:20Z</time>
      </trkpt>
      <trkpt lat="42.5033" lon="1.56492">
        <ele>1747.33</ele>
        <time>2020-08-22T13:56:35Z</time>
      </trkpt>
      <trkpt lat="42.50336" lon="1.56491">
        <ele>1745.89</ele>
        <time>2020-08-22T13:56:52Z</time>
      </trkpt>
      <trkpt lat="42.50342" lon="1.56498">
        <ele>1744.45</ele>
        <time>2020-08-22T13:57:10Z</time>
      </trkpt>
      <trkpt lat="42.50346" lon="1.56501">
        <ele>1743.01</ele>
        <time>2020-08-22T13:57:25Z</time>
      </trkpt>
      <trkpt lat="42.50355" lon="1.56505">
        <ele>1742.05</ele>
        <time>2020-08-22T13:57:43Z</time>
      </trkpt>
      <trkpt lat="42.50362" lon="1.56507">
        <ele>1740.6</ele>
        <time>2020-08-22T13:57:59Z</time>
      </trkpt>
      <trkpt lat="42.50365" lon="1.56504">
        <ele>1738.68</ele>
        <time>2020-08-22T13:58:17Z</time>
      </trkpt>
      <trkpt lat="42.50372" lon="1.56507">
        <ele>1737.72</ele>
        <time>2020-08-22T13:58:32Z</time>
      </trkpt>
      <trkpt lat="42.50379" lon="1.56509">
        <ele>1735.8</ele>
        <time>2020-08-22T13:58:50Z</time>
      </trkpt>
      <trkpt lat="42.50384" lon="1.56509">
        <ele>1734.84</ele>
        <time>2020-08-22T13:59:06Z</time>
      </trkpt>
      <trkpt lat="42.50394" lon="1.56513">
        <ele>1733.88</ele>
        <time>2020-08-22T13:59:21Z</time>
      </trkpt>
      <trkpt lat="42.50398" lon="1.56513">
        <ele>1732.91</ele>
        <time>2020-08-22T13:59:34Z</time>
      </trkpt>
      <trkpt lat="42.50401" lon="1.56514">
        <ele>1731.95</ele>
        <time>2020-08-22T13:59:47Z</time>
      </trkpt>
      <trkpt lat="42.50403" lon="1.56516">
        <ele>1729.55</ele>
        <time>2020-08-22T14:00:05Z</time>
      </trkpt>
      <trkpt lat="42.50405" lon="1.56515">
        <ele>1730.51</ele>
        <time>2020-08-22T14:00:10Z</time>
      </trkpt>
      <trkpt lat="42.50407" lon="1.56516">
        <ele>1729.07</ele>
        <time>2020-08-22T14:00:14Z</time>
      </trkpt>
      <trkpt lat="42.50411" lon="1.56517">
        <ele>1728.11</ele>
        <time>2020-08-22T14:00:32Z</time>
      </trkpt>
      <trkpt lat="42.50414" lon="1.56515">
        <ele>1728.59</ele>
        <time>2020-08-22T14:00:42Z</time>
      </trkpt>
      <trkpt lat="42.50415" lon="1.56515">
        <ele>1727.15</ele>
        <time>2020-08-22T14:00:44Z</time>
      </trkpt>
      <trkpt lat="42.5042" lon="1.56522">
        <ele>1726.18</ele>
        <time>2020-08-22T14:00:59Z</time>
      </trkpt>
      <trkpt lat="42.50423" lon="1.56523">
        <ele>1725.22</ele>
        <time>2020-08-22T14:01:15Z</time>
      </trkpt>
      <trkpt lat="42.50429" lon="1.5652">
        <ele>1723.3</ele>
        <time>2020-08-22T14:01:32Z</time>
      </trkpt>
      <trkpt lat="42.50434" lon="1.56519">
        <ele>1721.38</ele>
        <time>2020-08-22T14:01:45Z</time>
      </trkpt>
      <trkpt lat="42.50439" lon="1.56523">
        <ele>1719.94</ele>
        <time>2020-08-22T14:02:03Z</time>
      </trkpt>
      <trkpt lat="42.50443" lon="1.56526">
        <ele>1718.97</ele>
        <time>2020-08-22T14:02:21Z</time>
      </trkpt>
      <trkpt lat="42.50451" lon="1.5653">
        <ele>1718.01</ele>
        <time>2020-08-22T14:02:41Z</time>
      </trkpt>
      <trkpt lat="42.50457" lon="1.56533">
        <ele>1717.05</ele>
        <time>2020-08-22T14:02:54Z</time>
      </trkpt>
      <trkpt lat="42.50462" lon="1.56535">
        <ele>1716.09</ele>
        <time>2020-08-22T14:03:11Z</time>
      </trkpt>
      <trkpt lat="42.5047" lon="1.56536">
        <ele>1715.13</ele>
        <time>2020-08-22T14:03:29Z</time>
      </trkpt>
      <trkpt lat="42.50476" lon="1.56538">
        <ele>1714.17</ele>
        <time>2020-08-22T14:03:44Z</time>
      </trkpt>
      <trkpt lat="42.50485" lon="1.56541">
        <ele>1712.73</ele>
        <time>2020-08-22T14:04:00Z</time>
      </trkpt>
      <trkpt lat="42.50493" lon="1.5654">
        <ele>1711.76</ele>
        <time>2020-08-22T14:04:18Z</time>
      </trkpt>
      <trkpt lat="42.50503" lon="1.5654">
        <ele>1711.28</ele>
        <time>2020-08-22T14:04:34Z</time>
      </trkpt>
      <trkpt lat="42.50508" lon="1.56539">
        <ele>1710.8</ele>
        <time>2020-08-22T14:04:58Z</time>
      </trkpt>
      <trkpt lat="42.50511" lon="1.56536">
        <ele>1709.36</ele>
        <time>2020-08-22T14:05:13Z</time>
      </trkpt>
      <trkpt lat="42.50518" lon="1.56536">
        <ele>1708.88</ele>
        <time>2020-08-22T14:05:28Z</time>
      </trkpt>
      <trkpt lat="42.50527" lon="1.56533">
        <ele>1706.48</ele>
        <time>2020-08-22T14:05:43Z</time>
      </trkpt>
      <trkpt lat="42.50535" lon="1.56533">
        <ele>1704.55</ele>
        <time>2020-08-22T14:05:58Z</time>
      </trkpt>
      <trkpt lat="42.50539" lon="1.56528">
        <ele>1703.59</ele>
        <time>2020-08-22T14:06:15Z</time>
      </trkpt>
      <trkpt lat="42.50543" lon="1.56528">
        <ele>1701.67</ele>
        <time>2020-08-22T14:06:31Z</time>
      </trkpt>
      <trkpt lat="42.50549" lon="1.5653">
        <ele>1701.19</ele>
        <time>2020-08-22T14:06:46Z</time>
      </trkpt>
      <trkpt lat="42.50559" lon="1.5653">
        <ele>1701.19</ele>
        <time>2020-08-22T14:07:00Z</time>
      </trkpt>
      <trkpt lat="42.50568" lon="1.56528">
        <ele>1700.23</ele>
        <time>2020-08-22T14:07:15Z</time>
      </trkpt>
      <trkpt lat="42.50571" lon="1.56528">
        <ele>1700.23</ele>
        <time>2020-08-22T14:07:20Z</time>
      </trkpt>
      <trkpt lat="42.50585" lon="1.56528">
        <ele>1701.67</ele>
        <time>2020-08-22T14:07:34Z</time>
      </trkpt>
      <trkpt lat="42.50598" lon="1.56527">
        <ele>1701.67</ele>
        <time>2020-08-22T14:07:50Z</time>
      </trkpt>
      <trkpt lat="42.5061" lon="1.56526">
        <ele>1700.71</ele>
        <time>2020-08-22T14:08:05Z</time>
      </trkpt>
      <trkpt lat="42.50617" lon="1.56536">
        <ele>1700.71</ele>
        <time>2020-08-22T14:08:21Z</time>
      </trkpt>
      <trkpt lat="42.50626" lon="1.56551">
        <ele>1700.71</ele>
        <time>2020-08-22T14:08:35Z</time>
      </trkpt>
      <trkpt lat="42.50634" lon="1.56562">
        <ele>1700.71</ele>
        <time>2020-08-22T14:08:50Z</time>
      </trkpt>
      <trkpt lat="42.50641" lon="1.5657">
        <ele>1699.27</ele>
        <time>2020-08-22T14:09:06Z</time>
      </trkpt>
      <trkpt lat="42.50648" lon="1.56584">
        <ele>1698.79</ele>
        <time>2020-08-22T14:09:21Z</time>
      </trkpt>
      <trkpt lat="42.50659" lon="1.56601">
        <ele>1698.31</ele>
        <time>2020-08-22T14:09:38Z</time>
      </trkpt>
      <trkpt lat="42.50661" lon="1.5661">
        <ele>1697.83</ele>
        <time>2020-08-22T14:09:50Z</time>
      </trkpt>
      <trkpt lat="42.50663" lon="1.56623">
        <ele>1696.86</ele>
        <time>2020-08-22T14:10:03Z</time>
      </trkpt>
      <trkpt lat="42.5067" lon="1.56639">
        <ele>1694.94</ele>
        <time>2020-08-22T14:10:20Z</time>
      </trkpt>
      <trkpt lat="42.50675" lon="1.56648">
        <ele>1693.5</ele>
        <time>2020-08-22T14:10:40Z</time>
      </trkpt>
      <trkpt lat="42.50675" lon="1.56657">
        <ele>1691.58</ele>
        <time>2020-08-22T14:10:56Z</time>
      </trkpt>
      <trkpt lat="42.50676" lon="1.56664">
        <ele>1690.14</ele>
        <time>2020-08-22T14:11:12Z</time>
      </trkpt>
      <trkpt lat="42.50678" lon="1.56672">
        <ele>1688.21</ele>
        <time>2020-08-22T14:11:32Z</time>
      </trkpt>
      <trkpt lat="42.50685" lon="1.56685">
        <ele>1686.77</ele>
        <time>2020-08-22T14:11:50Z</time>
      </trkpt>
      <trkpt lat="42.50689" lon="1.56693">
        <ele>1685.81</ele>
        <time>2020-08-22T14:12:12Z</time>
      </trkpt>
      <trkpt lat="42.5069" lon="1.56699">
        <ele>1684.85</ele>
        <time>2020-08-22T14:12:30Z</time>
      </trkpt>
      <trkpt lat="42.50694" lon="1.56709">
        <ele>1682.93</ele>
        <time>2020-08-22T14:12:52Z</time>
      </trkpt>
      <trkpt lat="42.50696" lon="1.5672">
        <ele>1681.96</ele>
        <time>2020-08-22T14:13:08Z</time>
      </trkpt>
      <trkpt lat="42.507" lon="1.56727">
        <ele>1681</ele>
        <time>2020-08-22T14:13:24Z</time>
      </trkpt>
      <trkpt lat="42.50705" lon="1.56735">
        <ele>1680.04</ele>
        <time>2020-08-22T14:13:40Z</time>
      </trkpt>
      <trkpt lat="42.50707" lon="1.56743">
        <ele>1678.12</ele>
        <time>2020-08-22T14:13:55Z</time>
      </trkpt>
      <trkpt lat="42.50712" lon="1.56754">
        <ele>1676.2</ele>
        <time>2020-08-22T14:14:11Z</time>
      </trkpt>
      <trkpt lat="42.50719" lon="1.56765">
        <ele>1674.27</ele>
        <time>2020-08-22T14:14:26Z</time>
      </trkpt>
      <trkpt lat="42.50721" lon="1.5677">
        <ele>1673.79</ele>
        <time>2020-08-22T14:14:38Z</time>
      </trkpt>
      <trkpt lat="42.50728" lon="1.56782">
        <ele>1672.83</ele>
        <time>2020-08-22T14:14:54Z</time>
      </trkpt>
      <trkpt lat="42.50732" lon="1.56798">
        <ele>1671.87</ele>
        <time>2020-08-22T14:15:09Z</time>
      </trkpt>
      <trkpt lat="42.50734" lon="1.56805">
        <ele>1670.91</ele>
        <time>2020-08-22T14:15:21Z</time>
      </trkpt>
      <trkpt lat="42.50743" lon="1.56812">
        <ele>1668.51</ele>
        <time>2020-08-22T14:15:38Z</time>
      </trkpt>
      <trkpt lat="42.50745" lon="1.56822">
        <ele>1666.58</ele>
        <time>2020-08-22T14:15:52Z</time>
      </trkpt>
      <trkpt lat="42.5075" lon="1.56832">
        <ele>1666.58</ele>
        <time>2020-08-22T14:16:01Z</time>
      </trkpt>
      <trkpt lat="42.50755" lon="1.56842">
        <ele>1666.58</ele>
        <time>2020-08-22T14:16:16Z</time>
      </trkpt>
      <trkpt lat="42.50761" lon="1.56853">
        <ele>1666.1</ele>
        <time>2020-08-22T14:16:31Z</time>
      </trkpt>
      <trkpt lat="42.50764" lon="1.56863">
        <ele>1666.1</ele>
        <time>2020-08-22T14:16:43Z</time>
      </trkpt>
      <trkpt lat="42.5077" lon="1.56882">
        <ele>1664.66</ele>
        <time>2020-08-22T14:16:59Z</time>
      </trkpt>
      <trkpt lat="42.50775" lon="1.56891">
        <ele>1663.22</ele>
        <time>2020-08-22T14:17:12Z</time>
      </trkpt>
      <trkpt lat="42.50778" lon="1.56902">
        <ele>1661.78</ele>
        <time>2020-08-22T14:17:27Z</time>
      </trkpt>
      <trkpt lat="42.50784" lon="1.56912">
        <ele>1660.33</ele>
        <time>2020-08-22T14:17:44Z</time>
      </trkpt>
      <trkpt lat="42.50788" lon="1.56923">
        <ele>1658.41</ele>
        <time>2020-08-22T14:17:59Z</time>
      </trkpt>
      <trkpt lat="42.5079" lon="1.56924">
        <ele>1657.93</ele>
        <time>2020-08-22T14:18:17Z</time>
      </trkpt>
      <trkpt lat="42.50794" lon="1.56931">
        <ele>1656.49</ele>
        <time>2020-08-22T14:18:40Z</time>
      </trkpt>
      <trkpt lat="42.50792" lon="1.56938">
        <ele>1655.05</ele>
        <time>2020-08-22T14:18:52Z</time>
      </trkpt>
      <trkpt lat="42.508" lon="1.56947">
        <ele>1653.6</ele>
        <time>2020-08-22T14:19:11Z</time>
      </trkpt>
      <trkpt lat="42.50802" lon="1.56945">
        <ele>1653.12</ele>
        <time>2020-08-22T14:19:31Z</time>
      </trkpt>
      <trkpt lat="42.50808" lon="1.56958">
        <ele>1652.16</ele>
        <time>2020-08-22T14:19:46Z</time>
      </trkpt>
      <trkpt lat="42.50818" lon="1.56971">
        <ele>1650.24</ele>
        <time>2020-08-22T14:20:03Z</time>
      </trkpt>
      <trkpt lat="42.5082" lon="1.5698">
        <ele>1649.28</ele>
        <time>2020-08-22T14:20:17Z</time>
      </trkpt>
      <trkpt lat="42.50822" lon="1.56989">
        <ele>1647.84</ele>
        <time>2020-08-22T14:20:29Z</time>
      </trkpt>
      <trkpt lat="42.50827" lon="1.57">
        <ele>1647.36</ele>
        <time>2020-08-22T14:20:43Z</time>
      </trkpt>
      <trkpt lat="42.50831" lon="1.57001">
        <ele>1647.36</ele>
        <time>2020-08-22T14:20:55Z</time>
      </trkpt>
      <trkpt lat="42.50842" lon="1.57004">
        <ele>1645.43</ele>
        <time>2020-08-22T14:21:10Z</time>
      </trkpt>
      <trkpt lat="42.50853" lon="1.57008">
        <ele>1644.47</ele>
        <time>2020-08-22T14:21:25Z</time>
      </trkpt>
      <trkpt lat="42.5086" lon="1.57013">
        <ele>1643.03</ele>
        <time>2020-08-22T14:21:40Z</time>
      </trkpt>
      <trkpt lat="42.50866" lon="1.57016">
        <ele>1643.99</ele>
        <time>2020-08-22T14:21:59Z</time>
      </trkpt>
      <trkpt lat="42.50876" lon="1.5701">
        <ele>1643.51</ele>
        <time>2020-08-22T14:22:15Z</time>
      </trkpt>
      <trkpt lat="42.50876" lon="1.57008">
        <ele>1642.07</ele>
        <time>2020-08-22T14:22:19Z</time>
      </trkpt>
      <trkpt lat="42.50877" lon="1.57004">
        <ele>1642.07</ele>
        <time>2020-08-22T14:22:40Z</time>
      </trkpt>
      <trkpt lat="42.50879" lon="1.56999">
        <ele>1640.63</ele>
        <time>2020-08-22T14:22:56Z</time>
      </trkpt>
      <trkpt lat="42.50879" lon="1.56998">
        <ele>1640.15</ele>
        <time>2020-08-22T14:23:20Z</time>
      </trkpt>
      <trkpt lat="42.50887" lon="1.57006">
        <ele>1639.67</ele>
        <time>2020-08-22T14:23:37Z</time>
      </trkpt>
      <trkpt lat="42.50899" lon="1.57006">
        <ele>1638.22</ele>
        <time>2020-08-22T14:23:53Z</time>
      </trkpt>
      <trkpt lat="42.50912" lon="1.57002">
        <ele>1638.22</ele>
        <time>2020-08-22T14:24:08Z</time>
      </trkpt>
      <trkpt lat="42.50917" lon="1.57007">
        <ele>1639.67</ele>
        <time>2020-08-22T14:24:14Z</time>
      </trkpt>
      <trkpt lat="42.50925" lon="1.57012">
        <ele>1638.22</ele>
        <time>2020-08-22T14:24:28Z</time>
      </trkpt>
      <trkpt lat="42.50929" lon="1.57014">
        <ele>1637.74</ele>
        <time>2020-08-22T14:24:34Z</time>
      </trkpt>
      <trkpt lat="42.50943" lon="1.57012">
        <ele>1635.82</ele>
        <time>2020-08-22T14:24:49Z</time>
      </trkpt>
      <trkpt lat="42.50942" lon="1.57014">
        <ele>1635.34</ele>
        <time>2020-08-22T14:25:08Z</time>
      </trkpt>
      <trkpt lat="42.50942" lon="1.57017">
        <ele>1634.86</ele>
        <time>2020-08-22T14:25:36Z</time>
      </trkpt>
      <trkpt lat="42.50946" lon="1.57012">
        <ele>1634.86</ele>
        <time>2020-08-22T14:26:06Z</time>
      </trkpt>
      <trkpt lat="42.50945" lon="1.57015">
        <ele>1634.86</ele>
        <time>2020-08-22T14:26:39Z</time>
      </trkpt>
      <trkpt lat="42.50941" lon="1.57018">
        <ele>1634.86</ele>
        <time>2020-08-22T14:27:11Z</time>
      </trkpt>
      <trkpt lat="42.50945" lon="1.57015">
        <ele>1634.86</ele>
        <time>2020-08-22T14:27:45Z</time>
      </trkpt>
      <trkpt lat="42.50946" lon="1.57014">
        <ele>1633.9</ele>
        <time>2020-08-22T14:28:19Z</time>
      </trkpt>
      <trkpt lat="42.50943" lon="1.57016">
        <ele>1634.86</ele>
        <time>2020-08-22T14:28:55Z</time>
      </trkpt>
      <trkpt lat="42.50944" lon="1.57016">
        <ele>1635.34</ele>
        <time>2020-08-22T14:29:35Z</time>
      </trkpt>
      <trkpt lat="42.50945" lon="1.57017">
        <ele>1635.34</ele>
        <time>2020-08-22T14:30:08Z</time>
      </trkpt>
      <trkpt lat="42.50947" lon="1.57014">
        <ele>1635.34</ele>
        <time>2020-08-22T14:30:48Z</time>
      </trkpt>
      <trkpt lat="42.50944" lon="1.57014">
        <ele>1634.86</ele>
        <time>2020-08-22T14:31:20Z</time>
      </trkpt>
      <trkpt lat="42.50941" lon="1.57012">
        <ele>1634.86</ele>
        <time>2020-08-22T14:32:04Z</time>
      </trkpt>
      <trkpt lat="42.50942" lon="1.57012">
        <ele>1634.86</ele>
        <time>2020-08-22T14:32:39Z</time>
      </trkpt>
      <trkpt lat="42.50942" lon="1.57008">
        <ele>1635.34</ele>
        <time>2020-08-22T14:33:02Z</time>
      </trkpt>
      <trkpt lat="42.50941" lon="1.57013">
        <ele>1635.34</ele>
        <time>2020-08-22T14:33:21Z</time>
      </trkpt>
      <trkpt lat="42.50947" lon="1.57024">
        <ele>1635.34</ele>
        <time>2020-08-22T14:33:34Z</time>
      </trkpt>
      <trkpt lat="42.50959" lon="1.57021">
        <ele>1637.74</ele>
        <time>2020-08-22T14:33:50Z</time>
      </trkpt>
      <trkpt lat="42.50971" lon="1.57011">
        <ele>1638.7</ele>
        <time>2020-08-22T14:34:04Z</time>
      </trkpt>
      <trkpt lat="42.50983" lon="1.56989">
        <ele>1637.26</ele>
        <time>2020-08-22T14:34:21Z</time>
      </trkpt>
      <trkpt lat="42.50988" lon="1.56983">
        <ele>1637.26</ele>
        <time>2020-08-22T14:34:27Z</time>
      </trkpt>
      <trkpt lat="42.50992" lon="1.56982">
        <ele>1637.26</ele>
        <time>2020-08-22T14:34:30Z</time>
      </trkpt>
      <trkpt lat="42.51001" lon="1.56965">
        <ele>1638.22</ele>
        <time>2020-08-22T14:34:46Z</time>
      </trkpt>
      <trkpt lat="42.51006" lon="1.56959">
        <ele>1638.22</ele>
        <time>2020-08-22T14:34:54Z</time>
      </trkpt>
      <trkpt lat="42.51015" lon="1.56938">
        <ele>1638.22</ele>
        <time>2020-08-22T14:35:09Z</time>
      </trkpt>
      <trkpt lat="42.51018" lon="1.56921">
        <ele>1639.19</ele>
        <time>2020-08-22T14:35:23Z</time>
      </trkpt>
      <trkpt lat="42.51022" lon="1.56922">
        <ele>1639.19</ele>
        <time>2020-08-22T14:35:27Z</time>
      </trkpt>
      <trkpt lat="42.51029" lon="1.5692">
        <ele>1639.19</ele>
        <time>2020-08-22T14:35:34Z</time>
      </trkpt>
      <trkpt lat="42.51044" lon="1.56911">
        <ele>1639.19</ele>
        <time>2020-08-22T14:35:49Z</time>
      </trkpt>
      <trkpt lat="42.51057" lon="1.56901">
        <ele>1639.67</ele>
        <time>2020-08-22T14:36:03Z</time>
      </trkpt>
      <trkpt lat="42.5107" lon="1.56896">
        <ele>1639.67</ele>
        <time>2020-08-22T14:36:17Z</time>
      </trkpt>
      <trkpt lat="42.51092" lon="1.56882">
        <ele>1640.15</ele>
        <time>2020-08-22T14:36:37Z</time>
      </trkpt>
      <trkpt lat="42.51097" lon="1.56878">
        <ele>1641.11</ele>
        <time>2020-08-22T14:36:42Z</time>
      </trkpt>
      <trkpt lat="42.51106" lon="1.56864">
        <ele>1641.11</ele>
        <time>2020-08-22T14:36:55Z</time>
      </trkpt>
      <trkpt lat="42.51107" lon="1.56861">
        <ele>1639.19</ele>
        <time>2020-08-22T14:36:57Z</time>
      </trkpt>
      <trkpt lat="42.51108" lon="1.56859">
        <ele>1642.07</ele>
        <time>2020-08-22T14:36:59Z</time>
      </trkpt>
      <trkpt lat="42.51118" lon="1.5685">
        <ele>1641.59</ele>
        <time>2020-08-22T14:37:12Z</time>
      </trkpt>
      <trkpt lat="42.5112" lon="1.5685">
        <ele>1640.15</ele>
        <time>2020-08-22T14:37:15Z</time>
      </trkpt>
      <trkpt lat="42.51133" lon="1.56861">
        <ele>1640.15</ele>
        <time>2020-08-22T14:37:30Z</time>
      </trkpt>
      <trkpt lat="42.51142" lon="1.56868">
        <ele>1640.15</ele>
        <time>2020-08-22T14:37:42Z</time>
      </trkpt>
      <trkpt lat="42.51157" lon="1.56875">
        <ele>1640.15</ele>
        <time>2020-08-22T14:37:57Z</time>
      </trkpt>
      <trkpt lat="42.5117" lon="1.56875">
        <ele>1640.15</ele>
        <time>2020-08-22T14:38:11Z</time>
      </trkpt>
      <trkpt lat="42.51177" lon="1.56869">
        <ele>1640.15</ele>
        <time>2020-08-22T14:38:18Z</time>
      </trkpt>
      <trkpt lat="42.51184" lon="1.56865">
        <ele>1639.67</ele>
        <time>2020-08-22T14:38:23Z</time>
      </trkpt>
      <trkpt lat="42.51186" lon="1.56863">
        <ele>1639.67</ele>
        <time>2020-08-22T14:38:25Z</time>
      </trkpt>
      <trkpt lat="42.51194" lon="1.5685">
        <ele>1639.67</ele>
        <time>2020-08-22T14:38:39Z</time>
      </trkpt>
      <trkpt lat="42.51201" lon="1.56832">
        <ele>1639.67</ele>
        <time>2020-08-22T14:38:54Z</time>
      </trkpt>
      <trkpt lat="42.51207" lon="1.56817">
        <ele>1639.67</ele>
        <time>2020-08-22T14:39:07Z</time>
      </trkpt>
      <trkpt lat="42.51215" lon="1.56802">
        <ele>1639.67</ele>
        <time>2020-08-22T14:39:22Z</time>
      </trkpt>
      <trkpt lat="42.5122" lon="1.56795">
        <ele>1639.67</ele>
        <time>2020-08-22T14:39:29Z</time>
      </trkpt>
      <trkpt lat="42.51229" lon="1.56778">
        <ele>1639.67</ele>
        <time>2020-08-22T14:39:44Z</time>
      </trkpt>
      <trkpt lat="42.51238" lon="1.56766">
        <ele>1639.19</ele>
        <time>2020-08-22T14:40:01Z</time>
      </trkpt>
      <trkpt lat="42.51244" lon="1.56766">
        <ele>1638.7</ele>
        <time>2020-08-22T14:40:08Z</time>
      </trkpt>
      <trkpt lat="42.51259" lon="1.56768">
        <ele>1638.7</ele>
        <time>2020-08-22T14:40:23Z</time>
      </trkpt>
      <trkpt lat="42.5128" lon="1.56775">
        <ele>1638.7</ele>
        <time>2020-08-22T14:40:43Z</time>
      </trkpt>
      <trkpt lat="42.51296" lon="1.56782">
        <ele>1638.7</ele>
        <time>2020-08-22T14:41:00Z</time>
      </trkpt>
      <trkpt lat="42.51313" lon="1.56782">
        <ele>1638.7</ele>
        <time>2020-08-22T14:41:17Z</time>
      </trkpt>
      <trkpt lat="42.51327" lon="1.56782">
        <ele>1638.22</ele>
        <time>2020-08-22T14:41:33Z</time>
      </trkpt>
      <trkpt lat="42.51343" lon="1.56777">
        <ele>1638.22</ele>
        <time>2020-08-22T14:41:48Z</time>
      </trkpt>
      <trkpt lat="42.51359" lon="1.56772">
        <ele>1638.22</ele>
        <time>2020-08-22T14:42:02Z</time>
      </trkpt>
      <trkpt lat="42.51373" lon="1.56768">
        <ele>1638.22</ele>
        <time>2020-08-22T14:42:17Z</time>
      </trkpt>
      <trkpt lat="42.5138" lon="1.56763">
        <ele>1638.22</ele>
        <time>2020-08-22T14:42:34Z</time>
      </trkpt>
      <trkpt lat="42.51388" lon="1.56757">
        <ele>1638.22</ele>
        <time>2020-08-22T14:43:05Z</time>
      </trkpt>
      <trkpt lat="42.51403" lon="1.56745">
        <ele>1638.22</ele>
        <time>2020-08-22T14:43:20Z</time>
      </trkpt>
      <trkpt lat="42.51412" lon="1.56745">
        <ele>1638.22</ele>
        <time>2020-08-22T14:43:35Z</time>
      </trkpt>
      <trkpt lat="42.51439" lon="1.56755">
        <ele>1638.22</ele>
        <time>2020-08-22T14:44:01Z</time>
      </trkpt>
      <trkpt lat="42.51445" lon="1.5677">
        <ele>1638.22</ele>
        <time>2020-08-22T14:44:16Z</time>
      </trkpt>
      <trkpt lat="42.51447" lon="1.56775">
        <ele>1638.22</ele>
        <time>2020-08-22T14:44:20Z</time>
      </trkpt>
      <trkpt lat="42.51455" lon="1.5679">
        <ele>1638.22</ele>
        <time>2020-08-22T14:44:35Z</time>
      </trkpt>
      <trkpt lat="42.51457" lon="1.56797">
        <ele>1638.22</ele>
        <time>2020-08-22T14:44:41Z</time>
      </trkpt>
      <trkpt lat="42.51465" lon="1.56809">
        <ele>1638.22</ele>
        <time>2020-08-22T14:44:56Z</time>
      </trkpt>
      <trkpt lat="42.51469" lon="1.56813">
        <ele>1638.22</ele>
        <time>2020-08-22T14:45:01Z</time>
      </trkpt>
      <trkpt lat="42.51479" lon="1.56829">
        <ele>1637.74</ele>
        <time>2020-08-22T14:45:17Z</time>
      </trkpt>
      <trkpt lat="42.51488" lon="1.56842">
        <ele>1637.74</ele>
        <time>2020-08-22T14:45:32Z</time>
      </trkpt>
      <trkpt lat="42.51501" lon="1.56852">
        <ele>1637.74</ele>
        <time>2020-08-22T14:45:48Z</time>
      </trkpt>
      <trkpt lat="42.5151" lon="1.56864">
        <ele>1637.26</ele>
        <time>2020-08-22T14:46:02Z</time>
      </trkpt>
      <trkpt lat="42.51519" lon="1.5688">
        <ele>1637.26</ele>
        <time>2020-08-22T14:46:16Z</time>
      </trkpt>
      <trkpt lat="42.5152" lon="1.56882">
        <ele>1638.7</ele>
        <time>2020-08-22T14:46:19Z</time>
      </trkpt>
      <trkpt lat="42.51522" lon="1.56884">
        <ele>1638.7</ele>
        <time>2020-08-22T14:46:22Z</time>
      </trkpt>
      <trkpt lat="42.5153" lon="1.56904">
        <ele>1637.26</ele>
        <time>2020-08-22T14:46:37Z</time>
      </trkpt>
      <trkpt lat="42.51535" lon="1.56923">
        <ele>1637.26</ele>
        <time>2020-08-22T14:46:52Z</time>
      </trkpt>
      <trkpt lat="42.51542" lon="1.56944">
        <ele>1637.74</ele>
        <time>2020-08-22T14:47:09Z</time>
      </trkpt>
      <trkpt lat="42.51548" lon="1.56962">
        <ele>1637.74</ele>
        <time>2020-08-22T14:47:24Z</time>
      </trkpt>
      <trkpt lat="42.5155" lon="1.56971">
        <ele>1637.74</ele>
        <time>2020-08-22T14:47:30Z</time>
      </trkpt>
      <trkpt lat="42.51556" lon="1.5699">
        <ele>1637.26</ele>
        <time>2020-08-22T14:47:48Z</time>
      </trkpt>
      <trkpt lat="42.51561" lon="1.57005">
        <ele>1636.78</ele>
        <time>2020-08-22T14:48:00Z</time>
      </trkpt>
      <trkpt lat="42.5157" lon="1.57024">
        <ele>1636.78</ele>
        <time>2020-08-22T14:48:17Z</time>
      </trkpt>
      <trkpt lat="42.51577" lon="1.57032">
        <ele>1636.3</ele>
        <time>2020-08-22T14:48:26Z</time>
      </trkpt>
      <trkpt lat="42.51591" lon="1.57043">
        <ele>1636.3</ele>
        <time>2020-08-22T14:48:44Z</time>
      </trkpt>
      <trkpt lat="42.51607" lon="1.57039">
        <ele>1636.3</ele>
        <time>2020-08-22T14:48:58Z</time>
      </trkpt>
      <trkpt lat="42.51626" lon="1.57028">
        <ele>1636.3</ele>
        <time>2020-08-22T14:49:16Z</time>
      </trkpt>
      <trkpt lat="42.51633" lon="1.57027">
        <ele>1636.3</ele>
        <time>2020-08-22T14:49:24Z</time>
      </trkpt>
      <trkpt lat="42.51648" lon="1.57025">
        <ele>1635.82</ele>
        <time>2020-08-22T14:49:39Z</time>
      </trkpt>
      <trkpt lat="42.51665" lon="1.57025">
        <ele>1635.82</ele>
        <time>2020-08-22T14:49:55Z</time>
      </trkpt>
      <trkpt lat="42.51676" lon="1.57032">
        <ele>1635.82</ele>
        <time>2020-08-22T14:50:10Z</time>
      </trkpt>
      <trkpt lat="42.51686" lon="1.57043">
        <ele>1635.82</ele>
        <time>2020-08-22T14:50:25Z</time>
      </trkpt>
      <trkpt lat="42.51698" lon="1.57055">
        <ele>1635.82</ele>
        <time>2020-08-22T14:50:43Z</time>
      </trkpt>
      <trkpt lat="42.5171" lon="1.57067">
        <ele>1636.3</ele>
        <time>2020-08-22T14:50:59Z</time>
      </trkpt>
      <trkpt lat="42.51721" lon="1.5708">
        <ele>1636.3</ele>
        <time>2020-08-22T14:51:14Z</time>
      </trkpt>
      <trkpt lat="42.51731" lon="1.5709">
        <ele>1636.3</ele>
        <time>2020-08-22T14:51:29Z</time>
      </trkpt>
      <trkpt lat="42.51744" lon="1.57089">
        <ele>1635.82</ele>
        <time>2020-08-22T14:51:42Z</time>
      </trkpt>
      <trkpt lat="42.51748" lon="1.57089">
        <ele>1636.3</ele>
        <time>2020-08-22T14:52:00Z</time>
      </trkpt>
      <trkpt lat="42.51753" lon="1.57092">
        <ele>1636.3</ele>
        <time>2020-08-22T14:52:13Z</time>
      </trkpt>
      <trkpt lat="42.51758" lon="1.57101">
        <ele>1637.26</ele>
        <time>2020-08-22T14:52:27Z</time>
      </trkpt>
      <trkpt lat="42.51773" lon="1.57102">
        <ele>1638.22</ele>
        <time>2020-08-22T14:52:45Z</time>
      </trkpt>
      <trkpt lat="42.51775" lon="1.57085">
        <ele>1640.15</ele>
        <time>2020-08-22T14:53:01Z</time>
      </trkpt>
      <trkpt lat="42.51774" lon="1.57068">
        <ele>1641.11</ele>
        <time>2020-08-22T14:53:17Z</time>
      </trkpt>
      <trkpt lat="42.51774" lon="1.57067">
        <ele>1641.11</ele>
        <time>2020-08-22T14:53:18Z</time>
      </trkpt>
      <trkpt lat="42.51772" lon="1.57044">
        <ele>1643.51</ele>
        <time>2020-08-22T14:53:34Z</time>
      </trkpt>
      <trkpt lat="42.51771" lon="1.57029">
        <ele>1643.99</ele>
        <time>2020-08-22T14:53:47Z</time>
      </trkpt>
      <trkpt lat="42.51771" lon="1.57006">
        <ele>1645.91</ele>
        <time>2020-08-22T14:54:03Z</time>
      </trkpt>
      <trkpt lat="42.5177" lon="1.56997">
        <ele>1645.91</ele>
        <time>2020-08-22T14:54:09Z</time>
      </trkpt>
      <trkpt lat="42.51769" lon="1.56988">
        <ele>1646.4</ele>
        <time>2020-08-22T14:54:15Z</time>
      </trkpt>
      <trkpt lat="42.51768" lon="1.5697">
        <ele>1647.84</ele>
        <time>2020-08-22T14:54:30Z</time>
      </trkpt>
      <trkpt lat="42.51766" lon="1.56948">
        <ele>1649.28</ele>
        <time>2020-08-22T14:54:46Z</time>
      </trkpt>
      <trkpt lat="42.51764" lon="1.56929">
        <ele>1650.24</ele>
        <time>2020-08-22T14:55:00Z</time>
      </trkpt>
      <trkpt lat="42.51765" lon="1.56919">
        <ele>1650.72</ele>
        <time>2020-08-22T14:55:06Z</time>
      </trkpt>
      <trkpt lat="42.51759" lon="1.56897">
        <ele>1651.68</ele>
        <time>2020-08-22T14:55:24Z</time>
      </trkpt>
      <trkpt lat="42.51757" lon="1.56894">
        <ele>1656.49</ele>
        <time>2020-08-22T14:55:27Z</time>
      </trkpt>
      <trkpt lat="42.51756" lon="1.56893">
        <ele>1654.09</ele>
        <time>2020-08-22T14:55:28Z</time>
      </trkpt>
      <trkpt lat="42.51756" lon="1.56891">
        <ele>1653.6</ele>
        <time>2020-08-22T14:55:30Z</time>
      </trkpt>
      <trkpt lat="42.51756" lon="1.56882">
        <ele>1653.6</ele>
        <time>2020-08-22T14:55:36Z</time>
      </trkpt>
      <trkpt lat="42.51752" lon="1.56867">
        <ele>1653.6</ele>
        <time>2020-08-22T14:55:47Z</time>
      </trkpt>
      <trkpt lat="42.51749" lon="1.56864">
        <ele>1654.57</ele>
        <time>2020-08-22T14:55:50Z</time>
      </trkpt>
      <trkpt lat="42.51744" lon="1.56845">
        <ele>1655.53</ele>
        <time>2020-08-22T14:56:05Z</time>
      </trkpt>
      <trkpt lat="42.51745" lon="1.56839">
        <ele>1656.01</ele>
        <time>2020-08-22T14:56:11Z</time>
      </trkpt>
      <trkpt lat="42.51746" lon="1.56821">
        <ele>1656.01</ele>
        <time>2020-08-22T14:56:27Z</time>
      </trkpt>
      <trkpt lat="42.51747" lon="1.56814">
        <ele>1656.01</ele>
        <time>2020-08-22T14:56:36Z</time>
      </trkpt>
      <trkpt lat="42.51748" lon="1.5681">
        <ele>1656.01</ele>
        <time>2020-08-22T14:56:39Z</time>
      </trkpt>
      <trkpt lat="42.5174" lon="1.56805">
        <ele>1656.49</ele>
        <time>2020-08-22T14:56:54Z</time>
      </trkpt>
      <trkpt lat="42.51738" lon="1.56803">
        <ele>1656.49</ele>
        <time>2020-08-22T14:57:16Z</time>
      </trkpt>
      <trkpt lat="42.51739" lon="1.56806">
        <ele>1656.49</ele>
        <time>2020-08-22T14:57:37Z</time>
      </trkpt>
      <trkpt lat="42.5174" lon="1.56807">
        <ele>1655.05</ele>
        <time>2020-08-22T14:57:41Z</time>
      </trkpt>
      <trkpt lat="42.5174" lon="1.56808">
        <ele>1654.57</ele>
        <time>2020-08-22T14:58:14Z</time>
      </trkpt>
      <trkpt lat="42.51739" lon="1.56809">
        <ele>1654.57</ele>
        <time>2020-08-22T14:58:43Z</time>
      </trkpt>
      <trkpt lat="42.51739" lon="1.56806">
        <ele>1655.53</ele>
        <time>2020-08-22T14:59:09Z</time>
      </trkpt>
      <trkpt lat="42.5174" lon="1.5681">
        <ele>1655.53</ele>
        <time>2020-08-22T14:59:32Z</time>
      </trkpt>
      <trkpt lat="42.51741" lon="1.5681">
        <ele>1655.53</ele>
        <time>2020-08-22T15:00:01Z</time>
      </trkpt>
      <trkpt lat="42.51739" lon="1.56809">
        <ele>1655.53</ele>
        <time>2020-08-22T15:00:26Z</time>
      </trkpt>
      <trkpt lat="42.5174" lon="1.5681">
        <ele>1655.53</ele>
        <time>2020-08-22T15:00:55Z</time>
      </trkpt>
      <trkpt lat="42.51741" lon="1.5681">
        <ele>1656.01</ele>
        <time>2020-08-22T15:01:26Z</time>
      </trkpt>
      <trkpt lat="42.51739" lon="1.5681">
        <ele>1655.53</ele>
        <time>2020-08-22T15:01:58Z</time>
      </trkpt>
      <trkpt lat="42.51741" lon="1.5681">
        <ele>1655.05</ele>
        <time>2020-08-22T15:02:24Z</time>
      </trkpt>
      <trkpt lat="42.51743" lon="1.56809">
        <ele>1655.05</ele>
        <time>2020-08-22T15:02:51Z</time>
      </trkpt>
      <trkpt lat="42.51742" lon="1.56808">
        <ele>1653.6</ele>
        <time>2020-08-22T15:02:59Z</time>
      </trkpt>
      <trkpt lat="42.51742" lon="1.5681">
        <ele>1655.53</ele>
        <time>2020-08-22T15:03:17Z</time>
      </trkpt>
      <trkpt lat="42.51744" lon="1.5681">
        <ele>1655.53</ele>
        <time>2020-08-22T15:03:51Z</time>
      </trkpt>
    </trkseg>
  </trk>
</gpx>